<?xml version="1.0" encoding="UTF-8" standalone="no" ?>
<gpx xmlns="http://www.topografix.com/GPX/1/1" xmlns:xsi="http://www.w3.org/2001/XMLSchema-instance" xsi:schemaLocation="http://www.topografix.com/GPX/1/1 http://www.topografix.com/GPX/1/1/gpx.xsd" version="1.1" creator="VisuGPX - https://www.visugpx.com">
  <metadata>
    <name>Rando - Calanque de l'oeil de verre</name>
    <desc><![CDATA[Belle rando du vertige. Passage de l’œil de verre pour poursuivre par la corniche CAF. Attention, quelques passages engagés, prévoir corde pour les moins habilles.]]></desc>
  </metadata>
  <trk>
    <name><![CDATA[18-SEP-17 13:32:41]]></name>
    <trkseg>
      <trkpt lat="43.23079" lon="5.43688">
        <ele>85.69</ele>
        <time>2017-09-18T07:15:49Z</time>
      </trkpt>
      <trkpt lat="43.2308" lon="5.43685">
        <ele>90.5</ele>
        <time>2017-09-18T07:15:54Z</time>
      </trkpt>
      <trkpt lat="43.2308" lon="5.43682">
        <ele>95.31</ele>
        <time>2017-09-18T07:15:57Z</time>
      </trkpt>
      <trkpt lat="43.23079" lon="5.43682">
        <ele>99.15</ele>
        <time>2017-09-18T07:16:00Z</time>
      </trkpt>
      <trkpt lat="43.23077" lon="5.43681">
        <ele>102.52</ele>
        <time>2017-09-18T07:16:03Z</time>
      </trkpt>
      <trkpt lat="43.23078" lon="5.4368">
        <ele>106.36</ele>
        <time>2017-09-18T07:16:07Z</time>
      </trkpt>
      <trkpt lat="43.23078" lon="5.43682">
        <ele>109.73</ele>
        <time>2017-09-18T07:16:11Z</time>
      </trkpt>
      <trkpt lat="43.23079" lon="5.43682">
        <ele>113.57</ele>
        <time>2017-09-18T07:16:15Z</time>
      </trkpt>
      <trkpt lat="43.2308" lon="5.4368">
        <ele>116.94</ele>
        <time>2017-09-18T07:16:20Z</time>
      </trkpt>
      <trkpt lat="43.2308" lon="5.43681">
        <ele>118.38</ele>
        <time>2017-09-18T07:16:22Z</time>
      </trkpt>
      <trkpt lat="43.23065" lon="5.43686">
        <ele>118.38</ele>
        <time>2017-09-18T07:17:41Z</time>
      </trkpt>
      <trkpt lat="43.23059" lon="5.43691">
        <ele>118.86</ele>
        <time>2017-09-18T07:17:47Z</time>
      </trkpt>
      <trkpt lat="43.2304" lon="5.437">
        <ele>118.86</ele>
        <time>2017-09-18T07:18:03Z</time>
      </trkpt>
      <trkpt lat="43.23038" lon="5.43702">
        <ele>122.22</ele>
        <time>2017-09-18T07:18:08Z</time>
      </trkpt>
      <trkpt lat="43.23035" lon="5.43701">
        <ele>118.86</ele>
        <time>2017-09-18T07:18:11Z</time>
      </trkpt>
      <trkpt lat="43.23034" lon="5.43701">
        <ele>122.22</ele>
        <time>2017-09-18T07:18:12Z</time>
      </trkpt>
      <trkpt lat="43.23018" lon="5.43703">
        <ele>122.22</ele>
        <time>2017-09-18T07:18:26Z</time>
      </trkpt>
      <trkpt lat="43.23013" lon="5.43705">
        <ele>123.67</ele>
        <time>2017-09-18T07:18:37Z</time>
      </trkpt>
      <trkpt lat="43.23002" lon="5.43707">
        <ele>123.19</ele>
        <time>2017-09-18T07:18:55Z</time>
      </trkpt>
      <trkpt lat="43.22992" lon="5.43709">
        <ele>124.63</ele>
        <time>2017-09-18T07:19:05Z</time>
      </trkpt>
      <trkpt lat="43.22977" lon="5.43711">
        <ele>125.11</ele>
        <time>2017-09-18T07:19:17Z</time>
      </trkpt>
      <trkpt lat="43.22968" lon="5.43712">
        <ele>126.07</ele>
        <time>2017-09-18T07:19:24Z</time>
      </trkpt>
      <trkpt lat="43.22962" lon="5.43713">
        <ele>127.03</ele>
        <time>2017-09-18T07:19:31Z</time>
      </trkpt>
      <trkpt lat="43.22958" lon="5.43709">
        <ele>126.55</ele>
        <time>2017-09-18T07:19:35Z</time>
      </trkpt>
      <trkpt lat="43.22946" lon="5.43705">
        <ele>127.51</ele>
        <time>2017-09-18T07:19:49Z</time>
      </trkpt>
      <trkpt lat="43.22943" lon="5.43703">
        <ele>128.47</ele>
        <time>2017-09-18T07:20:03Z</time>
      </trkpt>
      <trkpt lat="43.22943" lon="5.43703">
        <ele>128.47</ele>
        <time>2017-09-18T07:20:23Z</time>
      </trkpt>
      <trkpt lat="43.22943" lon="5.43703">
        <ele>133.28</ele>
        <time>2017-09-18T07:20:32Z</time>
      </trkpt>
      <trkpt lat="43.22943" lon="5.43703">
        <ele>129.43</ele>
        <time>2017-09-18T07:20:33Z</time>
      </trkpt>
      <trkpt lat="43.22943" lon="5.43703">
        <ele>128.47</ele>
        <time>2017-09-18T07:20:51Z</time>
      </trkpt>
      <trkpt lat="43.22943" lon="5.43703">
        <ele>128.95</ele>
        <time>2017-09-18T07:21:10Z</time>
      </trkpt>
      <trkpt lat="43.22943" lon="5.43703">
        <ele>128.95</ele>
        <time>2017-09-18T07:21:31Z</time>
      </trkpt>
      <trkpt lat="43.22943" lon="5.43702">
        <ele>130.4</ele>
        <time>2017-09-18T07:21:58Z</time>
      </trkpt>
      <trkpt lat="43.22934" lon="5.43707">
        <ele>129.43</ele>
        <time>2017-09-18T07:22:28Z</time>
      </trkpt>
      <trkpt lat="43.22922" lon="5.43709">
        <ele>132.8</ele>
        <time>2017-09-18T07:22:37Z</time>
      </trkpt>
      <trkpt lat="43.22921" lon="5.4371">
        <ele>120.3</ele>
        <time>2017-09-18T07:22:38Z</time>
      </trkpt>
      <trkpt lat="43.2292" lon="5.43711">
        <ele>142.89</ele>
        <time>2017-09-18T07:22:39Z</time>
      </trkpt>
      <trkpt lat="43.22919" lon="5.43711">
        <ele>131.84</ele>
        <time>2017-09-18T07:22:40Z</time>
      </trkpt>
      <trkpt lat="43.22917" lon="5.43712">
        <ele>130.88</ele>
        <time>2017-09-18T07:22:42Z</time>
      </trkpt>
      <trkpt lat="43.22911" lon="5.43711">
        <ele>131.36</ele>
        <time>2017-09-18T07:22:47Z</time>
      </trkpt>
      <trkpt lat="43.22896" lon="5.43712">
        <ele>132.32</ele>
        <time>2017-09-18T07:23:02Z</time>
      </trkpt>
      <trkpt lat="43.22882" lon="5.43709">
        <ele>133.76</ele>
        <time>2017-09-18T07:23:17Z</time>
      </trkpt>
      <trkpt lat="43.22886" lon="5.43708">
        <ele>133.76</ele>
        <time>2017-09-18T07:23:28Z</time>
      </trkpt>
      <trkpt lat="43.22896" lon="5.43709">
        <ele>132.8</ele>
        <time>2017-09-18T07:23:39Z</time>
      </trkpt>
      <trkpt lat="43.22902" lon="5.43709">
        <ele>132.8</ele>
        <time>2017-09-18T07:23:45Z</time>
      </trkpt>
      <trkpt lat="43.22904" lon="5.43712">
        <ele>132.8</ele>
        <time>2017-09-18T07:23:58Z</time>
      </trkpt>
      <trkpt lat="43.22895" lon="5.43711">
        <ele>133.28</ele>
        <time>2017-09-18T07:24:06Z</time>
      </trkpt>
      <trkpt lat="43.22879" lon="5.43708">
        <ele>134.24</ele>
        <time>2017-09-18T07:24:20Z</time>
      </trkpt>
      <trkpt lat="43.22866" lon="5.43708">
        <ele>135.2</ele>
        <time>2017-09-18T07:24:31Z</time>
      </trkpt>
      <trkpt lat="43.22848" lon="5.4371">
        <ele>136.16</ele>
        <time>2017-09-18T07:24:40Z</time>
      </trkpt>
      <trkpt lat="43.22828" lon="5.43709">
        <ele>138.09</ele>
        <time>2017-09-18T07:24:56Z</time>
      </trkpt>
      <trkpt lat="43.22826" lon="5.4371">
        <ele>138.09</ele>
        <time>2017-09-18T07:24:58Z</time>
      </trkpt>
      <trkpt lat="43.22807" lon="5.43712">
        <ele>139.05</ele>
        <time>2017-09-18T07:25:11Z</time>
      </trkpt>
      <trkpt lat="43.22791" lon="5.4371">
        <ele>140.01</ele>
        <time>2017-09-18T07:25:23Z</time>
      </trkpt>
      <trkpt lat="43.22781" lon="5.43708">
        <ele>140.49</ele>
        <time>2017-09-18T07:25:30Z</time>
      </trkpt>
      <trkpt lat="43.22764" lon="5.43707">
        <ele>141.45</ele>
        <time>2017-09-18T07:25:43Z</time>
      </trkpt>
      <trkpt lat="43.22759" lon="5.43708">
        <ele>141.93</ele>
        <time>2017-09-18T07:25:48Z</time>
      </trkpt>
      <trkpt lat="43.22756" lon="5.4371">
        <ele>141.93</ele>
        <time>2017-09-18T07:25:50Z</time>
      </trkpt>
      <trkpt lat="43.22746" lon="5.43713">
        <ele>142.89</ele>
        <time>2017-09-18T07:25:57Z</time>
      </trkpt>
      <trkpt lat="43.22734" lon="5.4372">
        <ele>143.37</ele>
        <time>2017-09-18T07:26:06Z</time>
      </trkpt>
      <trkpt lat="43.22722" lon="5.43722">
        <ele>143.85</ele>
        <time>2017-09-18T07:26:14Z</time>
      </trkpt>
      <trkpt lat="43.22713" lon="5.43725">
        <ele>144.82</ele>
        <time>2017-09-18T07:26:20Z</time>
      </trkpt>
      <trkpt lat="43.22698" lon="5.43735">
        <ele>145.3</ele>
        <time>2017-09-18T07:26:31Z</time>
      </trkpt>
      <trkpt lat="43.22688" lon="5.43744">
        <ele>145.78</ele>
        <time>2017-09-18T07:26:39Z</time>
      </trkpt>
      <trkpt lat="43.22686" lon="5.43745">
        <ele>145.78</ele>
        <time>2017-09-18T07:26:42Z</time>
      </trkpt>
      <trkpt lat="43.22676" lon="5.43754">
        <ele>146.74</ele>
        <time>2017-09-18T07:26:50Z</time>
      </trkpt>
      <trkpt lat="43.22667" lon="5.43764">
        <ele>147.22</ele>
        <time>2017-09-18T07:26:56Z</time>
      </trkpt>
      <trkpt lat="43.2265" lon="5.43778">
        <ele>147.7</ele>
        <time>2017-09-18T07:27:09Z</time>
      </trkpt>
      <trkpt lat="43.2265" lon="5.43779">
        <ele>147.7</ele>
        <time>2017-09-18T07:27:10Z</time>
      </trkpt>
      <trkpt lat="43.22648" lon="5.4378">
        <ele>148.18</ele>
        <time>2017-09-18T07:27:12Z</time>
      </trkpt>
      <trkpt lat="43.22641" lon="5.43785">
        <ele>148.18</ele>
        <time>2017-09-18T07:27:17Z</time>
      </trkpt>
      <trkpt lat="43.22626" lon="5.43792">
        <ele>148.66</ele>
        <time>2017-09-18T07:27:28Z</time>
      </trkpt>
      <trkpt lat="43.22611" lon="5.43801">
        <ele>148.66</ele>
        <time>2017-09-18T07:27:39Z</time>
      </trkpt>
      <trkpt lat="43.22604" lon="5.43806">
        <ele>148.66</ele>
        <time>2017-09-18T07:27:54Z</time>
      </trkpt>
      <trkpt lat="43.22604" lon="5.43806">
        <ele>148.66</ele>
        <time>2017-09-18T07:27:55Z</time>
      </trkpt>
      <trkpt lat="43.22594" lon="5.43806">
        <ele>148.66</ele>
        <time>2017-09-18T07:28:06Z</time>
      </trkpt>
      <trkpt lat="43.22585" lon="5.43805">
        <ele>148.18</ele>
        <time>2017-09-18T07:28:11Z</time>
      </trkpt>
      <trkpt lat="43.22561" lon="5.43806">
        <ele>148.18</ele>
        <time>2017-09-18T07:28:24Z</time>
      </trkpt>
      <trkpt lat="43.22554" lon="5.43807">
        <ele>148.18</ele>
        <time>2017-09-18T07:28:30Z</time>
      </trkpt>
      <trkpt lat="43.22547" lon="5.43807">
        <ele>148.18</ele>
        <time>2017-09-18T07:28:35Z</time>
      </trkpt>
      <trkpt lat="43.2254" lon="5.43806">
        <ele>148.18</ele>
        <time>2017-09-18T07:28:39Z</time>
      </trkpt>
      <trkpt lat="43.22532" lon="5.43809">
        <ele>148.18</ele>
        <time>2017-09-18T07:28:46Z</time>
      </trkpt>
      <trkpt lat="43.22509" lon="5.43808">
        <ele>148.18</ele>
        <time>2017-09-18T07:29:00Z</time>
      </trkpt>
      <trkpt lat="43.22488" lon="5.43807">
        <ele>148.18</ele>
        <time>2017-09-18T07:29:15Z</time>
      </trkpt>
      <trkpt lat="43.22469" lon="5.43808">
        <ele>148.66</ele>
        <time>2017-09-18T07:29:29Z</time>
      </trkpt>
      <trkpt lat="43.22461" lon="5.43809">
        <ele>148.18</ele>
        <time>2017-09-18T07:29:34Z</time>
      </trkpt>
      <trkpt lat="43.22452" lon="5.43813">
        <ele>148.18</ele>
        <time>2017-09-18T07:29:39Z</time>
      </trkpt>
      <trkpt lat="43.22442" lon="5.4382">
        <ele>147.7</ele>
        <time>2017-09-18T07:29:47Z</time>
      </trkpt>
      <trkpt lat="43.22425" lon="5.43835">
        <ele>148.18</ele>
        <time>2017-09-18T07:30:00Z</time>
      </trkpt>
      <trkpt lat="43.22412" lon="5.43843">
        <ele>148.18</ele>
        <time>2017-09-18T07:30:12Z</time>
      </trkpt>
      <trkpt lat="43.22411" lon="5.43844">
        <ele>148.18</ele>
        <time>2017-09-18T07:30:13Z</time>
      </trkpt>
      <trkpt lat="43.22402" lon="5.43849">
        <ele>148.66</ele>
        <time>2017-09-18T07:30:19Z</time>
      </trkpt>
      <trkpt lat="43.22397" lon="5.4385">
        <ele>148.66</ele>
        <time>2017-09-18T07:30:22Z</time>
      </trkpt>
      <trkpt lat="43.22381" lon="5.43859">
        <ele>149.62</ele>
        <time>2017-09-18T07:30:33Z</time>
      </trkpt>
      <trkpt lat="43.22379" lon="5.4386">
        <ele>149.62</ele>
        <time>2017-09-18T07:30:35Z</time>
      </trkpt>
      <trkpt lat="43.22363" lon="5.43874">
        <ele>150.1</ele>
        <time>2017-09-18T07:30:50Z</time>
      </trkpt>
      <trkpt lat="43.2235" lon="5.43889">
        <ele>150.58</ele>
        <time>2017-09-18T07:31:03Z</time>
      </trkpt>
      <trkpt lat="43.22336" lon="5.43904">
        <ele>151.54</ele>
        <time>2017-09-18T07:31:16Z</time>
      </trkpt>
      <trkpt lat="43.22322" lon="5.43923">
        <ele>152.51</ele>
        <time>2017-09-18T07:31:29Z</time>
      </trkpt>
      <trkpt lat="43.22322" lon="5.43924">
        <ele>152.51</ele>
        <time>2017-09-18T07:31:30Z</time>
      </trkpt>
      <trkpt lat="43.22315" lon="5.43931">
        <ele>152.99</ele>
        <time>2017-09-18T07:31:35Z</time>
      </trkpt>
      <trkpt lat="43.22304" lon="5.43944">
        <ele>153.95</ele>
        <time>2017-09-18T07:31:48Z</time>
      </trkpt>
      <trkpt lat="43.2229" lon="5.43956">
        <ele>154.43</ele>
        <time>2017-09-18T07:32:01Z</time>
      </trkpt>
      <trkpt lat="43.22276" lon="5.4397">
        <ele>154.91</ele>
        <time>2017-09-18T07:32:12Z</time>
      </trkpt>
      <trkpt lat="43.22263" lon="5.4398">
        <ele>155.87</ele>
        <time>2017-09-18T07:32:23Z</time>
      </trkpt>
      <trkpt lat="43.22251" lon="5.43985">
        <ele>156.83</ele>
        <time>2017-09-18T07:32:34Z</time>
      </trkpt>
      <trkpt lat="43.22249" lon="5.43986">
        <ele>156.83</ele>
        <time>2017-09-18T07:32:36Z</time>
      </trkpt>
      <trkpt lat="43.2224" lon="5.43987">
        <ele>157.31</ele>
        <time>2017-09-18T07:32:42Z</time>
      </trkpt>
      <trkpt lat="43.22235" lon="5.43989">
        <ele>157.79</ele>
        <time>2017-09-18T07:32:48Z</time>
      </trkpt>
      <trkpt lat="43.22228" lon="5.4399">
        <ele>157.79</ele>
        <time>2017-09-18T07:32:52Z</time>
      </trkpt>
      <trkpt lat="43.22219" lon="5.43994">
        <ele>158.27</ele>
        <time>2017-09-18T07:32:59Z</time>
      </trkpt>
      <trkpt lat="43.222" lon="5.44001">
        <ele>159.24</ele>
        <time>2017-09-18T07:33:14Z</time>
      </trkpt>
      <trkpt lat="43.22192" lon="5.44005">
        <ele>159.72</ele>
        <time>2017-09-18T07:33:21Z</time>
      </trkpt>
      <trkpt lat="43.22171" lon="5.44016">
        <ele>160.68</ele>
        <time>2017-09-18T07:33:34Z</time>
      </trkpt>
      <trkpt lat="43.22158" lon="5.44024">
        <ele>161.64</ele>
        <time>2017-09-18T07:33:45Z</time>
      </trkpt>
      <trkpt lat="43.22143" lon="5.44038">
        <ele>162.6</ele>
        <time>2017-09-18T07:33:58Z</time>
      </trkpt>
      <trkpt lat="43.22128" lon="5.44051">
        <ele>163.56</ele>
        <time>2017-09-18T07:34:11Z</time>
      </trkpt>
      <trkpt lat="43.22119" lon="5.4406">
        <ele>164.04</ele>
        <time>2017-09-18T07:34:20Z</time>
      </trkpt>
      <trkpt lat="43.22108" lon="5.44071">
        <ele>165</ele>
        <time>2017-09-18T07:34:30Z</time>
      </trkpt>
      <trkpt lat="43.22106" lon="5.44074">
        <ele>165</ele>
        <time>2017-09-18T07:34:32Z</time>
      </trkpt>
      <trkpt lat="43.22093" lon="5.44088">
        <ele>166.45</ele>
        <time>2017-09-18T07:34:46Z</time>
      </trkpt>
      <trkpt lat="43.22083" lon="5.44096">
        <ele>167.41</ele>
        <time>2017-09-18T07:34:55Z</time>
      </trkpt>
      <trkpt lat="43.2208" lon="5.441">
        <ele>167.41</ele>
        <time>2017-09-18T07:34:58Z</time>
      </trkpt>
      <trkpt lat="43.22076" lon="5.44107">
        <ele>167.89</ele>
        <time>2017-09-18T07:35:03Z</time>
      </trkpt>
      <trkpt lat="43.22066" lon="5.44125">
        <ele>168.85</ele>
        <time>2017-09-18T07:35:15Z</time>
      </trkpt>
      <trkpt lat="43.22059" lon="5.44148">
        <ele>169.81</ele>
        <time>2017-09-18T07:35:28Z</time>
      </trkpt>
      <trkpt lat="43.22053" lon="5.44171">
        <ele>170.77</ele>
        <time>2017-09-18T07:35:41Z</time>
      </trkpt>
      <trkpt lat="43.2205" lon="5.44192">
        <ele>171.73</ele>
        <time>2017-09-18T07:35:53Z</time>
      </trkpt>
      <trkpt lat="43.22049" lon="5.44194">
        <ele>172.21</ele>
        <time>2017-09-18T07:35:55Z</time>
      </trkpt>
      <trkpt lat="43.22045" lon="5.44204">
        <ele>172.69</ele>
        <time>2017-09-18T07:36:00Z</time>
      </trkpt>
      <trkpt lat="43.22042" lon="5.44212">
        <ele>173.17</ele>
        <time>2017-09-18T07:36:04Z</time>
      </trkpt>
      <trkpt lat="43.2204" lon="5.44218">
        <ele>173.17</ele>
        <time>2017-09-18T07:36:07Z</time>
      </trkpt>
      <trkpt lat="43.22034" lon="5.44232">
        <ele>173.66</ele>
        <time>2017-09-18T07:36:15Z</time>
      </trkpt>
      <trkpt lat="43.22034" lon="5.44236">
        <ele>173.66</ele>
        <time>2017-09-18T07:36:17Z</time>
      </trkpt>
      <trkpt lat="43.22027" lon="5.44261">
        <ele>175.1</ele>
        <time>2017-09-18T07:36:32Z</time>
      </trkpt>
      <trkpt lat="43.22027" lon="5.44262">
        <ele>175.1</ele>
        <time>2017-09-18T07:36:33Z</time>
      </trkpt>
      <trkpt lat="43.22021" lon="5.44272">
        <ele>175.58</ele>
        <time>2017-09-18T07:36:40Z</time>
      </trkpt>
      <trkpt lat="43.22018" lon="5.44275">
        <ele>176.06</ele>
        <time>2017-09-18T07:36:43Z</time>
      </trkpt>
      <trkpt lat="43.22007" lon="5.44295">
        <ele>177.5</ele>
        <time>2017-09-18T07:36:56Z</time>
      </trkpt>
      <trkpt lat="43.22006" lon="5.44297">
        <ele>177.5</ele>
        <time>2017-09-18T07:36:58Z</time>
      </trkpt>
      <trkpt lat="43.22" lon="5.44308">
        <ele>177.98</ele>
        <time>2017-09-18T07:37:06Z</time>
      </trkpt>
      <trkpt lat="43.21995" lon="5.44319">
        <ele>178.46</ele>
        <time>2017-09-18T07:37:13Z</time>
      </trkpt>
      <trkpt lat="43.21986" lon="5.44339">
        <ele>179.42</ele>
        <time>2017-09-18T07:37:26Z</time>
      </trkpt>
      <trkpt lat="43.21978" lon="5.44354">
        <ele>180.38</ele>
        <time>2017-09-18T07:37:37Z</time>
      </trkpt>
      <trkpt lat="43.21975" lon="5.44362">
        <ele>180.87</ele>
        <time>2017-09-18T07:37:42Z</time>
      </trkpt>
      <trkpt lat="43.21967" lon="5.4438">
        <ele>181.83</ele>
        <time>2017-09-18T07:37:55Z</time>
      </trkpt>
      <trkpt lat="43.21966" lon="5.44382">
        <ele>181.83</ele>
        <time>2017-09-18T07:37:57Z</time>
      </trkpt>
      <trkpt lat="43.21957" lon="5.44392">
        <ele>182.79</ele>
        <time>2017-09-18T07:38:07Z</time>
      </trkpt>
      <trkpt lat="43.21952" lon="5.44398">
        <ele>183.27</ele>
        <time>2017-09-18T07:38:12Z</time>
      </trkpt>
      <trkpt lat="43.21939" lon="5.44417">
        <ele>184.71</ele>
        <time>2017-09-18T07:38:26Z</time>
      </trkpt>
      <trkpt lat="43.21938" lon="5.44418">
        <ele>185.19</ele>
        <time>2017-09-18T07:38:28Z</time>
      </trkpt>
      <trkpt lat="43.21934" lon="5.44426">
        <ele>185.67</ele>
        <time>2017-09-18T07:38:35Z</time>
      </trkpt>
      <trkpt lat="43.21932" lon="5.4443">
        <ele>185.67</ele>
        <time>2017-09-18T07:38:37Z</time>
      </trkpt>
      <trkpt lat="43.2193" lon="5.44438">
        <ele>186.15</ele>
        <time>2017-09-18T07:38:41Z</time>
      </trkpt>
      <trkpt lat="43.21929" lon="5.44441">
        <ele>186.63</ele>
        <time>2017-09-18T07:38:43Z</time>
      </trkpt>
      <trkpt lat="43.21924" lon="5.44458">
        <ele>187.59</ele>
        <time>2017-09-18T07:38:54Z</time>
      </trkpt>
      <trkpt lat="43.21922" lon="5.44469">
        <ele>188.56</ele>
        <time>2017-09-18T07:39:00Z</time>
      </trkpt>
      <trkpt lat="43.2192" lon="5.44482">
        <ele>189.04</ele>
        <time>2017-09-18T07:39:08Z</time>
      </trkpt>
      <trkpt lat="43.21921" lon="5.44503">
        <ele>190.48</ele>
        <time>2017-09-18T07:39:21Z</time>
      </trkpt>
      <trkpt lat="43.21924" lon="5.44517">
        <ele>190.96</ele>
        <time>2017-09-18T07:39:30Z</time>
      </trkpt>
      <trkpt lat="43.21926" lon="5.4452">
        <ele>191.44</ele>
        <time>2017-09-18T07:39:33Z</time>
      </trkpt>
      <trkpt lat="43.21929" lon="5.44527">
        <ele>191.92</ele>
        <time>2017-09-18T07:39:37Z</time>
      </trkpt>
      <trkpt lat="43.21931" lon="5.44548">
        <ele>192.88</ele>
        <time>2017-09-18T07:39:50Z</time>
      </trkpt>
      <trkpt lat="43.21929" lon="5.44554">
        <ele>193.36</ele>
        <time>2017-09-18T07:39:54Z</time>
      </trkpt>
      <trkpt lat="43.21925" lon="5.44561">
        <ele>194.32</ele>
        <time>2017-09-18T07:39:59Z</time>
      </trkpt>
      <trkpt lat="43.2192" lon="5.44571">
        <ele>194.32</ele>
        <time>2017-09-18T07:40:07Z</time>
      </trkpt>
      <trkpt lat="43.21917" lon="5.44577">
        <ele>195.28</ele>
        <time>2017-09-18T07:40:11Z</time>
      </trkpt>
      <trkpt lat="43.21915" lon="5.44581">
        <ele>195.28</ele>
        <time>2017-09-18T07:40:14Z</time>
      </trkpt>
      <trkpt lat="43.21906" lon="5.44599">
        <ele>195.77</ele>
        <time>2017-09-18T07:40:26Z</time>
      </trkpt>
      <trkpt lat="43.21895" lon="5.44615">
        <ele>197.21</ele>
        <time>2017-09-18T07:40:41Z</time>
      </trkpt>
      <trkpt lat="43.21885" lon="5.44625">
        <ele>198.65</ele>
        <time>2017-09-18T07:40:55Z</time>
      </trkpt>
      <trkpt lat="43.21881" lon="5.44632">
        <ele>199.61</ele>
        <time>2017-09-18T07:41:09Z</time>
      </trkpt>
      <trkpt lat="43.2188" lon="5.44631">
        <ele>199.61</ele>
        <time>2017-09-18T07:41:27Z</time>
      </trkpt>
      <trkpt lat="43.21881" lon="5.44634">
        <ele>200.09</ele>
        <time>2017-09-18T07:41:50Z</time>
      </trkpt>
      <trkpt lat="43.21879" lon="5.44636">
        <ele>200.09</ele>
        <time>2017-09-18T07:42:08Z</time>
      </trkpt>
      <trkpt lat="43.21877" lon="5.44643">
        <ele>200.57</ele>
        <time>2017-09-18T07:42:12Z</time>
      </trkpt>
      <trkpt lat="43.21876" lon="5.44649">
        <ele>195.28</ele>
        <time>2017-09-18T07:42:17Z</time>
      </trkpt>
      <trkpt lat="43.21876" lon="5.4465">
        <ele>206.82</ele>
        <time>2017-09-18T07:42:18Z</time>
      </trkpt>
      <trkpt lat="43.21876" lon="5.44654">
        <ele>204.9</ele>
        <time>2017-09-18T07:42:21Z</time>
      </trkpt>
      <trkpt lat="43.21876" lon="5.44655">
        <ele>194.32</ele>
        <time>2017-09-18T07:42:22Z</time>
      </trkpt>
      <trkpt lat="43.21876" lon="5.44657">
        <ele>206.82</ele>
        <time>2017-09-18T07:42:23Z</time>
      </trkpt>
      <trkpt lat="43.21876" lon="5.44658">
        <ele>201.05</ele>
        <time>2017-09-18T07:42:24Z</time>
      </trkpt>
      <trkpt lat="43.21877" lon="5.4466">
        <ele>195.77</ele>
        <time>2017-09-18T07:42:25Z</time>
      </trkpt>
      <trkpt lat="43.21877" lon="5.44661">
        <ele>201.05</ele>
        <time>2017-09-18T07:42:26Z</time>
      </trkpt>
      <trkpt lat="43.21879" lon="5.44668">
        <ele>201.05</ele>
        <time>2017-09-18T07:42:30Z</time>
      </trkpt>
      <trkpt lat="43.2188" lon="5.44671">
        <ele>201.53</ele>
        <time>2017-09-18T07:42:32Z</time>
      </trkpt>
      <trkpt lat="43.21879" lon="5.44677">
        <ele>202.01</ele>
        <time>2017-09-18T07:42:35Z</time>
      </trkpt>
      <trkpt lat="43.21873" lon="5.44698">
        <ele>205.38</ele>
        <time>2017-09-18T07:42:49Z</time>
      </trkpt>
      <trkpt lat="43.21872" lon="5.44699">
        <ele>204.42</ele>
        <time>2017-09-18T07:42:50Z</time>
      </trkpt>
      <trkpt lat="43.21872" lon="5.44701">
        <ele>194.8</ele>
        <time>2017-09-18T07:42:51Z</time>
      </trkpt>
      <trkpt lat="43.21871" lon="5.44702">
        <ele>214.03</ele>
        <time>2017-09-18T07:42:52Z</time>
      </trkpt>
      <trkpt lat="43.2187" lon="5.44703">
        <ele>202.49</ele>
        <time>2017-09-18T07:42:53Z</time>
      </trkpt>
      <trkpt lat="43.21869" lon="5.44705">
        <ele>196.73</ele>
        <time>2017-09-18T07:42:55Z</time>
      </trkpt>
      <trkpt lat="43.21867" lon="5.44707">
        <ele>209.7</ele>
        <time>2017-09-18T07:42:57Z</time>
      </trkpt>
      <trkpt lat="43.21866" lon="5.44708">
        <ele>201.53</ele>
        <time>2017-09-18T07:42:58Z</time>
      </trkpt>
      <trkpt lat="43.21865" lon="5.44708">
        <ele>198.17</ele>
        <time>2017-09-18T07:42:59Z</time>
      </trkpt>
      <trkpt lat="43.21863" lon="5.4471">
        <ele>204.42</ele>
        <time>2017-09-18T07:43:01Z</time>
      </trkpt>
      <trkpt lat="43.21862" lon="5.44711">
        <ele>201.05</ele>
        <time>2017-09-18T07:43:05Z</time>
      </trkpt>
      <trkpt lat="43.21862" lon="5.44711">
        <ele>202.01</ele>
        <time>2017-09-18T07:43:06Z</time>
      </trkpt>
      <trkpt lat="43.21862" lon="5.44711">
        <ele>206.34</ele>
        <time>2017-09-18T07:43:07Z</time>
      </trkpt>
      <trkpt lat="43.21862" lon="5.44711">
        <ele>211.63</ele>
        <time>2017-09-18T07:43:08Z</time>
      </trkpt>
      <trkpt lat="43.21862" lon="5.44711">
        <ele>201.05</ele>
        <time>2017-09-18T07:43:09Z</time>
      </trkpt>
      <trkpt lat="43.21861" lon="5.44712">
        <ele>210.67</ele>
        <time>2017-09-18T07:43:10Z</time>
      </trkpt>
      <trkpt lat="43.21861" lon="5.44713">
        <ele>206.82</ele>
        <time>2017-09-18T07:43:11Z</time>
      </trkpt>
      <trkpt lat="43.2186" lon="5.44714">
        <ele>203.46</ele>
        <time>2017-09-18T07:43:12Z</time>
      </trkpt>
      <trkpt lat="43.2186" lon="5.44714">
        <ele>203.94</ele>
        <time>2017-09-18T07:43:13Z</time>
      </trkpt>
      <trkpt lat="43.21855" lon="5.44711">
        <ele>204.42</ele>
        <time>2017-09-18T07:43:18Z</time>
      </trkpt>
      <trkpt lat="43.21851" lon="5.44713">
        <ele>204.42</ele>
        <time>2017-09-18T07:43:23Z</time>
      </trkpt>
      <trkpt lat="43.2185" lon="5.4472">
        <ele>205.38</ele>
        <time>2017-09-18T07:43:27Z</time>
      </trkpt>
      <trkpt lat="43.21849" lon="5.44723">
        <ele>205.86</ele>
        <time>2017-09-18T07:43:29Z</time>
      </trkpt>
      <trkpt lat="43.21848" lon="5.44732">
        <ele>205.86</ele>
        <time>2017-09-18T07:43:41Z</time>
      </trkpt>
      <trkpt lat="43.21848" lon="5.44732">
        <ele>202.49</ele>
        <time>2017-09-18T07:43:46Z</time>
      </trkpt>
      <trkpt lat="43.21848" lon="5.44732">
        <ele>210.67</ele>
        <time>2017-09-18T07:43:47Z</time>
      </trkpt>
      <trkpt lat="43.21848" lon="5.44732">
        <ele>206.82</ele>
        <time>2017-09-18T07:43:48Z</time>
      </trkpt>
      <trkpt lat="43.21848" lon="5.44732">
        <ele>203.46</ele>
        <time>2017-09-18T07:43:49Z</time>
      </trkpt>
      <trkpt lat="43.21848" lon="5.44732">
        <ele>203.46</ele>
        <time>2017-09-18T07:43:50Z</time>
      </trkpt>
      <trkpt lat="43.21848" lon="5.44732">
        <ele>211.63</ele>
        <time>2017-09-18T07:43:51Z</time>
      </trkpt>
      <trkpt lat="43.21848" lon="5.44732">
        <ele>200.09</ele>
        <time>2017-09-18T07:43:52Z</time>
      </trkpt>
      <trkpt lat="43.21848" lon="5.44732">
        <ele>212.11</ele>
        <time>2017-09-18T07:43:53Z</time>
      </trkpt>
      <trkpt lat="43.21848" lon="5.44732">
        <ele>205.38</ele>
        <time>2017-09-18T07:43:54Z</time>
      </trkpt>
      <trkpt lat="43.21848" lon="5.44732">
        <ele>200.09</ele>
        <time>2017-09-18T07:43:58Z</time>
      </trkpt>
      <trkpt lat="43.21848" lon="5.44732">
        <ele>211.15</ele>
        <time>2017-09-18T07:43:59Z</time>
      </trkpt>
      <trkpt lat="43.21848" lon="5.44732">
        <ele>208.74</ele>
        <time>2017-09-18T07:44:00Z</time>
      </trkpt>
      <trkpt lat="43.21848" lon="5.44732">
        <ele>204.9</ele>
        <time>2017-09-18T07:44:01Z</time>
      </trkpt>
      <trkpt lat="43.21849" lon="5.44732">
        <ele>207.78</ele>
        <time>2017-09-18T07:44:02Z</time>
      </trkpt>
      <trkpt lat="43.21852" lon="5.44733">
        <ele>206.34</ele>
        <time>2017-09-18T07:44:05Z</time>
      </trkpt>
      <trkpt lat="43.21857" lon="5.44734">
        <ele>206.34</ele>
        <time>2017-09-18T07:44:12Z</time>
      </trkpt>
      <trkpt lat="43.21867" lon="5.44743">
        <ele>206.34</ele>
        <time>2017-09-18T07:45:06Z</time>
      </trkpt>
      <trkpt lat="43.21869" lon="5.44743">
        <ele>207.3</ele>
        <time>2017-09-18T07:45:08Z</time>
      </trkpt>
      <trkpt lat="43.21875" lon="5.44729">
        <ele>205.86</ele>
        <time>2017-09-18T07:45:16Z</time>
      </trkpt>
      <trkpt lat="43.21891" lon="5.44738">
        <ele>203.94</ele>
        <time>2017-09-18T07:45:30Z</time>
      </trkpt>
      <trkpt lat="43.2189" lon="5.4475">
        <ele>203.46</ele>
        <time>2017-09-18T07:45:38Z</time>
      </trkpt>
      <trkpt lat="43.21883" lon="5.44765">
        <ele>203.94</ele>
        <time>2017-09-18T07:45:46Z</time>
      </trkpt>
      <trkpt lat="43.21876" lon="5.44781">
        <ele>202.98</ele>
        <time>2017-09-18T07:45:57Z</time>
      </trkpt>
      <trkpt lat="43.21877" lon="5.44799">
        <ele>201.05</ele>
        <time>2017-09-18T07:46:08Z</time>
      </trkpt>
      <trkpt lat="43.21878" lon="5.44807">
        <ele>202.01</ele>
        <time>2017-09-18T07:46:12Z</time>
      </trkpt>
      <trkpt lat="43.2188" lon="5.44819">
        <ele>202.01</ele>
        <time>2017-09-18T07:46:17Z</time>
      </trkpt>
      <trkpt lat="43.21879" lon="5.44827">
        <ele>201.05</ele>
        <time>2017-09-18T07:46:23Z</time>
      </trkpt>
      <trkpt lat="43.21872" lon="5.44847">
        <ele>200.57</ele>
        <time>2017-09-18T07:46:33Z</time>
      </trkpt>
      <trkpt lat="43.21869" lon="5.4485">
        <ele>200.57</ele>
        <time>2017-09-18T07:46:35Z</time>
      </trkpt>
      <trkpt lat="43.21856" lon="5.44854">
        <ele>200.09</ele>
        <time>2017-09-18T07:46:46Z</time>
      </trkpt>
      <trkpt lat="43.21838" lon="5.44852">
        <ele>199.61</ele>
        <time>2017-09-18T07:46:58Z</time>
      </trkpt>
      <trkpt lat="43.21837" lon="5.44852">
        <ele>199.61</ele>
        <time>2017-09-18T07:46:59Z</time>
      </trkpt>
      <trkpt lat="43.21822" lon="5.44852">
        <ele>199.13</ele>
        <time>2017-09-18T07:47:09Z</time>
      </trkpt>
      <trkpt lat="43.21809" lon="5.44865">
        <ele>198.65</ele>
        <time>2017-09-18T07:47:21Z</time>
      </trkpt>
      <trkpt lat="43.21807" lon="5.44887">
        <ele>198.65</ele>
        <time>2017-09-18T07:47:32Z</time>
      </trkpt>
      <trkpt lat="43.21807" lon="5.44892">
        <ele>198.65</ele>
        <time>2017-09-18T07:47:36Z</time>
      </trkpt>
      <trkpt lat="43.21806" lon="5.44895">
        <ele>198.65</ele>
        <time>2017-09-18T07:47:38Z</time>
      </trkpt>
      <trkpt lat="43.21798" lon="5.44912">
        <ele>198.65</ele>
        <time>2017-09-18T07:47:49Z</time>
      </trkpt>
      <trkpt lat="43.21797" lon="5.44913">
        <ele>198.65</ele>
        <time>2017-09-18T07:47:50Z</time>
      </trkpt>
      <trkpt lat="43.21778" lon="5.44909">
        <ele>198.17</ele>
        <time>2017-09-18T07:48:03Z</time>
      </trkpt>
      <trkpt lat="43.21776" lon="5.4491">
        <ele>198.17</ele>
        <time>2017-09-18T07:48:06Z</time>
      </trkpt>
      <trkpt lat="43.21772" lon="5.44909">
        <ele>198.17</ele>
        <time>2017-09-18T07:48:09Z</time>
      </trkpt>
      <trkpt lat="43.21766" lon="5.44909">
        <ele>197.69</ele>
        <time>2017-09-18T07:48:13Z</time>
      </trkpt>
      <trkpt lat="43.21748" lon="5.44912">
        <ele>198.17</ele>
        <time>2017-09-18T07:48:26Z</time>
      </trkpt>
      <trkpt lat="43.21741" lon="5.44918">
        <ele>197.69</ele>
        <time>2017-09-18T07:48:31Z</time>
      </trkpt>
      <trkpt lat="43.21738" lon="5.4492">
        <ele>197.69</ele>
        <time>2017-09-18T07:48:35Z</time>
      </trkpt>
      <trkpt lat="43.21728" lon="5.44932">
        <ele>198.17</ele>
        <time>2017-09-18T07:48:44Z</time>
      </trkpt>
      <trkpt lat="43.21709" lon="5.44943">
        <ele>195.77</ele>
        <time>2017-09-18T07:48:59Z</time>
      </trkpt>
      <trkpt lat="43.21708" lon="5.44944">
        <ele>196.25</ele>
        <time>2017-09-18T07:49:00Z</time>
      </trkpt>
      <trkpt lat="43.21707" lon="5.44946">
        <ele>200.09</ele>
        <time>2017-09-18T07:49:01Z</time>
      </trkpt>
      <trkpt lat="43.21706" lon="5.44947">
        <ele>198.65</ele>
        <time>2017-09-18T07:49:02Z</time>
      </trkpt>
      <trkpt lat="43.21702" lon="5.4495">
        <ele>193.84</ele>
        <time>2017-09-18T07:49:06Z</time>
      </trkpt>
      <trkpt lat="43.21701" lon="5.44951">
        <ele>199.13</ele>
        <time>2017-09-18T07:49:07Z</time>
      </trkpt>
      <trkpt lat="43.21699" lon="5.44953">
        <ele>202.98</ele>
        <time>2017-09-18T07:49:09Z</time>
      </trkpt>
      <trkpt lat="43.21698" lon="5.44954">
        <ele>198.17</ele>
        <time>2017-09-18T07:49:10Z</time>
      </trkpt>
      <trkpt lat="43.21693" lon="5.44962">
        <ele>190.48</ele>
        <time>2017-09-18T07:49:16Z</time>
      </trkpt>
      <trkpt lat="43.21692" lon="5.44964">
        <ele>206.34</ele>
        <time>2017-09-18T07:49:17Z</time>
      </trkpt>
      <trkpt lat="43.21691" lon="5.44965">
        <ele>199.13</ele>
        <time>2017-09-18T07:49:18Z</time>
      </trkpt>
      <trkpt lat="43.21691" lon="5.44966">
        <ele>190.96</ele>
        <time>2017-09-18T07:49:19Z</time>
      </trkpt>
      <trkpt lat="43.2169" lon="5.44968">
        <ele>205.86</ele>
        <time>2017-09-18T07:49:20Z</time>
      </trkpt>
      <trkpt lat="43.21689" lon="5.44969">
        <ele>190.96</ele>
        <time>2017-09-18T07:49:21Z</time>
      </trkpt>
      <trkpt lat="43.21688" lon="5.44971">
        <ele>205.38</ele>
        <time>2017-09-18T07:49:22Z</time>
      </trkpt>
      <trkpt lat="43.21688" lon="5.44972">
        <ele>199.13</ele>
        <time>2017-09-18T07:49:23Z</time>
      </trkpt>
      <trkpt lat="43.21687" lon="5.44976">
        <ele>192.4</ele>
        <time>2017-09-18T07:49:25Z</time>
      </trkpt>
      <trkpt lat="43.21686" lon="5.44977">
        <ele>204.9</ele>
        <time>2017-09-18T07:49:26Z</time>
      </trkpt>
      <trkpt lat="43.21686" lon="5.44979">
        <ele>199.13</ele>
        <time>2017-09-18T07:49:27Z</time>
      </trkpt>
      <trkpt lat="43.21685" lon="5.44982">
        <ele>194.32</ele>
        <time>2017-09-18T07:49:29Z</time>
      </trkpt>
      <trkpt lat="43.21684" lon="5.44984">
        <ele>202.01</ele>
        <time>2017-09-18T07:49:30Z</time>
      </trkpt>
      <trkpt lat="43.21684" lon="5.44986">
        <ele>198.65</ele>
        <time>2017-09-18T07:49:31Z</time>
      </trkpt>
      <trkpt lat="43.21677" lon="5.45005">
        <ele>197.21</ele>
        <time>2017-09-18T07:49:42Z</time>
      </trkpt>
      <trkpt lat="43.21676" lon="5.45009">
        <ele>197.21</ele>
        <time>2017-09-18T07:49:45Z</time>
      </trkpt>
      <trkpt lat="43.21679" lon="5.45034">
        <ele>197.21</ele>
        <time>2017-09-18T07:49:58Z</time>
      </trkpt>
      <trkpt lat="43.2168" lon="5.45036">
        <ele>196.73</ele>
        <time>2017-09-18T07:49:59Z</time>
      </trkpt>
      <trkpt lat="43.21695" lon="5.4505">
        <ele>196.73</ele>
        <time>2017-09-18T07:50:12Z</time>
      </trkpt>
      <trkpt lat="43.21702" lon="5.45066">
        <ele>196.73</ele>
        <time>2017-09-18T07:50:23Z</time>
      </trkpt>
      <trkpt lat="43.21711" lon="5.45085">
        <ele>197.21</ele>
        <time>2017-09-18T07:50:35Z</time>
      </trkpt>
      <trkpt lat="43.21715" lon="5.45098">
        <ele>197.69</ele>
        <time>2017-09-18T07:50:42Z</time>
      </trkpt>
      <trkpt lat="43.21718" lon="5.45104">
        <ele>197.69</ele>
        <time>2017-09-18T07:50:46Z</time>
      </trkpt>
      <trkpt lat="43.21719" lon="5.45122">
        <ele>198.17</ele>
        <time>2017-09-18T07:50:55Z</time>
      </trkpt>
      <trkpt lat="43.21719" lon="5.45139">
        <ele>199.13</ele>
        <time>2017-09-18T07:51:04Z</time>
      </trkpt>
      <trkpt lat="43.21718" lon="5.45142">
        <ele>199.13</ele>
        <time>2017-09-18T07:51:06Z</time>
      </trkpt>
      <trkpt lat="43.21719" lon="5.4515">
        <ele>199.13</ele>
        <time>2017-09-18T07:51:10Z</time>
      </trkpt>
      <trkpt lat="43.21721" lon="5.45173">
        <ele>200.57</ele>
        <time>2017-09-18T07:51:22Z</time>
      </trkpt>
      <trkpt lat="43.21722" lon="5.452">
        <ele>200.57</ele>
        <time>2017-09-18T07:51:35Z</time>
      </trkpt>
      <trkpt lat="43.21724" lon="5.45231">
        <ele>201.53</ele>
        <time>2017-09-18T07:51:51Z</time>
      </trkpt>
      <trkpt lat="43.21723" lon="5.45238">
        <ele>201.53</ele>
        <time>2017-09-18T07:51:56Z</time>
      </trkpt>
      <trkpt lat="43.21726" lon="5.45245">
        <ele>202.01</ele>
        <time>2017-09-18T07:52:00Z</time>
      </trkpt>
      <trkpt lat="43.21733" lon="5.45267">
        <ele>202.49</ele>
        <time>2017-09-18T07:52:13Z</time>
      </trkpt>
      <trkpt lat="43.21734" lon="5.45268">
        <ele>202.49</ele>
        <time>2017-09-18T07:52:14Z</time>
      </trkpt>
      <trkpt lat="43.21729" lon="5.45295">
        <ele>202.98</ele>
        <time>2017-09-18T07:52:26Z</time>
      </trkpt>
      <trkpt lat="43.21724" lon="5.45298">
        <ele>203.46</ele>
        <time>2017-09-18T07:52:30Z</time>
      </trkpt>
      <trkpt lat="43.2172" lon="5.45296">
        <ele>203.94</ele>
        <time>2017-09-18T07:52:34Z</time>
      </trkpt>
      <trkpt lat="43.21715" lon="5.45296">
        <ele>203.94</ele>
        <time>2017-09-18T07:52:38Z</time>
      </trkpt>
      <trkpt lat="43.21701" lon="5.45291">
        <ele>204.9</ele>
        <time>2017-09-18T07:52:49Z</time>
      </trkpt>
      <trkpt lat="43.21699" lon="5.45289">
        <ele>204.9</ele>
        <time>2017-09-18T07:52:51Z</time>
      </trkpt>
      <trkpt lat="43.21694" lon="5.45287">
        <ele>204.9</ele>
        <time>2017-09-18T07:52:55Z</time>
      </trkpt>
      <trkpt lat="43.21691" lon="5.45284">
        <ele>204.9</ele>
        <time>2017-09-18T07:52:57Z</time>
      </trkpt>
      <trkpt lat="43.21686" lon="5.45281">
        <ele>204.42</ele>
        <time>2017-09-18T07:53:01Z</time>
      </trkpt>
      <trkpt lat="43.21677" lon="5.45274">
        <ele>204.9</ele>
        <time>2017-09-18T07:53:08Z</time>
      </trkpt>
      <trkpt lat="43.21675" lon="5.45271">
        <ele>205.38</ele>
        <time>2017-09-18T07:53:11Z</time>
      </trkpt>
      <trkpt lat="43.21671" lon="5.45268">
        <ele>205.38</ele>
        <time>2017-09-18T07:53:15Z</time>
      </trkpt>
      <trkpt lat="43.21666" lon="5.45263">
        <ele>205.86</ele>
        <time>2017-09-18T07:53:20Z</time>
      </trkpt>
      <trkpt lat="43.2166" lon="5.45258">
        <ele>205.86</ele>
        <time>2017-09-18T07:53:25Z</time>
      </trkpt>
      <trkpt lat="43.21654" lon="5.45251">
        <ele>206.34</ele>
        <time>2017-09-18T07:53:31Z</time>
      </trkpt>
      <trkpt lat="43.21644" lon="5.45241">
        <ele>206.82</ele>
        <time>2017-09-18T07:53:41Z</time>
      </trkpt>
      <trkpt lat="43.21639" lon="5.45238">
        <ele>207.3</ele>
        <time>2017-09-18T07:53:45Z</time>
      </trkpt>
      <trkpt lat="43.21633" lon="5.45234">
        <ele>207.3</ele>
        <time>2017-09-18T07:53:51Z</time>
      </trkpt>
      <trkpt lat="43.21631" lon="5.45233">
        <ele>207.3</ele>
        <time>2017-09-18T07:53:53Z</time>
      </trkpt>
      <trkpt lat="43.21623" lon="5.45228">
        <ele>207.3</ele>
        <time>2017-09-18T07:53:58Z</time>
      </trkpt>
      <trkpt lat="43.21616" lon="5.45222">
        <ele>207.3</ele>
        <time>2017-09-18T07:54:05Z</time>
      </trkpt>
      <trkpt lat="43.21608" lon="5.45207">
        <ele>207.78</ele>
        <time>2017-09-18T07:54:11Z</time>
      </trkpt>
      <trkpt lat="43.21598" lon="5.452">
        <ele>208.26</ele>
        <time>2017-09-18T07:54:17Z</time>
      </trkpt>
      <trkpt lat="43.21593" lon="5.45198">
        <ele>207.3</ele>
        <time>2017-09-18T07:54:22Z</time>
      </trkpt>
      <trkpt lat="43.21576" lon="5.45196">
        <ele>206.82</ele>
        <time>2017-09-18T07:54:34Z</time>
      </trkpt>
      <trkpt lat="43.21572" lon="5.45196">
        <ele>206.82</ele>
        <time>2017-09-18T07:54:38Z</time>
      </trkpt>
      <trkpt lat="43.21561" lon="5.45193">
        <ele>206.34</ele>
        <time>2017-09-18T07:54:46Z</time>
      </trkpt>
      <trkpt lat="43.21557" lon="5.45194">
        <ele>205.86</ele>
        <time>2017-09-18T07:54:51Z</time>
      </trkpt>
      <trkpt lat="43.21539" lon="5.45196">
        <ele>204.9</ele>
        <time>2017-09-18T07:55:03Z</time>
      </trkpt>
      <trkpt lat="43.21524" lon="5.45192">
        <ele>204.42</ele>
        <time>2017-09-18T07:55:14Z</time>
      </trkpt>
      <trkpt lat="43.21505" lon="5.45191">
        <ele>204.42</ele>
        <time>2017-09-18T07:55:27Z</time>
      </trkpt>
      <trkpt lat="43.21488" lon="5.45197">
        <ele>203.94</ele>
        <time>2017-09-18T07:55:39Z</time>
      </trkpt>
      <trkpt lat="43.21487" lon="5.45198">
        <ele>203.94</ele>
        <time>2017-09-18T07:55:41Z</time>
      </trkpt>
      <trkpt lat="43.21475" lon="5.45212">
        <ele>203.46</ele>
        <time>2017-09-18T07:55:51Z</time>
      </trkpt>
      <trkpt lat="43.21471" lon="5.45215">
        <ele>202.01</ele>
        <time>2017-09-18T07:56:05Z</time>
      </trkpt>
      <trkpt lat="43.21471" lon="5.45215">
        <ele>202.49</ele>
        <time>2017-09-18T07:56:11Z</time>
      </trkpt>
      <trkpt lat="43.2146" lon="5.45223">
        <ele>201.53</ele>
        <time>2017-09-18T07:56:21Z</time>
      </trkpt>
      <trkpt lat="43.21459" lon="5.45229">
        <ele>201.53</ele>
        <time>2017-09-18T07:56:24Z</time>
      </trkpt>
      <trkpt lat="43.21456" lon="5.45235">
        <ele>201.05</ele>
        <time>2017-09-18T07:56:28Z</time>
      </trkpt>
      <trkpt lat="43.21454" lon="5.45234">
        <ele>200.57</ele>
        <time>2017-09-18T07:56:30Z</time>
      </trkpt>
      <trkpt lat="43.21449" lon="5.45232">
        <ele>200.09</ele>
        <time>2017-09-18T07:56:35Z</time>
      </trkpt>
      <trkpt lat="43.2144" lon="5.45246">
        <ele>199.13</ele>
        <time>2017-09-18T07:56:45Z</time>
      </trkpt>
      <trkpt lat="43.21437" lon="5.45249">
        <ele>198.65</ele>
        <time>2017-09-18T07:56:48Z</time>
      </trkpt>
      <trkpt lat="43.21433" lon="5.45253">
        <ele>198.17</ele>
        <time>2017-09-18T07:57:00Z</time>
      </trkpt>
      <trkpt lat="43.21433" lon="5.45253">
        <ele>198.17</ele>
        <time>2017-09-18T07:57:31Z</time>
      </trkpt>
      <trkpt lat="43.21433" lon="5.45254">
        <ele>198.17</ele>
        <time>2017-09-18T07:57:50Z</time>
      </trkpt>
      <trkpt lat="43.21433" lon="5.45254">
        <ele>198.17</ele>
        <time>2017-09-18T07:57:57Z</time>
      </trkpt>
      <trkpt lat="43.21433" lon="5.45251">
        <ele>199.13</ele>
        <time>2017-09-18T07:58:10Z</time>
      </trkpt>
      <trkpt lat="43.21433" lon="5.45251">
        <ele>199.13</ele>
        <time>2017-09-18T07:58:37Z</time>
      </trkpt>
      <trkpt lat="43.21433" lon="5.4525">
        <ele>199.13</ele>
        <time>2017-09-18T07:58:53Z</time>
      </trkpt>
      <trkpt lat="43.21433" lon="5.45251">
        <ele>199.13</ele>
        <time>2017-09-18T07:59:08Z</time>
      </trkpt>
      <trkpt lat="43.21433" lon="5.45251">
        <ele>199.61</ele>
        <time>2017-09-18T07:59:21Z</time>
      </trkpt>
      <trkpt lat="43.21433" lon="5.45251">
        <ele>200.09</ele>
        <time>2017-09-18T07:59:22Z</time>
      </trkpt>
      <trkpt lat="43.21435" lon="5.45253">
        <ele>199.61</ele>
        <time>2017-09-18T07:59:28Z</time>
      </trkpt>
      <trkpt lat="43.21437" lon="5.45265">
        <ele>197.69</ele>
        <time>2017-09-18T07:59:39Z</time>
      </trkpt>
      <trkpt lat="43.21437" lon="5.45265">
        <ele>197.69</ele>
        <time>2017-09-18T07:59:42Z</time>
      </trkpt>
      <trkpt lat="43.21437" lon="5.45262">
        <ele>198.65</ele>
        <time>2017-09-18T07:59:57Z</time>
      </trkpt>
      <trkpt lat="43.21437" lon="5.45262">
        <ele>198.17</ele>
        <time>2017-09-18T08:00:04Z</time>
      </trkpt>
      <trkpt lat="43.21435" lon="5.45265">
        <ele>198.65</ele>
        <time>2017-09-18T08:00:07Z</time>
      </trkpt>
      <trkpt lat="43.21435" lon="5.45275">
        <ele>196.73</ele>
        <time>2017-09-18T08:00:14Z</time>
      </trkpt>
      <trkpt lat="43.21432" lon="5.45282">
        <ele>194.8</ele>
        <time>2017-09-18T08:00:20Z</time>
      </trkpt>
      <trkpt lat="43.21431" lon="5.45291">
        <ele>193.36</ele>
        <time>2017-09-18T08:00:27Z</time>
      </trkpt>
      <trkpt lat="43.21426" lon="5.45313">
        <ele>190.48</ele>
        <time>2017-09-18T08:00:39Z</time>
      </trkpt>
      <trkpt lat="43.21426" lon="5.45315">
        <ele>190.48</ele>
        <time>2017-09-18T08:00:40Z</time>
      </trkpt>
      <trkpt lat="43.21423" lon="5.45324">
        <ele>189.52</ele>
        <time>2017-09-18T08:00:44Z</time>
      </trkpt>
      <trkpt lat="43.21422" lon="5.45328">
        <ele>189.52</ele>
        <time>2017-09-18T08:00:49Z</time>
      </trkpt>
      <trkpt lat="43.21423" lon="5.45331">
        <ele>189.04</ele>
        <time>2017-09-18T08:00:51Z</time>
      </trkpt>
      <trkpt lat="43.21426" lon="5.4535">
        <ele>187.11</ele>
        <time>2017-09-18T08:01:01Z</time>
      </trkpt>
      <trkpt lat="43.21428" lon="5.45366">
        <ele>185.19</ele>
        <time>2017-09-18T08:01:12Z</time>
      </trkpt>
      <trkpt lat="43.21429" lon="5.45392">
        <ele>182.79</ele>
        <time>2017-09-18T08:01:26Z</time>
      </trkpt>
      <trkpt lat="43.21427" lon="5.45397">
        <ele>181.83</ele>
        <time>2017-09-18T08:01:30Z</time>
      </trkpt>
      <trkpt lat="43.21426" lon="5.454">
        <ele>181.35</ele>
        <time>2017-09-18T08:01:32Z</time>
      </trkpt>
      <trkpt lat="43.21426" lon="5.4541">
        <ele>180.38</ele>
        <time>2017-09-18T08:01:39Z</time>
      </trkpt>
      <trkpt lat="43.21426" lon="5.45411">
        <ele>180.38</ele>
        <time>2017-09-18T08:01:50Z</time>
      </trkpt>
      <trkpt lat="43.21426" lon="5.45411">
        <ele>179.9</ele>
        <time>2017-09-18T08:01:51Z</time>
      </trkpt>
      <trkpt lat="43.21427" lon="5.45413">
        <ele>180.38</ele>
        <time>2017-09-18T08:01:53Z</time>
      </trkpt>
      <trkpt lat="43.21428" lon="5.45416">
        <ele>180.38</ele>
        <time>2017-09-18T08:01:56Z</time>
      </trkpt>
      <trkpt lat="43.21428" lon="5.45421">
        <ele>179.42</ele>
        <time>2017-09-18T08:01:59Z</time>
      </trkpt>
      <trkpt lat="43.21424" lon="5.45427">
        <ele>178.94</ele>
        <time>2017-09-18T08:02:11Z</time>
      </trkpt>
      <trkpt lat="43.21424" lon="5.45427">
        <ele>178.94</ele>
        <time>2017-09-18T08:02:13Z</time>
      </trkpt>
      <trkpt lat="43.21423" lon="5.45431">
        <ele>178.94</ele>
        <time>2017-09-18T08:02:15Z</time>
      </trkpt>
      <trkpt lat="43.21424" lon="5.45442">
        <ele>177.98</ele>
        <time>2017-09-18T08:02:23Z</time>
      </trkpt>
      <trkpt lat="43.21426" lon="5.45455">
        <ele>176.54</ele>
        <time>2017-09-18T08:02:33Z</time>
      </trkpt>
      <trkpt lat="43.21425" lon="5.45459">
        <ele>176.54</ele>
        <time>2017-09-18T08:02:37Z</time>
      </trkpt>
      <trkpt lat="43.21422" lon="5.45475">
        <ele>175.1</ele>
        <time>2017-09-18T08:02:50Z</time>
      </trkpt>
      <trkpt lat="43.21419" lon="5.45483">
        <ele>174.62</ele>
        <time>2017-09-18T08:02:57Z</time>
      </trkpt>
      <trkpt lat="43.21413" lon="5.45498">
        <ele>172.21</ele>
        <time>2017-09-18T08:03:05Z</time>
      </trkpt>
      <trkpt lat="43.21406" lon="5.45521">
        <ele>168.85</ele>
        <time>2017-09-18T08:03:17Z</time>
      </trkpt>
      <trkpt lat="43.21402" lon="5.45522">
        <ele>168.37</ele>
        <time>2017-09-18T08:03:23Z</time>
      </trkpt>
      <trkpt lat="43.21401" lon="5.45529">
        <ele>167.41</ele>
        <time>2017-09-18T08:03:27Z</time>
      </trkpt>
      <trkpt lat="43.21401" lon="5.45542">
        <ele>166.45</ele>
        <time>2017-09-18T08:03:35Z</time>
      </trkpt>
      <trkpt lat="43.21401" lon="5.45562">
        <ele>165</ele>
        <time>2017-09-18T08:03:48Z</time>
      </trkpt>
      <trkpt lat="43.21403" lon="5.45578">
        <ele>164.52</ele>
        <time>2017-09-18T08:03:58Z</time>
      </trkpt>
      <trkpt lat="43.21404" lon="5.45585">
        <ele>163.56</ele>
        <time>2017-09-18T08:04:03Z</time>
      </trkpt>
      <trkpt lat="43.21406" lon="5.45589">
        <ele>163.56</ele>
        <time>2017-09-18T08:04:06Z</time>
      </trkpt>
      <trkpt lat="43.21411" lon="5.45601">
        <ele>162.6</ele>
        <time>2017-09-18T08:04:16Z</time>
      </trkpt>
      <trkpt lat="43.21413" lon="5.45608">
        <ele>162.6</ele>
        <time>2017-09-18T08:04:20Z</time>
      </trkpt>
      <trkpt lat="43.21416" lon="5.45614">
        <ele>162.12</ele>
        <time>2017-09-18T08:04:23Z</time>
      </trkpt>
      <trkpt lat="43.21419" lon="5.45616">
        <ele>162.12</ele>
        <time>2017-09-18T08:04:26Z</time>
      </trkpt>
      <trkpt lat="43.2142" lon="5.45621">
        <ele>161.64</ele>
        <time>2017-09-18T08:04:29Z</time>
      </trkpt>
      <trkpt lat="43.2142" lon="5.4563">
        <ele>161.16</ele>
        <time>2017-09-18T08:04:34Z</time>
      </trkpt>
      <trkpt lat="43.21415" lon="5.45649">
        <ele>159.24</ele>
        <time>2017-09-18T08:04:46Z</time>
      </trkpt>
      <trkpt lat="43.21403" lon="5.45667">
        <ele>157.31</ele>
        <time>2017-09-18T08:05:00Z</time>
      </trkpt>
      <trkpt lat="43.21397" lon="5.45673">
        <ele>155.87</ele>
        <time>2017-09-18T08:05:07Z</time>
      </trkpt>
      <trkpt lat="43.21388" lon="5.45676">
        <ele>155.39</ele>
        <time>2017-09-18T08:05:18Z</time>
      </trkpt>
      <trkpt lat="43.21384" lon="5.45679">
        <ele>154.91</ele>
        <time>2017-09-18T08:05:22Z</time>
      </trkpt>
      <trkpt lat="43.2138" lon="5.45682">
        <ele>153.95</ele>
        <time>2017-09-18T08:05:27Z</time>
      </trkpt>
      <trkpt lat="43.21376" lon="5.45684">
        <ele>153.47</ele>
        <time>2017-09-18T08:05:31Z</time>
      </trkpt>
      <trkpt lat="43.21371" lon="5.45687">
        <ele>152.03</ele>
        <time>2017-09-18T08:05:37Z</time>
      </trkpt>
      <trkpt lat="43.21368" lon="5.45687">
        <ele>152.03</ele>
        <time>2017-09-18T08:05:40Z</time>
      </trkpt>
      <trkpt lat="43.21362" lon="5.45689">
        <ele>150.58</ele>
        <time>2017-09-18T08:05:46Z</time>
      </trkpt>
      <trkpt lat="43.21352" lon="5.45699">
        <ele>148.66</ele>
        <time>2017-09-18T08:05:57Z</time>
      </trkpt>
      <trkpt lat="43.21351" lon="5.457">
        <ele>148.18</ele>
        <time>2017-09-18T08:05:59Z</time>
      </trkpt>
      <trkpt lat="43.21347" lon="5.45714">
        <ele>146.74</ele>
        <time>2017-09-18T08:06:10Z</time>
      </trkpt>
      <trkpt lat="43.21345" lon="5.45718">
        <ele>146.74</ele>
        <time>2017-09-18T08:06:13Z</time>
      </trkpt>
      <trkpt lat="43.21346" lon="5.45731">
        <ele>145.3</ele>
        <time>2017-09-18T08:06:21Z</time>
      </trkpt>
      <trkpt lat="43.21344" lon="5.45735">
        <ele>145.3</ele>
        <time>2017-09-18T08:06:23Z</time>
      </trkpt>
      <trkpt lat="43.21344" lon="5.45748">
        <ele>144.34</ele>
        <time>2017-09-18T08:06:31Z</time>
      </trkpt>
      <trkpt lat="43.21341" lon="5.45746">
        <ele>144.34</ele>
        <time>2017-09-18T08:06:38Z</time>
      </trkpt>
      <trkpt lat="43.2134" lon="5.45734">
        <ele>143.85</ele>
        <time>2017-09-18T08:06:47Z</time>
      </trkpt>
      <trkpt lat="43.21337" lon="5.45726">
        <ele>143.85</ele>
        <time>2017-09-18T08:06:54Z</time>
      </trkpt>
      <trkpt lat="43.21336" lon="5.45721">
        <ele>143.85</ele>
        <time>2017-09-18T08:06:57Z</time>
      </trkpt>
      <trkpt lat="43.21333" lon="5.45706">
        <ele>142.89</ele>
        <time>2017-09-18T08:07:05Z</time>
      </trkpt>
      <trkpt lat="43.21332" lon="5.45705">
        <ele>142.89</ele>
        <time>2017-09-18T08:07:06Z</time>
      </trkpt>
      <trkpt lat="43.21333" lon="5.45701">
        <ele>142.41</ele>
        <time>2017-09-18T08:07:08Z</time>
      </trkpt>
      <trkpt lat="43.21332" lon="5.45684">
        <ele>141.45</ele>
        <time>2017-09-18T08:07:16Z</time>
      </trkpt>
      <trkpt lat="43.21331" lon="5.45684">
        <ele>140.97</ele>
        <time>2017-09-18T08:07:18Z</time>
      </trkpt>
      <trkpt lat="43.21326" lon="5.45699">
        <ele>140.01</ele>
        <time>2017-09-18T08:07:25Z</time>
      </trkpt>
      <trkpt lat="43.21324" lon="5.45704">
        <ele>139.53</ele>
        <time>2017-09-18T08:07:30Z</time>
      </trkpt>
      <trkpt lat="43.2132" lon="5.45714">
        <ele>139.05</ele>
        <time>2017-09-18T08:07:38Z</time>
      </trkpt>
      <trkpt lat="43.2132" lon="5.45728">
        <ele>138.57</ele>
        <time>2017-09-18T08:07:47Z</time>
      </trkpt>
      <trkpt lat="43.21322" lon="5.45747">
        <ele>136.64</ele>
        <time>2017-09-18T08:08:00Z</time>
      </trkpt>
      <trkpt lat="43.21322" lon="5.45749">
        <ele>136.64</ele>
        <time>2017-09-18T08:08:14Z</time>
      </trkpt>
      <trkpt lat="43.21322" lon="5.45749">
        <ele>136.64</ele>
        <time>2017-09-18T08:08:17Z</time>
      </trkpt>
      <trkpt lat="43.21323" lon="5.45752">
        <ele>136.64</ele>
        <time>2017-09-18T08:08:20Z</time>
      </trkpt>
      <trkpt lat="43.21325" lon="5.45758">
        <ele>136.64</ele>
        <time>2017-09-18T08:08:24Z</time>
      </trkpt>
      <trkpt lat="43.21325" lon="5.45763">
        <ele>136.16</ele>
        <time>2017-09-18T08:08:28Z</time>
      </trkpt>
      <trkpt lat="43.21325" lon="5.45765">
        <ele>135.68</ele>
        <time>2017-09-18T08:08:30Z</time>
      </trkpt>
      <trkpt lat="43.21331" lon="5.45784">
        <ele>135.68</ele>
        <time>2017-09-18T08:08:42Z</time>
      </trkpt>
      <trkpt lat="43.21329" lon="5.4579">
        <ele>135.2</ele>
        <time>2017-09-18T08:08:46Z</time>
      </trkpt>
      <trkpt lat="43.21325" lon="5.45796">
        <ele>134.24</ele>
        <time>2017-09-18T08:08:51Z</time>
      </trkpt>
      <trkpt lat="43.21312" lon="5.45813">
        <ele>132.8</ele>
        <time>2017-09-18T08:08:59Z</time>
      </trkpt>
      <trkpt lat="43.21309" lon="5.45818">
        <ele>132.32</ele>
        <time>2017-09-18T08:09:02Z</time>
      </trkpt>
      <trkpt lat="43.213" lon="5.45843">
        <ele>129.92</ele>
        <time>2017-09-18T08:09:13Z</time>
      </trkpt>
      <trkpt lat="43.21296" lon="5.45858">
        <ele>128.47</ele>
        <time>2017-09-18T08:09:23Z</time>
      </trkpt>
      <trkpt lat="43.21295" lon="5.45859">
        <ele>128.47</ele>
        <time>2017-09-18T08:09:25Z</time>
      </trkpt>
      <trkpt lat="43.21291" lon="5.45869">
        <ele>127.51</ele>
        <time>2017-09-18T08:09:30Z</time>
      </trkpt>
      <trkpt lat="43.21286" lon="5.45882">
        <ele>126.07</ele>
        <time>2017-09-18T08:09:38Z</time>
      </trkpt>
      <trkpt lat="43.21286" lon="5.45883">
        <ele>126.07</ele>
        <time>2017-09-18T08:09:39Z</time>
      </trkpt>
      <trkpt lat="43.21283" lon="5.4589">
        <ele>125.59</ele>
        <time>2017-09-18T08:09:43Z</time>
      </trkpt>
      <trkpt lat="43.21281" lon="5.45892">
        <ele>125.59</ele>
        <time>2017-09-18T08:09:44Z</time>
      </trkpt>
      <trkpt lat="43.21273" lon="5.45903">
        <ele>124.15</ele>
        <time>2017-09-18T08:09:53Z</time>
      </trkpt>
      <trkpt lat="43.21264" lon="5.45912">
        <ele>123.19</ele>
        <time>2017-09-18T08:10:01Z</time>
      </trkpt>
      <trkpt lat="43.21263" lon="5.45914">
        <ele>122.71</ele>
        <time>2017-09-18T08:10:03Z</time>
      </trkpt>
      <trkpt lat="43.21262" lon="5.45916">
        <ele>122.22</ele>
        <time>2017-09-18T08:10:04Z</time>
      </trkpt>
      <trkpt lat="43.21255" lon="5.45928">
        <ele>121.26</ele>
        <time>2017-09-18T08:10:13Z</time>
      </trkpt>
      <trkpt lat="43.21252" lon="5.45938">
        <ele>120.78</ele>
        <time>2017-09-18T08:10:19Z</time>
      </trkpt>
      <trkpt lat="43.21249" lon="5.45942">
        <ele>120.78</ele>
        <time>2017-09-18T08:10:22Z</time>
      </trkpt>
      <trkpt lat="43.21248" lon="5.45945">
        <ele>120.3</ele>
        <time>2017-09-18T08:10:24Z</time>
      </trkpt>
      <trkpt lat="43.2124" lon="5.4595">
        <ele>119.82</ele>
        <time>2017-09-18T08:10:32Z</time>
      </trkpt>
      <trkpt lat="43.21237" lon="5.45959">
        <ele>118.38</ele>
        <time>2017-09-18T08:10:37Z</time>
      </trkpt>
      <trkpt lat="43.21231" lon="5.45971">
        <ele>117.42</ele>
        <time>2017-09-18T08:10:47Z</time>
      </trkpt>
      <trkpt lat="43.21226" lon="5.45975">
        <ele>117.42</ele>
        <time>2017-09-18T08:10:50Z</time>
      </trkpt>
      <trkpt lat="43.2122" lon="5.4598">
        <ele>116.94</ele>
        <time>2017-09-18T08:10:57Z</time>
      </trkpt>
      <trkpt lat="43.21214" lon="5.45984">
        <ele>115.98</ele>
        <time>2017-09-18T08:11:07Z</time>
      </trkpt>
      <trkpt lat="43.21209" lon="5.4599">
        <ele>115.5</ele>
        <time>2017-09-18T08:11:13Z</time>
      </trkpt>
      <trkpt lat="43.21207" lon="5.46">
        <ele>114.53</ele>
        <time>2017-09-18T08:11:19Z</time>
      </trkpt>
      <trkpt lat="43.21206" lon="5.46005">
        <ele>114.05</ele>
        <time>2017-09-18T08:11:21Z</time>
      </trkpt>
      <trkpt lat="43.21202" lon="5.46014">
        <ele>113.57</ele>
        <time>2017-09-18T08:11:28Z</time>
      </trkpt>
      <trkpt lat="43.21198" lon="5.46013">
        <ele>113.57</ele>
        <time>2017-09-18T08:11:31Z</time>
      </trkpt>
      <trkpt lat="43.21192" lon="5.46025">
        <ele>113.09</ele>
        <time>2017-09-18T08:11:38Z</time>
      </trkpt>
      <trkpt lat="43.2119" lon="5.46035">
        <ele>112.61</ele>
        <time>2017-09-18T08:11:43Z</time>
      </trkpt>
      <trkpt lat="43.21191" lon="5.46036">
        <ele>112.13</ele>
        <time>2017-09-18T08:11:49Z</time>
      </trkpt>
      <trkpt lat="43.21191" lon="5.46037">
        <ele>112.61</ele>
        <time>2017-09-18T08:11:51Z</time>
      </trkpt>
      <trkpt lat="43.21187" lon="5.4605">
        <ele>111.65</ele>
        <time>2017-09-18T08:12:01Z</time>
      </trkpt>
      <trkpt lat="43.21177" lon="5.46058">
        <ele>110.69</ele>
        <time>2017-09-18T08:12:11Z</time>
      </trkpt>
      <trkpt lat="43.21169" lon="5.46061">
        <ele>110.21</ele>
        <time>2017-09-18T08:12:16Z</time>
      </trkpt>
      <trkpt lat="43.21163" lon="5.46076">
        <ele>111.17</ele>
        <time>2017-09-18T08:12:25Z</time>
      </trkpt>
      <trkpt lat="43.21155" lon="5.46092">
        <ele>112.13</ele>
        <time>2017-09-18T08:12:35Z</time>
      </trkpt>
      <trkpt lat="43.21156" lon="5.46096">
        <ele>112.13</ele>
        <time>2017-09-18T08:12:38Z</time>
      </trkpt>
      <trkpt lat="43.21151" lon="5.46106">
        <ele>114.05</ele>
        <time>2017-09-18T08:12:46Z</time>
      </trkpt>
      <trkpt lat="43.2114" lon="5.46106">
        <ele>114.53</ele>
        <time>2017-09-18T08:12:52Z</time>
      </trkpt>
      <trkpt lat="43.21138" lon="5.46116">
        <ele>115.01</ele>
        <time>2017-09-18T08:12:59Z</time>
      </trkpt>
      <trkpt lat="43.21137" lon="5.46124">
        <ele>115.01</ele>
        <time>2017-09-18T08:13:03Z</time>
      </trkpt>
      <trkpt lat="43.21137" lon="5.46131">
        <ele>114.53</ele>
        <time>2017-09-18T08:13:06Z</time>
      </trkpt>
      <trkpt lat="43.21131" lon="5.46136">
        <ele>114.05</ele>
        <time>2017-09-18T08:13:17Z</time>
      </trkpt>
      <trkpt lat="43.2113" lon="5.46136">
        <ele>114.05</ele>
        <time>2017-09-18T08:13:18Z</time>
      </trkpt>
      <trkpt lat="43.21121" lon="5.46144">
        <ele>113.57</ele>
        <time>2017-09-18T08:13:25Z</time>
      </trkpt>
      <trkpt lat="43.21119" lon="5.46146">
        <ele>112.61</ele>
        <time>2017-09-18T08:13:28Z</time>
      </trkpt>
      <trkpt lat="43.21122" lon="5.46155">
        <ele>112.61</ele>
        <time>2017-09-18T08:13:32Z</time>
      </trkpt>
      <trkpt lat="43.21128" lon="5.46172">
        <ele>111.65</ele>
        <time>2017-09-18T08:13:41Z</time>
      </trkpt>
      <trkpt lat="43.21129" lon="5.46177">
        <ele>111.17</ele>
        <time>2017-09-18T08:13:44Z</time>
      </trkpt>
      <trkpt lat="43.21119" lon="5.46184">
        <ele>110.21</ele>
        <time>2017-09-18T08:13:54Z</time>
      </trkpt>
      <trkpt lat="43.21119" lon="5.4619">
        <ele>109.25</ele>
        <time>2017-09-18T08:14:01Z</time>
      </trkpt>
      <trkpt lat="43.2112" lon="5.46194">
        <ele>108.77</ele>
        <time>2017-09-18T08:14:04Z</time>
      </trkpt>
      <trkpt lat="43.21116" lon="5.46213">
        <ele>107.32</ele>
        <time>2017-09-18T08:14:16Z</time>
      </trkpt>
      <trkpt lat="43.21116" lon="5.46218">
        <ele>106.36</ele>
        <time>2017-09-18T08:14:27Z</time>
      </trkpt>
      <trkpt lat="43.21112" lon="5.46229">
        <ele>106.36</ele>
        <time>2017-09-18T08:14:35Z</time>
      </trkpt>
      <trkpt lat="43.21109" lon="5.46231">
        <ele>106.36</ele>
        <time>2017-09-18T08:14:37Z</time>
      </trkpt>
      <trkpt lat="43.21102" lon="5.4624">
        <ele>106.36</ele>
        <time>2017-09-18T08:14:44Z</time>
      </trkpt>
      <trkpt lat="43.21097" lon="5.46243">
        <ele>105.4</ele>
        <time>2017-09-18T08:14:48Z</time>
      </trkpt>
      <trkpt lat="43.21094" lon="5.46261">
        <ele>103</ele>
        <time>2017-09-18T08:14:58Z</time>
      </trkpt>
      <trkpt lat="43.21092" lon="5.46263">
        <ele>102.04</ele>
        <time>2017-09-18T08:15:00Z</time>
      </trkpt>
      <trkpt lat="43.21087" lon="5.46278">
        <ele>99.63</ele>
        <time>2017-09-18T08:15:12Z</time>
      </trkpt>
      <trkpt lat="43.21087" lon="5.46279">
        <ele>98.67</ele>
        <time>2017-09-18T08:15:15Z</time>
      </trkpt>
      <trkpt lat="43.21083" lon="5.46284">
        <ele>96.75</ele>
        <time>2017-09-18T08:15:28Z</time>
      </trkpt>
      <trkpt lat="43.21077" lon="5.46291">
        <ele>94.35</ele>
        <time>2017-09-18T08:15:39Z</time>
      </trkpt>
      <trkpt lat="43.21074" lon="5.46293">
        <ele>92.9</ele>
        <time>2017-09-18T08:15:46Z</time>
      </trkpt>
      <trkpt lat="43.21066" lon="5.46291">
        <ele>90.5</ele>
        <time>2017-09-18T08:15:56Z</time>
      </trkpt>
      <trkpt lat="43.21069" lon="5.46301">
        <ele>88.58</ele>
        <time>2017-09-18T08:16:03Z</time>
      </trkpt>
      <trkpt lat="43.21065" lon="5.46304">
        <ele>86.18</ele>
        <time>2017-09-18T08:16:11Z</time>
      </trkpt>
      <trkpt lat="43.21065" lon="5.46306">
        <ele>85.21</ele>
        <time>2017-09-18T08:16:14Z</time>
      </trkpt>
      <trkpt lat="43.21059" lon="5.46306">
        <ele>83.77</ele>
        <time>2017-09-18T08:16:19Z</time>
      </trkpt>
      <trkpt lat="43.21055" lon="5.46309">
        <ele>83.29</ele>
        <time>2017-09-18T08:16:23Z</time>
      </trkpt>
      <trkpt lat="43.21053" lon="5.4631">
        <ele>82.81</ele>
        <time>2017-09-18T08:16:25Z</time>
      </trkpt>
      <trkpt lat="43.2105" lon="5.4631">
        <ele>81.85</ele>
        <time>2017-09-18T08:16:28Z</time>
      </trkpt>
      <trkpt lat="43.21043" lon="5.46311">
        <ele>79.93</ele>
        <time>2017-09-18T08:16:39Z</time>
      </trkpt>
      <trkpt lat="43.21039" lon="5.46312">
        <ele>79.45</ele>
        <time>2017-09-18T08:16:42Z</time>
      </trkpt>
      <trkpt lat="43.21035" lon="5.46311">
        <ele>78.97</ele>
        <time>2017-09-18T08:16:44Z</time>
      </trkpt>
      <trkpt lat="43.21034" lon="5.46323">
        <ele>77.52</ele>
        <time>2017-09-18T08:16:51Z</time>
      </trkpt>
      <trkpt lat="43.21034" lon="5.4633">
        <ele>76.56</ele>
        <time>2017-09-18T08:16:56Z</time>
      </trkpt>
      <trkpt lat="43.21032" lon="5.46335">
        <ele>75.12</ele>
        <time>2017-09-18T08:17:01Z</time>
      </trkpt>
      <trkpt lat="43.21026" lon="5.46336">
        <ele>73.68</ele>
        <time>2017-09-18T08:17:06Z</time>
      </trkpt>
      <trkpt lat="43.21027" lon="5.46352">
        <ele>71.76</ele>
        <time>2017-09-18T08:17:15Z</time>
      </trkpt>
      <trkpt lat="43.21025" lon="5.46353">
        <ele>70.79</ele>
        <time>2017-09-18T08:17:17Z</time>
      </trkpt>
      <trkpt lat="43.21021" lon="5.46361">
        <ele>69.35</ele>
        <time>2017-09-18T08:17:28Z</time>
      </trkpt>
      <trkpt lat="43.21013" lon="5.46359">
        <ele>68.39</ele>
        <time>2017-09-18T08:17:40Z</time>
      </trkpt>
      <trkpt lat="43.21013" lon="5.4636">
        <ele>67.43</ele>
        <time>2017-09-18T08:17:52Z</time>
      </trkpt>
      <trkpt lat="43.21011" lon="5.46361">
        <ele>67.43</ele>
        <time>2017-09-18T08:18:15Z</time>
      </trkpt>
      <trkpt lat="43.21007" lon="5.46363">
        <ele>66.95</ele>
        <time>2017-09-18T08:18:19Z</time>
      </trkpt>
      <trkpt lat="43.20994" lon="5.46364">
        <ele>65.51</ele>
        <time>2017-09-18T08:18:26Z</time>
      </trkpt>
      <trkpt lat="43.20988" lon="5.46368">
        <ele>65.03</ele>
        <time>2017-09-18T08:18:34Z</time>
      </trkpt>
      <trkpt lat="43.20982" lon="5.46374">
        <ele>65.51</ele>
        <time>2017-09-18T08:18:44Z</time>
      </trkpt>
      <trkpt lat="43.20981" lon="5.46376">
        <ele>65.51</ele>
        <time>2017-09-18T08:18:46Z</time>
      </trkpt>
      <trkpt lat="43.20977" lon="5.46383">
        <ele>65.03</ele>
        <time>2017-09-18T08:18:52Z</time>
      </trkpt>
      <trkpt lat="43.20967" lon="5.46391">
        <ele>63.1</ele>
        <time>2017-09-18T08:19:01Z</time>
      </trkpt>
      <trkpt lat="43.20966" lon="5.46402">
        <ele>63.1</ele>
        <time>2017-09-18T08:19:09Z</time>
      </trkpt>
      <trkpt lat="43.20968" lon="5.46408">
        <ele>64.55</ele>
        <time>2017-09-18T08:19:11Z</time>
      </trkpt>
      <trkpt lat="43.20969" lon="5.46419">
        <ele>68.39</ele>
        <time>2017-09-18T08:19:21Z</time>
      </trkpt>
      <trkpt lat="43.20969" lon="5.46419">
        <ele>65.03</ele>
        <time>2017-09-18T08:19:22Z</time>
      </trkpt>
      <trkpt lat="43.20969" lon="5.46421">
        <ele>65.03</ele>
        <time>2017-09-18T08:19:25Z</time>
      </trkpt>
      <trkpt lat="43.2097" lon="5.46425">
        <ele>65.51</ele>
        <time>2017-09-18T08:19:29Z</time>
      </trkpt>
      <trkpt lat="43.20967" lon="5.46432">
        <ele>65.99</ele>
        <time>2017-09-18T08:19:38Z</time>
      </trkpt>
      <trkpt lat="43.2096" lon="5.4644">
        <ele>66.47</ele>
        <time>2017-09-18T08:19:49Z</time>
      </trkpt>
      <trkpt lat="43.2096" lon="5.46441">
        <ele>66.95</ele>
        <time>2017-09-18T08:19:51Z</time>
      </trkpt>
      <trkpt lat="43.2096" lon="5.46449">
        <ele>68.87</ele>
        <time>2017-09-18T08:20:01Z</time>
      </trkpt>
      <trkpt lat="43.20958" lon="5.46449">
        <ele>69.35</ele>
        <time>2017-09-18T08:20:06Z</time>
      </trkpt>
      <trkpt lat="43.20951" lon="5.46444">
        <ele>68.87</ele>
        <time>2017-09-18T08:20:17Z</time>
      </trkpt>
      <trkpt lat="43.20952" lon="5.46459">
        <ele>70.31</ele>
        <time>2017-09-18T08:20:28Z</time>
      </trkpt>
      <trkpt lat="43.20948" lon="5.46464">
        <ele>71.27</ele>
        <time>2017-09-18T08:20:35Z</time>
      </trkpt>
      <trkpt lat="43.20943" lon="5.46468">
        <ele>70.31</ele>
        <time>2017-09-18T08:20:40Z</time>
      </trkpt>
      <trkpt lat="43.20943" lon="5.46469">
        <ele>70.31</ele>
        <time>2017-09-18T08:20:42Z</time>
      </trkpt>
      <trkpt lat="43.20944" lon="5.46492">
        <ele>69.35</ele>
        <time>2017-09-18T08:20:52Z</time>
      </trkpt>
      <trkpt lat="43.20943" lon="5.46493">
        <ele>69.83</ele>
        <time>2017-09-18T08:20:56Z</time>
      </trkpt>
      <trkpt lat="43.20942" lon="5.46496">
        <ele>68.87</ele>
        <time>2017-09-18T08:20:58Z</time>
      </trkpt>
      <trkpt lat="43.20945" lon="5.46507">
        <ele>68.87</ele>
        <time>2017-09-18T08:21:05Z</time>
      </trkpt>
      <trkpt lat="43.2094" lon="5.46514">
        <ele>68.87</ele>
        <time>2017-09-18T08:21:14Z</time>
      </trkpt>
      <trkpt lat="43.20941" lon="5.46516">
        <ele>69.35</ele>
        <time>2017-09-18T08:21:18Z</time>
      </trkpt>
      <trkpt lat="43.20941" lon="5.46518">
        <ele>69.83</ele>
        <time>2017-09-18T08:21:20Z</time>
      </trkpt>
      <trkpt lat="43.20941" lon="5.46522">
        <ele>69.83</ele>
        <time>2017-09-18T08:21:23Z</time>
      </trkpt>
      <trkpt lat="43.20942" lon="5.46526">
        <ele>69.35</ele>
        <time>2017-09-18T08:21:32Z</time>
      </trkpt>
      <trkpt lat="43.20941" lon="5.4653">
        <ele>69.83</ele>
        <time>2017-09-18T08:21:47Z</time>
      </trkpt>
      <trkpt lat="43.20938" lon="5.46532">
        <ele>69.83</ele>
        <time>2017-09-18T08:21:49Z</time>
      </trkpt>
      <trkpt lat="43.20939" lon="5.4655">
        <ele>69.35</ele>
        <time>2017-09-18T08:21:58Z</time>
      </trkpt>
      <trkpt lat="43.20939" lon="5.46551">
        <ele>69.35</ele>
        <time>2017-09-18T08:21:59Z</time>
      </trkpt>
      <trkpt lat="43.20938" lon="5.46556">
        <ele>68.87</ele>
        <time>2017-09-18T08:22:03Z</time>
      </trkpt>
      <trkpt lat="43.20938" lon="5.46566">
        <ele>68.39</ele>
        <time>2017-09-18T08:22:13Z</time>
      </trkpt>
      <trkpt lat="43.20938" lon="5.46566">
        <ele>68.39</ele>
        <time>2017-09-18T08:22:15Z</time>
      </trkpt>
      <trkpt lat="43.20936" lon="5.46572">
        <ele>68.87</ele>
        <time>2017-09-18T08:22:20Z</time>
      </trkpt>
      <trkpt lat="43.20939" lon="5.46576">
        <ele>69.83</ele>
        <time>2017-09-18T08:22:27Z</time>
      </trkpt>
      <trkpt lat="43.20937" lon="5.46579">
        <ele>70.79</ele>
        <time>2017-09-18T08:22:30Z</time>
      </trkpt>
      <trkpt lat="43.20934" lon="5.46583">
        <ele>71.27</ele>
        <time>2017-09-18T08:22:33Z</time>
      </trkpt>
      <trkpt lat="43.20935" lon="5.4659">
        <ele>71.76</ele>
        <time>2017-09-18T08:22:38Z</time>
      </trkpt>
      <trkpt lat="43.20936" lon="5.46594">
        <ele>71.76</ele>
        <time>2017-09-18T08:22:48Z</time>
      </trkpt>
      <trkpt lat="43.20941" lon="5.46604">
        <ele>71.76</ele>
        <time>2017-09-18T08:22:53Z</time>
      </trkpt>
      <trkpt lat="43.20942" lon="5.46615">
        <ele>71.27</ele>
        <time>2017-09-18T08:23:01Z</time>
      </trkpt>
      <trkpt lat="43.20944" lon="5.46625">
        <ele>70.79</ele>
        <time>2017-09-18T08:23:11Z</time>
      </trkpt>
      <trkpt lat="43.20943" lon="5.46632">
        <ele>70.31</ele>
        <time>2017-09-18T08:23:17Z</time>
      </trkpt>
      <trkpt lat="43.20942" lon="5.46635">
        <ele>68.87</ele>
        <time>2017-09-18T08:23:29Z</time>
      </trkpt>
      <trkpt lat="43.20938" lon="5.46637">
        <ele>67.91</ele>
        <time>2017-09-18T08:23:34Z</time>
      </trkpt>
      <trkpt lat="43.20935" lon="5.46644">
        <ele>67.91</ele>
        <time>2017-09-18T08:23:38Z</time>
      </trkpt>
      <trkpt lat="43.20934" lon="5.4665">
        <ele>66.95</ele>
        <time>2017-09-18T08:23:49Z</time>
      </trkpt>
      <trkpt lat="43.20933" lon="5.46652">
        <ele>66.47</ele>
        <time>2017-09-18T08:23:52Z</time>
      </trkpt>
      <trkpt lat="43.20928" lon="5.46654">
        <ele>64.55</ele>
        <time>2017-09-18T08:24:04Z</time>
      </trkpt>
      <trkpt lat="43.20926" lon="5.46654">
        <ele>64.07</ele>
        <time>2017-09-18T08:24:20Z</time>
      </trkpt>
      <trkpt lat="43.20927" lon="5.46661">
        <ele>61.66</ele>
        <time>2017-09-18T08:24:31Z</time>
      </trkpt>
      <trkpt lat="43.20924" lon="5.46665">
        <ele>60.22</ele>
        <time>2017-09-18T08:24:40Z</time>
      </trkpt>
      <trkpt lat="43.20919" lon="5.46672">
        <ele>58.78</ele>
        <time>2017-09-18T08:24:46Z</time>
      </trkpt>
      <trkpt lat="43.2092" lon="5.46684">
        <ele>56.86</ele>
        <time>2017-09-18T08:24:58Z</time>
      </trkpt>
      <trkpt lat="43.20919" lon="5.46682">
        <ele>56.37</ele>
        <time>2017-09-18T08:25:13Z</time>
      </trkpt>
      <trkpt lat="43.2092" lon="5.4668">
        <ele>55.89</ele>
        <time>2017-09-18T08:25:18Z</time>
      </trkpt>
      <trkpt lat="43.20921" lon="5.46681">
        <ele>54.45</ele>
        <time>2017-09-18T08:25:24Z</time>
      </trkpt>
      <trkpt lat="43.20923" lon="5.46689">
        <ele>52.53</ele>
        <time>2017-09-18T08:25:31Z</time>
      </trkpt>
      <trkpt lat="43.20921" lon="5.46694">
        <ele>51.09</ele>
        <time>2017-09-18T08:25:42Z</time>
      </trkpt>
      <trkpt lat="43.2092" lon="5.46695">
        <ele>50.61</ele>
        <time>2017-09-18T08:25:47Z</time>
      </trkpt>
      <trkpt lat="43.20919" lon="5.46701">
        <ele>50.13</ele>
        <time>2017-09-18T08:25:50Z</time>
      </trkpt>
      <trkpt lat="43.20919" lon="5.46711">
        <ele>49.16</ele>
        <time>2017-09-18T08:26:03Z</time>
      </trkpt>
      <trkpt lat="43.20918" lon="5.46712">
        <ele>48.68</ele>
        <time>2017-09-18T08:26:14Z</time>
      </trkpt>
      <trkpt lat="43.20918" lon="5.46713">
        <ele>47.24</ele>
        <time>2017-09-18T08:26:27Z</time>
      </trkpt>
      <trkpt lat="43.20917" lon="5.46713">
        <ele>46.76</ele>
        <time>2017-09-18T08:26:37Z</time>
      </trkpt>
      <trkpt lat="43.20917" lon="5.46713">
        <ele>46.76</ele>
        <time>2017-09-18T08:26:40Z</time>
      </trkpt>
      <trkpt lat="43.20917" lon="5.46716">
        <ele>45.32</ele>
        <time>2017-09-18T08:26:47Z</time>
      </trkpt>
      <trkpt lat="43.2092" lon="5.46723">
        <ele>46.28</ele>
        <time>2017-09-18T08:26:53Z</time>
      </trkpt>
      <trkpt lat="43.2092" lon="5.46732">
        <ele>46.76</ele>
        <time>2017-09-18T08:26:58Z</time>
      </trkpt>
      <trkpt lat="43.20921" lon="5.46733">
        <ele>46.76</ele>
        <time>2017-09-18T08:26:59Z</time>
      </trkpt>
      <trkpt lat="43.20923" lon="5.4674">
        <ele>47.24</ele>
        <time>2017-09-18T08:27:02Z</time>
      </trkpt>
      <trkpt lat="43.20924" lon="5.46751">
        <ele>46.28</ele>
        <time>2017-09-18T08:27:09Z</time>
      </trkpt>
      <trkpt lat="43.20919" lon="5.46766">
        <ele>44.84</ele>
        <time>2017-09-18T08:27:17Z</time>
      </trkpt>
      <trkpt lat="43.20918" lon="5.46769">
        <ele>43.88</ele>
        <time>2017-09-18T08:27:22Z</time>
      </trkpt>
      <trkpt lat="43.20914" lon="5.4677">
        <ele>43.4</ele>
        <time>2017-09-18T08:27:25Z</time>
      </trkpt>
      <trkpt lat="43.20908" lon="5.46775">
        <ele>41.95</ele>
        <time>2017-09-18T08:27:33Z</time>
      </trkpt>
      <trkpt lat="43.20913" lon="5.46775">
        <ele>41.47</ele>
        <time>2017-09-18T08:27:46Z</time>
      </trkpt>
      <trkpt lat="43.20915" lon="5.46774">
        <ele>41.47</ele>
        <time>2017-09-18T08:27:48Z</time>
      </trkpt>
      <trkpt lat="43.20917" lon="5.46775">
        <ele>40.99</ele>
        <time>2017-09-18T08:27:57Z</time>
      </trkpt>
      <trkpt lat="43.20918" lon="5.46782">
        <ele>39.55</ele>
        <time>2017-09-18T08:28:07Z</time>
      </trkpt>
      <trkpt lat="43.20918" lon="5.46782">
        <ele>39.55</ele>
        <time>2017-09-18T08:28:23Z</time>
      </trkpt>
      <trkpt lat="43.20916" lon="5.46782">
        <ele>40.03</ele>
        <time>2017-09-18T08:28:44Z</time>
      </trkpt>
      <trkpt lat="43.20916" lon="5.46782">
        <ele>40.03</ele>
        <time>2017-09-18T08:28:56Z</time>
      </trkpt>
      <trkpt lat="43.20916" lon="5.46785">
        <ele>39.55</ele>
        <time>2017-09-18T08:29:08Z</time>
      </trkpt>
      <trkpt lat="43.20917" lon="5.46784">
        <ele>40.03</ele>
        <time>2017-09-18T08:29:26Z</time>
      </trkpt>
      <trkpt lat="43.20918" lon="5.46785">
        <ele>39.07</ele>
        <time>2017-09-18T08:29:37Z</time>
      </trkpt>
      <trkpt lat="43.20918" lon="5.46785">
        <ele>38.11</ele>
        <time>2017-09-18T08:29:41Z</time>
      </trkpt>
      <trkpt lat="43.20916" lon="5.46795">
        <ele>36.67</ele>
        <time>2017-09-18T08:29:51Z</time>
      </trkpt>
      <trkpt lat="43.20918" lon="5.46798">
        <ele>36.19</ele>
        <time>2017-09-18T08:29:53Z</time>
      </trkpt>
      <trkpt lat="43.20917" lon="5.46805">
        <ele>34.74</ele>
        <time>2017-09-18T08:30:00Z</time>
      </trkpt>
      <trkpt lat="43.20912" lon="5.46813">
        <ele>33.3</ele>
        <time>2017-09-18T08:30:07Z</time>
      </trkpt>
      <trkpt lat="43.20907" lon="5.46824">
        <ele>30.42</ele>
        <time>2017-09-18T08:30:16Z</time>
      </trkpt>
      <trkpt lat="43.20907" lon="5.46824">
        <ele>30.9</ele>
        <time>2017-09-18T08:30:17Z</time>
      </trkpt>
      <trkpt lat="43.20909" lon="5.46821">
        <ele>32.82</ele>
        <time>2017-09-18T08:30:27Z</time>
      </trkpt>
      <trkpt lat="43.20909" lon="5.46821">
        <ele>32.82</ele>
        <time>2017-09-18T08:30:46Z</time>
      </trkpt>
      <trkpt lat="43.20909" lon="5.46821">
        <ele>32.82</ele>
        <time>2017-09-18T08:31:06Z</time>
      </trkpt>
      <trkpt lat="43.20909" lon="5.46821">
        <ele>32.34</ele>
        <time>2017-09-18T08:31:09Z</time>
      </trkpt>
      <trkpt lat="43.20907" lon="5.46828">
        <ele>31.38</ele>
        <time>2017-09-18T08:31:13Z</time>
      </trkpt>
      <trkpt lat="43.20908" lon="5.46835">
        <ele>29.46</ele>
        <time>2017-09-18T08:31:20Z</time>
      </trkpt>
      <trkpt lat="43.20907" lon="5.46846">
        <ele>27.53</ele>
        <time>2017-09-18T08:31:31Z</time>
      </trkpt>
      <trkpt lat="43.20908" lon="5.46846">
        <ele>28.02</ele>
        <time>2017-09-18T08:31:32Z</time>
      </trkpt>
      <trkpt lat="43.2091" lon="5.46862">
        <ele>27.53</ele>
        <time>2017-09-18T08:31:41Z</time>
      </trkpt>
      <trkpt lat="43.20911" lon="5.46865">
        <ele>27.53</ele>
        <time>2017-09-18T08:31:43Z</time>
      </trkpt>
      <trkpt lat="43.20918" lon="5.46878">
        <ele>28.5</ele>
        <time>2017-09-18T08:31:52Z</time>
      </trkpt>
      <trkpt lat="43.2092" lon="5.46886">
        <ele>28.02</ele>
        <time>2017-09-18T08:31:56Z</time>
      </trkpt>
      <trkpt lat="43.20922" lon="5.46897">
        <ele>28.02</ele>
        <time>2017-09-18T08:32:01Z</time>
      </trkpt>
      <trkpt lat="43.20924" lon="5.46902">
        <ele>28.02</ele>
        <time>2017-09-18T08:32:05Z</time>
      </trkpt>
      <trkpt lat="43.20923" lon="5.46913">
        <ele>27.53</ele>
        <time>2017-09-18T08:32:08Z</time>
      </trkpt>
      <trkpt lat="43.20924" lon="5.4692">
        <ele>28.98</ele>
        <time>2017-09-18T08:32:13Z</time>
      </trkpt>
      <trkpt lat="43.20922" lon="5.46927">
        <ele>29.46</ele>
        <time>2017-09-18T08:32:24Z</time>
      </trkpt>
      <trkpt lat="43.20918" lon="5.46936">
        <ele>29.94</ele>
        <time>2017-09-18T08:32:36Z</time>
      </trkpt>
      <trkpt lat="43.20918" lon="5.46936">
        <ele>30.9</ele>
        <time>2017-09-18T08:32:42Z</time>
      </trkpt>
      <trkpt lat="43.20919" lon="5.46941">
        <ele>30.9</ele>
        <time>2017-09-18T08:32:45Z</time>
      </trkpt>
      <trkpt lat="43.20919" lon="5.46949">
        <ele>32.82</ele>
        <time>2017-09-18T08:32:57Z</time>
      </trkpt>
      <trkpt lat="43.20919" lon="5.46949">
        <ele>34.74</ele>
        <time>2017-09-18T08:33:10Z</time>
      </trkpt>
      <trkpt lat="43.20919" lon="5.46949">
        <ele>38.11</ele>
        <time>2017-09-18T08:33:24Z</time>
      </trkpt>
      <trkpt lat="43.2092" lon="5.46954">
        <ele>39.07</ele>
        <time>2017-09-18T08:33:34Z</time>
      </trkpt>
      <trkpt lat="43.20915" lon="5.46962">
        <ele>40.51</ele>
        <time>2017-09-18T08:33:46Z</time>
      </trkpt>
      <trkpt lat="43.20914" lon="5.46963">
        <ele>43.4</ele>
        <time>2017-09-18T08:33:58Z</time>
      </trkpt>
      <trkpt lat="43.20915" lon="5.46964">
        <ele>43.4</ele>
        <time>2017-09-18T08:34:18Z</time>
      </trkpt>
      <trkpt lat="43.20914" lon="5.46964">
        <ele>43.4</ele>
        <time>2017-09-18T08:34:33Z</time>
      </trkpt>
      <trkpt lat="43.20913" lon="5.46965">
        <ele>43.4</ele>
        <time>2017-09-18T08:35:02Z</time>
      </trkpt>
      <trkpt lat="43.20913" lon="5.46965">
        <ele>43.4</ele>
        <time>2017-09-18T08:35:18Z</time>
      </trkpt>
      <trkpt lat="43.20911" lon="5.46972">
        <ele>44.84</ele>
        <time>2017-09-18T08:35:25Z</time>
      </trkpt>
      <trkpt lat="43.20909" lon="5.46976">
        <ele>48.68</ele>
        <time>2017-09-18T08:35:37Z</time>
      </trkpt>
      <trkpt lat="43.20909" lon="5.46976">
        <ele>51.09</ele>
        <time>2017-09-18T08:35:47Z</time>
      </trkpt>
      <trkpt lat="43.20908" lon="5.46977">
        <ele>51.57</ele>
        <time>2017-09-18T08:35:51Z</time>
      </trkpt>
      <trkpt lat="43.20907" lon="5.46985">
        <ele>54.93</ele>
        <time>2017-09-18T08:36:03Z</time>
      </trkpt>
      <trkpt lat="43.20907" lon="5.46985">
        <ele>57.82</ele>
        <time>2017-09-18T08:36:15Z</time>
      </trkpt>
      <trkpt lat="43.20905" lon="5.46994">
        <ele>60.7</ele>
        <time>2017-09-18T08:36:25Z</time>
      </trkpt>
      <trkpt lat="43.20905" lon="5.46994">
        <ele>60.7</ele>
        <time>2017-09-18T08:36:30Z</time>
      </trkpt>
      <trkpt lat="43.20904" lon="5.47">
        <ele>63.1</ele>
        <time>2017-09-18T08:36:41Z</time>
      </trkpt>
      <trkpt lat="43.20904" lon="5.47">
        <ele>64.07</ele>
        <time>2017-09-18T08:36:43Z</time>
      </trkpt>
      <trkpt lat="43.20904" lon="5.47">
        <ele>66.95</ele>
        <time>2017-09-18T08:36:54Z</time>
      </trkpt>
      <trkpt lat="43.20904" lon="5.47">
        <ele>69.35</ele>
        <time>2017-09-18T08:37:02Z</time>
      </trkpt>
      <trkpt lat="43.20899" lon="5.47001">
        <ele>71.76</ele>
        <time>2017-09-18T08:37:15Z</time>
      </trkpt>
      <trkpt lat="43.20899" lon="5.47001">
        <ele>72.24</ele>
        <time>2017-09-18T08:37:28Z</time>
      </trkpt>
      <trkpt lat="43.20899" lon="5.47002">
        <ele>72.24</ele>
        <time>2017-09-18T08:37:53Z</time>
      </trkpt>
      <trkpt lat="43.20897" lon="5.47003">
        <ele>73.2</ele>
        <time>2017-09-18T08:38:00Z</time>
      </trkpt>
      <trkpt lat="43.20892" lon="5.47015">
        <ele>74.16</ele>
        <time>2017-09-18T08:38:06Z</time>
      </trkpt>
      <trkpt lat="43.20886" lon="5.47026">
        <ele>76.08</ele>
        <time>2017-09-18T08:38:16Z</time>
      </trkpt>
      <trkpt lat="43.20888" lon="5.4703">
        <ele>78.97</ele>
        <time>2017-09-18T08:38:27Z</time>
      </trkpt>
      <trkpt lat="43.20888" lon="5.47037">
        <ele>82.33</ele>
        <time>2017-09-18T08:38:36Z</time>
      </trkpt>
      <trkpt lat="43.20888" lon="5.47038">
        <ele>81.85</ele>
        <time>2017-09-18T08:38:39Z</time>
      </trkpt>
      <trkpt lat="43.20887" lon="5.47038">
        <ele>82.33</ele>
        <time>2017-09-18T08:38:49Z</time>
      </trkpt>
      <trkpt lat="43.20884" lon="5.47037">
        <ele>82.81</ele>
        <time>2017-09-18T08:38:59Z</time>
      </trkpt>
      <trkpt lat="43.20884" lon="5.47037">
        <ele>83.29</ele>
        <time>2017-09-18T08:39:16Z</time>
      </trkpt>
      <trkpt lat="43.20884" lon="5.47037">
        <ele>83.29</ele>
        <time>2017-09-18T08:39:35Z</time>
      </trkpt>
      <trkpt lat="43.20884" lon="5.47038">
        <ele>81.85</ele>
        <time>2017-09-18T08:39:51Z</time>
      </trkpt>
      <trkpt lat="43.20884" lon="5.4704">
        <ele>86.18</ele>
        <time>2017-09-18T08:40:01Z</time>
      </trkpt>
      <trkpt lat="43.20884" lon="5.47041">
        <ele>85.21</ele>
        <time>2017-09-18T08:40:02Z</time>
      </trkpt>
      <trkpt lat="43.20884" lon="5.47042">
        <ele>85.21</ele>
        <time>2017-09-18T08:40:08Z</time>
      </trkpt>
      <trkpt lat="43.20883" lon="5.47039">
        <ele>85.21</ele>
        <time>2017-09-18T08:40:10Z</time>
      </trkpt>
      <trkpt lat="43.20884" lon="5.47042">
        <ele>85.69</ele>
        <time>2017-09-18T08:40:13Z</time>
      </trkpt>
      <trkpt lat="43.20886" lon="5.47043">
        <ele>86.66</ele>
        <time>2017-09-18T08:40:15Z</time>
      </trkpt>
      <trkpt lat="43.20887" lon="5.47043">
        <ele>87.62</ele>
        <time>2017-09-18T08:40:16Z</time>
      </trkpt>
      <trkpt lat="43.20895" lon="5.47042">
        <ele>88.58</ele>
        <time>2017-09-18T08:40:29Z</time>
      </trkpt>
      <trkpt lat="43.20895" lon="5.47042">
        <ele>88.1</ele>
        <time>2017-09-18T08:40:31Z</time>
      </trkpt>
      <trkpt lat="43.20905" lon="5.47044">
        <ele>88.58</ele>
        <time>2017-09-18T08:40:40Z</time>
      </trkpt>
      <trkpt lat="43.2091" lon="5.47045">
        <ele>91.46</ele>
        <time>2017-09-18T08:40:50Z</time>
      </trkpt>
      <trkpt lat="43.2092" lon="5.47046">
        <ele>92.9</ele>
        <time>2017-09-18T08:41:00Z</time>
      </trkpt>
      <trkpt lat="43.2092" lon="5.47048">
        <ele>93.87</ele>
        <time>2017-09-18T08:41:18Z</time>
      </trkpt>
      <trkpt lat="43.20922" lon="5.47047">
        <ele>95.31</ele>
        <time>2017-09-18T08:41:28Z</time>
      </trkpt>
      <trkpt lat="43.20923" lon="5.47047">
        <ele>94.83</ele>
        <time>2017-09-18T08:41:42Z</time>
      </trkpt>
      <trkpt lat="43.20923" lon="5.47047">
        <ele>94.35</ele>
        <time>2017-09-18T08:42:02Z</time>
      </trkpt>
      <trkpt lat="43.20923" lon="5.47046">
        <ele>94.83</ele>
        <time>2017-09-18T08:42:20Z</time>
      </trkpt>
      <trkpt lat="43.20924" lon="5.47046">
        <ele>94.83</ele>
        <time>2017-09-18T08:42:35Z</time>
      </trkpt>
      <trkpt lat="43.20924" lon="5.47046">
        <ele>98.19</ele>
        <time>2017-09-18T08:42:41Z</time>
      </trkpt>
      <trkpt lat="43.20924" lon="5.47046">
        <ele>98.67</ele>
        <time>2017-09-18T08:42:56Z</time>
      </trkpt>
      <trkpt lat="43.20926" lon="5.47049">
        <ele>100.11</ele>
        <time>2017-09-18T08:43:08Z</time>
      </trkpt>
      <trkpt lat="43.20926" lon="5.47049">
        <ele>100.6</ele>
        <time>2017-09-18T08:43:26Z</time>
      </trkpt>
      <trkpt lat="43.20926" lon="5.47049">
        <ele>99.15</ele>
        <time>2017-09-18T08:43:36Z</time>
      </trkpt>
      <trkpt lat="43.20926" lon="5.47049">
        <ele>101.08</ele>
        <time>2017-09-18T08:43:38Z</time>
      </trkpt>
      <trkpt lat="43.20927" lon="5.47051">
        <ele>102.52</ele>
        <time>2017-09-18T08:43:50Z</time>
      </trkpt>
      <trkpt lat="43.20927" lon="5.47051">
        <ele>102.52</ele>
        <time>2017-09-18T08:44:16Z</time>
      </trkpt>
      <trkpt lat="43.20934" lon="5.47061">
        <ele>102.52</ele>
        <time>2017-09-18T08:44:36Z</time>
      </trkpt>
      <trkpt lat="43.20934" lon="5.47061">
        <ele>101.08</ele>
        <time>2017-09-18T08:44:54Z</time>
      </trkpt>
      <trkpt lat="43.20934" lon="5.47061">
        <ele>103</ele>
        <time>2017-09-18T08:44:56Z</time>
      </trkpt>
      <trkpt lat="43.20936" lon="5.4706">
        <ele>104.92</ele>
        <time>2017-09-18T08:45:03Z</time>
      </trkpt>
      <trkpt lat="43.20937" lon="5.47059">
        <ele>106.36</ele>
        <time>2017-09-18T08:45:08Z</time>
      </trkpt>
      <trkpt lat="43.20937" lon="5.47059">
        <ele>108.77</ele>
        <time>2017-09-18T08:45:21Z</time>
      </trkpt>
      <trkpt lat="43.2094" lon="5.47069">
        <ele>112.13</ele>
        <time>2017-09-18T08:45:34Z</time>
      </trkpt>
      <trkpt lat="43.20937" lon="5.47069">
        <ele>112.13</ele>
        <time>2017-09-18T08:45:45Z</time>
      </trkpt>
      <trkpt lat="43.20937" lon="5.47068">
        <ele>113.57</ele>
        <time>2017-09-18T08:45:58Z</time>
      </trkpt>
      <trkpt lat="43.20939" lon="5.4707">
        <ele>115.98</ele>
        <time>2017-09-18T08:46:15Z</time>
      </trkpt>
      <trkpt lat="43.20939" lon="5.47068">
        <ele>117.42</ele>
        <time>2017-09-18T08:46:29Z</time>
      </trkpt>
      <trkpt lat="43.2094" lon="5.47068">
        <ele>117.9</ele>
        <time>2017-09-18T08:46:50Z</time>
      </trkpt>
      <trkpt lat="43.20948" lon="5.4707">
        <ele>119.82</ele>
        <time>2017-09-18T08:47:00Z</time>
      </trkpt>
      <trkpt lat="43.2095" lon="5.47074">
        <ele>121.74</ele>
        <time>2017-09-18T08:47:11Z</time>
      </trkpt>
      <trkpt lat="43.20954" lon="5.47071">
        <ele>124.15</ele>
        <time>2017-09-18T08:47:23Z</time>
      </trkpt>
      <trkpt lat="43.20955" lon="5.47072">
        <ele>125.59</ele>
        <time>2017-09-18T08:47:35Z</time>
      </trkpt>
      <trkpt lat="43.2096" lon="5.47069">
        <ele>127.51</ele>
        <time>2017-09-18T08:47:46Z</time>
      </trkpt>
      <trkpt lat="43.20964" lon="5.47069">
        <ele>128.47</ele>
        <time>2017-09-18T08:47:57Z</time>
      </trkpt>
      <trkpt lat="43.20971" lon="5.47072">
        <ele>130.88</ele>
        <time>2017-09-18T08:48:09Z</time>
      </trkpt>
      <trkpt lat="43.20975" lon="5.47068">
        <ele>132.8</ele>
        <time>2017-09-18T08:48:21Z</time>
      </trkpt>
      <trkpt lat="43.2098" lon="5.47068">
        <ele>134.24</ele>
        <time>2017-09-18T08:48:33Z</time>
      </trkpt>
      <trkpt lat="43.20985" lon="5.47067">
        <ele>136.16</ele>
        <time>2017-09-18T08:48:45Z</time>
      </trkpt>
      <trkpt lat="43.20991" lon="5.47066">
        <ele>137.61</ele>
        <time>2017-09-18T08:48:56Z</time>
      </trkpt>
      <trkpt lat="43.20992" lon="5.47066">
        <ele>138.57</ele>
        <time>2017-09-18T08:49:00Z</time>
      </trkpt>
      <trkpt lat="43.20997" lon="5.47068">
        <ele>141.45</ele>
        <time>2017-09-18T08:49:12Z</time>
      </trkpt>
      <trkpt lat="43.21001" lon="5.47067">
        <ele>142.89</ele>
        <time>2017-09-18T08:49:21Z</time>
      </trkpt>
      <trkpt lat="43.21006" lon="5.47068">
        <ele>144.34</ele>
        <time>2017-09-18T08:49:30Z</time>
      </trkpt>
      <trkpt lat="43.2101" lon="5.47067">
        <ele>147.22</ele>
        <time>2017-09-18T08:49:41Z</time>
      </trkpt>
      <trkpt lat="43.21013" lon="5.47071">
        <ele>149.62</ele>
        <time>2017-09-18T08:49:54Z</time>
      </trkpt>
      <trkpt lat="43.21018" lon="5.47066">
        <ele>152.03</ele>
        <time>2017-09-18T08:50:06Z</time>
      </trkpt>
      <trkpt lat="43.21023" lon="5.47065">
        <ele>154.91</ele>
        <time>2017-09-18T08:50:17Z</time>
      </trkpt>
      <trkpt lat="43.21026" lon="5.47059">
        <ele>154.91</ele>
        <time>2017-09-18T08:50:30Z</time>
      </trkpt>
      <trkpt lat="43.21033" lon="5.47051">
        <ele>156.35</ele>
        <time>2017-09-18T08:50:38Z</time>
      </trkpt>
      <trkpt lat="43.21041" lon="5.47049">
        <ele>157.79</ele>
        <time>2017-09-18T08:50:46Z</time>
      </trkpt>
      <trkpt lat="43.21043" lon="5.47048">
        <ele>159.24</ele>
        <time>2017-09-18T08:50:57Z</time>
      </trkpt>
      <trkpt lat="43.21047" lon="5.4705">
        <ele>158.75</ele>
        <time>2017-09-18T08:51:07Z</time>
      </trkpt>
      <trkpt lat="43.2105" lon="5.47046">
        <ele>162.12</ele>
        <time>2017-09-18T08:51:19Z</time>
      </trkpt>
      <trkpt lat="43.21055" lon="5.4704">
        <ele>164.52</ele>
        <time>2017-09-18T08:51:29Z</time>
      </trkpt>
      <trkpt lat="43.21055" lon="5.4704">
        <ele>165</ele>
        <time>2017-09-18T08:51:43Z</time>
      </trkpt>
      <trkpt lat="43.21055" lon="5.4704">
        <ele>165</ele>
        <time>2017-09-18T08:52:08Z</time>
      </trkpt>
      <trkpt lat="43.21056" lon="5.47032">
        <ele>163.56</ele>
        <time>2017-09-18T08:52:25Z</time>
      </trkpt>
      <trkpt lat="43.21055" lon="5.47024">
        <ele>162.12</ele>
        <time>2017-09-18T08:52:37Z</time>
      </trkpt>
      <trkpt lat="43.21056" lon="5.47022">
        <ele>162.12</ele>
        <time>2017-09-18T08:52:42Z</time>
      </trkpt>
      <trkpt lat="43.21057" lon="5.47017">
        <ele>163.56</ele>
        <time>2017-09-18T08:52:56Z</time>
      </trkpt>
      <trkpt lat="43.21057" lon="5.47013">
        <ele>163.56</ele>
        <time>2017-09-18T08:53:03Z</time>
      </trkpt>
      <trkpt lat="43.21055" lon="5.46998">
        <ele>163.56</ele>
        <time>2017-09-18T08:53:17Z</time>
      </trkpt>
      <trkpt lat="43.21051" lon="5.4699">
        <ele>160.68</ele>
        <time>2017-09-18T08:53:30Z</time>
      </trkpt>
      <trkpt lat="43.21051" lon="5.46979">
        <ele>160.2</ele>
        <time>2017-09-18T08:53:35Z</time>
      </trkpt>
      <trkpt lat="43.21048" lon="5.46968">
        <ele>161.16</ele>
        <time>2017-09-18T08:53:44Z</time>
      </trkpt>
      <trkpt lat="43.21045" lon="5.46961">
        <ele>160.2</ele>
        <time>2017-09-18T08:53:51Z</time>
      </trkpt>
      <trkpt lat="43.21046" lon="5.46953">
        <ele>161.64</ele>
        <time>2017-09-18T08:53:56Z</time>
      </trkpt>
      <trkpt lat="43.21045" lon="5.46947">
        <ele>161.64</ele>
        <time>2017-09-18T08:54:02Z</time>
      </trkpt>
      <trkpt lat="43.21038" lon="5.46935">
        <ele>161.16</ele>
        <time>2017-09-18T08:54:15Z</time>
      </trkpt>
      <trkpt lat="43.21038" lon="5.46935">
        <ele>161.16</ele>
        <time>2017-09-18T08:54:46Z</time>
      </trkpt>
      <trkpt lat="43.21038" lon="5.46935">
        <ele>160.68</ele>
        <time>2017-09-18T08:54:47Z</time>
      </trkpt>
      <trkpt lat="43.21038" lon="5.46933">
        <ele>161.16</ele>
        <time>2017-09-18T08:55:00Z</time>
      </trkpt>
      <trkpt lat="43.21037" lon="5.46929">
        <ele>159.24</ele>
        <time>2017-09-18T08:55:14Z</time>
      </trkpt>
      <trkpt lat="43.21037" lon="5.46915">
        <ele>161.16</ele>
        <time>2017-09-18T08:55:26Z</time>
      </trkpt>
      <trkpt lat="43.21032" lon="5.46909">
        <ele>159.72</ele>
        <time>2017-09-18T08:55:38Z</time>
      </trkpt>
      <trkpt lat="43.21029" lon="5.46906">
        <ele>158.75</ele>
        <time>2017-09-18T08:55:53Z</time>
      </trkpt>
      <trkpt lat="43.21025" lon="5.46897">
        <ele>157.31</ele>
        <time>2017-09-18T08:56:05Z</time>
      </trkpt>
      <trkpt lat="43.21025" lon="5.46888">
        <ele>156.83</ele>
        <time>2017-09-18T08:56:11Z</time>
      </trkpt>
      <trkpt lat="43.2102" lon="5.46882">
        <ele>155.87</ele>
        <time>2017-09-18T08:56:20Z</time>
      </trkpt>
      <trkpt lat="43.21012" lon="5.4688">
        <ele>156.83</ele>
        <time>2017-09-18T08:56:32Z</time>
      </trkpt>
      <trkpt lat="43.21006" lon="5.46871">
        <ele>157.31</ele>
        <time>2017-09-18T08:56:44Z</time>
      </trkpt>
      <trkpt lat="43.21004" lon="5.46864">
        <ele>159.24</ele>
        <time>2017-09-18T08:56:59Z</time>
      </trkpt>
      <trkpt lat="43.20999" lon="5.46859">
        <ele>161.16</ele>
        <time>2017-09-18T08:57:14Z</time>
      </trkpt>
      <trkpt lat="43.21" lon="5.46857">
        <ele>160.68</ele>
        <time>2017-09-18T08:57:28Z</time>
      </trkpt>
      <trkpt lat="43.21" lon="5.46857">
        <ele>162.6</ele>
        <time>2017-09-18T08:57:46Z</time>
      </trkpt>
      <trkpt lat="43.21" lon="5.46857">
        <ele>163.56</ele>
        <time>2017-09-18T08:57:51Z</time>
      </trkpt>
      <trkpt lat="43.21" lon="5.46859">
        <ele>163.08</ele>
        <time>2017-09-18T08:58:05Z</time>
      </trkpt>
      <trkpt lat="43.21" lon="5.46857">
        <ele>162.6</ele>
        <time>2017-09-18T08:58:19Z</time>
      </trkpt>
      <trkpt lat="43.21" lon="5.46857">
        <ele>159.72</ele>
        <time>2017-09-18T08:58:39Z</time>
      </trkpt>
      <trkpt lat="43.21" lon="5.46857">
        <ele>163.08</ele>
        <time>2017-09-18T08:58:40Z</time>
      </trkpt>
      <trkpt lat="43.21" lon="5.46857">
        <ele>162.12</ele>
        <time>2017-09-18T08:58:45Z</time>
      </trkpt>
      <trkpt lat="43.21001" lon="5.46857">
        <ele>160.68</ele>
        <time>2017-09-18T08:59:09Z</time>
      </trkpt>
      <trkpt lat="43.21001" lon="5.46857">
        <ele>160.2</ele>
        <time>2017-09-18T08:59:21Z</time>
      </trkpt>
      <trkpt lat="43.21001" lon="5.46857">
        <ele>160.68</ele>
        <time>2017-09-18T08:59:35Z</time>
      </trkpt>
      <trkpt lat="43.21001" lon="5.46857">
        <ele>160.68</ele>
        <time>2017-09-18T08:59:54Z</time>
      </trkpt>
      <trkpt lat="43.21001" lon="5.46857">
        <ele>160.68</ele>
        <time>2017-09-18T09:00:09Z</time>
      </trkpt>
      <trkpt lat="43.21002" lon="5.46857">
        <ele>160.2</ele>
        <time>2017-09-18T09:00:27Z</time>
      </trkpt>
      <trkpt lat="43.21001" lon="5.46857">
        <ele>161.64</ele>
        <time>2017-09-18T09:00:29Z</time>
      </trkpt>
      <trkpt lat="43.21001" lon="5.46858">
        <ele>161.64</ele>
        <time>2017-09-18T09:00:46Z</time>
      </trkpt>
      <trkpt lat="43.21" lon="5.46857">
        <ele>161.16</ele>
        <time>2017-09-18T09:01:02Z</time>
      </trkpt>
      <trkpt lat="43.21" lon="5.46856">
        <ele>160.2</ele>
        <time>2017-09-18T09:01:24Z</time>
      </trkpt>
      <trkpt lat="43.21" lon="5.46856">
        <ele>160.2</ele>
        <time>2017-09-18T09:01:47Z</time>
      </trkpt>
      <trkpt lat="43.20999" lon="5.46857">
        <ele>160.68</ele>
        <time>2017-09-18T09:02:04Z</time>
      </trkpt>
      <trkpt lat="43.21001" lon="5.46854">
        <ele>162.12</ele>
        <time>2017-09-18T09:02:13Z</time>
      </trkpt>
      <trkpt lat="43.21001" lon="5.46853">
        <ele>162.6</ele>
        <time>2017-09-18T09:02:25Z</time>
      </trkpt>
      <trkpt lat="43.21001" lon="5.46852">
        <ele>164.04</ele>
        <time>2017-09-18T09:02:44Z</time>
      </trkpt>
      <trkpt lat="43.21001" lon="5.4685">
        <ele>164.52</ele>
        <time>2017-09-18T09:02:48Z</time>
      </trkpt>
      <trkpt lat="43.20997" lon="5.46846">
        <ele>165</ele>
        <time>2017-09-18T09:03:07Z</time>
      </trkpt>
      <trkpt lat="43.20997" lon="5.46846">
        <ele>165</ele>
        <time>2017-09-18T09:03:25Z</time>
      </trkpt>
      <trkpt lat="43.20992" lon="5.46835">
        <ele>166.45</ele>
        <time>2017-09-18T09:03:37Z</time>
      </trkpt>
      <trkpt lat="43.20991" lon="5.46835">
        <ele>166.93</ele>
        <time>2017-09-18T09:03:38Z</time>
      </trkpt>
      <trkpt lat="43.20986" lon="5.46832">
        <ele>165.96</ele>
        <time>2017-09-18T09:03:41Z</time>
      </trkpt>
      <trkpt lat="43.20985" lon="5.46827">
        <ele>166.45</ele>
        <time>2017-09-18T09:03:44Z</time>
      </trkpt>
      <trkpt lat="43.20983" lon="5.46823">
        <ele>167.41</ele>
        <time>2017-09-18T09:03:51Z</time>
      </trkpt>
      <trkpt lat="43.20984" lon="5.46811">
        <ele>170.77</ele>
        <time>2017-09-18T09:04:00Z</time>
      </trkpt>
      <trkpt lat="43.20984" lon="5.4681">
        <ele>170.77</ele>
        <time>2017-09-18T09:04:01Z</time>
      </trkpt>
      <trkpt lat="43.20984" lon="5.46804">
        <ele>171.25</ele>
        <time>2017-09-18T09:04:12Z</time>
      </trkpt>
      <trkpt lat="43.20984" lon="5.46802">
        <ele>170.77</ele>
        <time>2017-09-18T09:04:14Z</time>
      </trkpt>
      <trkpt lat="43.20982" lon="5.468">
        <ele>169.33</ele>
        <time>2017-09-18T09:04:23Z</time>
      </trkpt>
      <trkpt lat="43.20984" lon="5.46796">
        <ele>168.85</ele>
        <time>2017-09-18T09:04:37Z</time>
      </trkpt>
      <trkpt lat="43.20984" lon="5.46794">
        <ele>168.85</ele>
        <time>2017-09-18T09:04:43Z</time>
      </trkpt>
      <trkpt lat="43.20986" lon="5.46791">
        <ele>169.81</ele>
        <time>2017-09-18T09:04:53Z</time>
      </trkpt>
      <trkpt lat="43.2099" lon="5.46787">
        <ele>171.73</ele>
        <time>2017-09-18T09:05:00Z</time>
      </trkpt>
      <trkpt lat="43.20989" lon="5.46774">
        <ele>173.17</ele>
        <time>2017-09-18T09:05:11Z</time>
      </trkpt>
      <trkpt lat="43.20989" lon="5.46772">
        <ele>175.1</ele>
        <time>2017-09-18T09:05:17Z</time>
      </trkpt>
      <trkpt lat="43.20991" lon="5.46772">
        <ele>177.02</ele>
        <time>2017-09-18T09:05:26Z</time>
      </trkpt>
      <trkpt lat="43.20993" lon="5.46771">
        <ele>179.42</ele>
        <time>2017-09-18T09:05:32Z</time>
      </trkpt>
      <trkpt lat="43.20994" lon="5.46771">
        <ele>180.38</ele>
        <time>2017-09-18T09:05:37Z</time>
      </trkpt>
      <trkpt lat="43.20996" lon="5.46771">
        <ele>183.27</ele>
        <time>2017-09-18T09:05:46Z</time>
      </trkpt>
      <trkpt lat="43.20997" lon="5.46772">
        <ele>185.19</ele>
        <time>2017-09-18T09:05:50Z</time>
      </trkpt>
      <trkpt lat="43.21001" lon="5.46771">
        <ele>188.08</ele>
        <time>2017-09-18T09:05:59Z</time>
      </trkpt>
      <trkpt lat="43.20999" lon="5.46768">
        <ele>189.52</ele>
        <time>2017-09-18T09:06:03Z</time>
      </trkpt>
      <trkpt lat="43.21003" lon="5.46763">
        <ele>192.88</ele>
        <time>2017-09-18T09:06:14Z</time>
      </trkpt>
      <trkpt lat="43.21003" lon="5.46763">
        <ele>192.88</ele>
        <time>2017-09-18T09:06:15Z</time>
      </trkpt>
      <trkpt lat="43.21005" lon="5.46761">
        <ele>192.4</ele>
        <time>2017-09-18T09:06:28Z</time>
      </trkpt>
      <trkpt lat="43.21005" lon="5.46761">
        <ele>195.28</ele>
        <time>2017-09-18T09:06:33Z</time>
      </trkpt>
      <trkpt lat="43.21006" lon="5.46761">
        <ele>193.36</ele>
        <time>2017-09-18T09:06:46Z</time>
      </trkpt>
      <trkpt lat="43.21006" lon="5.46761">
        <ele>192.88</ele>
        <time>2017-09-18T09:07:07Z</time>
      </trkpt>
      <trkpt lat="43.21006" lon="5.46761">
        <ele>194.32</ele>
        <time>2017-09-18T09:07:08Z</time>
      </trkpt>
      <trkpt lat="43.21006" lon="5.46761">
        <ele>166.93</ele>
        <time>2017-09-18T09:07:11Z</time>
      </trkpt>
      <trkpt lat="43.21006" lon="5.46761">
        <ele>201.05</ele>
        <time>2017-09-18T09:07:12Z</time>
      </trkpt>
      <trkpt lat="43.21006" lon="5.46761">
        <ele>188.56</ele>
        <time>2017-09-18T09:07:13Z</time>
      </trkpt>
      <trkpt lat="43.21006" lon="5.46761">
        <ele>191.44</ele>
        <time>2017-09-18T09:07:14Z</time>
      </trkpt>
      <trkpt lat="43.21006" lon="5.4676">
        <ele>197.21</ele>
        <time>2017-09-18T09:07:15Z</time>
      </trkpt>
      <trkpt lat="43.21006" lon="5.4676">
        <ele>202.01</ele>
        <time>2017-09-18T09:07:16Z</time>
      </trkpt>
      <trkpt lat="43.21006" lon="5.4676">
        <ele>200.09</ele>
        <time>2017-09-18T09:07:17Z</time>
      </trkpt>
      <trkpt lat="43.21006" lon="5.4676">
        <ele>195.28</ele>
        <time>2017-09-18T09:07:19Z</time>
      </trkpt>
      <trkpt lat="43.21007" lon="5.4676">
        <ele>193.84</ele>
        <time>2017-09-18T09:07:37Z</time>
      </trkpt>
      <trkpt lat="43.21007" lon="5.4676">
        <ele>193.36</ele>
        <time>2017-09-18T09:07:56Z</time>
      </trkpt>
      <trkpt lat="43.21007" lon="5.46759">
        <ele>195.77</ele>
        <time>2017-09-18T09:08:24Z</time>
      </trkpt>
      <trkpt lat="43.21011" lon="5.46757">
        <ele>195.77</ele>
        <time>2017-09-18T09:08:37Z</time>
      </trkpt>
      <trkpt lat="43.21011" lon="5.46758">
        <ele>197.69</ele>
        <time>2017-09-18T09:08:53Z</time>
      </trkpt>
      <trkpt lat="43.21011" lon="5.46761">
        <ele>198.17</ele>
        <time>2017-09-18T09:08:56Z</time>
      </trkpt>
      <trkpt lat="43.21015" lon="5.46757">
        <ele>200.09</ele>
        <time>2017-09-18T09:09:07Z</time>
      </trkpt>
      <trkpt lat="43.21016" lon="5.46758">
        <ele>201.53</ele>
        <time>2017-09-18T09:09:24Z</time>
      </trkpt>
      <trkpt lat="43.21017" lon="5.46761">
        <ele>202.49</ele>
        <time>2017-09-18T09:09:26Z</time>
      </trkpt>
      <trkpt lat="43.21017" lon="5.46763">
        <ele>203.46</ele>
        <time>2017-09-18T09:09:31Z</time>
      </trkpt>
      <trkpt lat="43.21015" lon="5.46766">
        <ele>204.42</ele>
        <time>2017-09-18T09:09:38Z</time>
      </trkpt>
      <trkpt lat="43.21015" lon="5.46766">
        <ele>206.34</ele>
        <time>2017-09-18T09:09:50Z</time>
      </trkpt>
      <trkpt lat="43.21015" lon="5.46767">
        <ele>207.78</ele>
        <time>2017-09-18T09:09:59Z</time>
      </trkpt>
      <trkpt lat="43.21015" lon="5.46767">
        <ele>210.19</ele>
        <time>2017-09-18T09:10:11Z</time>
      </trkpt>
      <trkpt lat="43.21015" lon="5.46769">
        <ele>211.15</ele>
        <time>2017-09-18T09:10:15Z</time>
      </trkpt>
      <trkpt lat="43.21016" lon="5.46771">
        <ele>212.59</ele>
        <time>2017-09-18T09:10:26Z</time>
      </trkpt>
      <trkpt lat="43.21016" lon="5.46771">
        <ele>214.03</ele>
        <time>2017-09-18T09:10:37Z</time>
      </trkpt>
      <trkpt lat="43.21016" lon="5.46771">
        <ele>216.43</ele>
        <time>2017-09-18T09:10:50Z</time>
      </trkpt>
      <trkpt lat="43.21016" lon="5.46771">
        <ele>217.88</ele>
        <time>2017-09-18T09:11:02Z</time>
      </trkpt>
      <trkpt lat="43.21016" lon="5.4677">
        <ele>219.32</ele>
        <time>2017-09-18T09:11:15Z</time>
      </trkpt>
      <trkpt lat="43.21015" lon="5.46772">
        <ele>220.76</ele>
        <time>2017-09-18T09:11:24Z</time>
      </trkpt>
      <trkpt lat="43.21015" lon="5.46772">
        <ele>221.72</ele>
        <time>2017-09-18T09:11:36Z</time>
      </trkpt>
      <trkpt lat="43.21017" lon="5.46771">
        <ele>222.68</ele>
        <time>2017-09-18T09:11:46Z</time>
      </trkpt>
      <trkpt lat="43.21017" lon="5.46771">
        <ele>224.12</ele>
        <time>2017-09-18T09:11:57Z</time>
      </trkpt>
      <trkpt lat="43.2102" lon="5.46771">
        <ele>225.57</ele>
        <time>2017-09-18T09:12:09Z</time>
      </trkpt>
      <trkpt lat="43.2102" lon="5.46771">
        <ele>227.49</ele>
        <time>2017-09-18T09:12:20Z</time>
      </trkpt>
      <trkpt lat="43.2102" lon="5.46771">
        <ele>229.89</ele>
        <time>2017-09-18T09:12:33Z</time>
      </trkpt>
      <trkpt lat="43.21032" lon="5.46774">
        <ele>231.33</ele>
        <time>2017-09-18T09:12:44Z</time>
      </trkpt>
      <trkpt lat="43.21047" lon="5.46789">
        <ele>233.74</ele>
        <time>2017-09-18T09:12:58Z</time>
      </trkpt>
      <trkpt lat="43.21052" lon="5.46797">
        <ele>235.66</ele>
        <time>2017-09-18T09:13:07Z</time>
      </trkpt>
      <trkpt lat="43.2106" lon="5.46797">
        <ele>237.1</ele>
        <time>2017-09-18T09:13:16Z</time>
      </trkpt>
      <trkpt lat="43.21066" lon="5.46793">
        <ele>239.02</ele>
        <time>2017-09-18T09:13:26Z</time>
      </trkpt>
      <trkpt lat="43.21067" lon="5.46792">
        <ele>241.91</ele>
        <time>2017-09-18T09:13:42Z</time>
      </trkpt>
      <trkpt lat="43.21068" lon="5.4679">
        <ele>243.35</ele>
        <time>2017-09-18T09:13:48Z</time>
      </trkpt>
      <trkpt lat="43.21068" lon="5.46789">
        <ele>244.31</ele>
        <time>2017-09-18T09:13:52Z</time>
      </trkpt>
      <trkpt lat="43.21069" lon="5.46786">
        <ele>244.31</ele>
        <time>2017-09-18T09:14:06Z</time>
      </trkpt>
      <trkpt lat="43.2107" lon="5.46778">
        <ele>245.27</ele>
        <time>2017-09-18T09:14:21Z</time>
      </trkpt>
      <trkpt lat="43.21063" lon="5.46768">
        <ele>244.79</ele>
        <time>2017-09-18T09:14:34Z</time>
      </trkpt>
      <trkpt lat="43.21063" lon="5.46766">
        <ele>244.79</ele>
        <time>2017-09-18T09:14:40Z</time>
      </trkpt>
      <trkpt lat="43.2106" lon="5.46756">
        <ele>241.91</ele>
        <time>2017-09-18T09:14:50Z</time>
      </trkpt>
      <trkpt lat="43.21055" lon="5.4675">
        <ele>238.54</ele>
        <time>2017-09-18T09:15:02Z</time>
      </trkpt>
      <trkpt lat="43.21055" lon="5.4675">
        <ele>238.06</ele>
        <time>2017-09-18T09:15:13Z</time>
      </trkpt>
      <trkpt lat="43.21055" lon="5.4674">
        <ele>239.02</ele>
        <time>2017-09-18T09:15:24Z</time>
      </trkpt>
      <trkpt lat="43.21059" lon="5.46738">
        <ele>240.95</ele>
        <time>2017-09-18T09:15:30Z</time>
      </trkpt>
      <trkpt lat="43.21058" lon="5.4673">
        <ele>243.83</ele>
        <time>2017-09-18T09:15:42Z</time>
      </trkpt>
      <trkpt lat="43.21054" lon="5.46724">
        <ele>243.83</ele>
        <time>2017-09-18T09:15:48Z</time>
      </trkpt>
      <trkpt lat="43.21051" lon="5.46721">
        <ele>244.31</ele>
        <time>2017-09-18T09:15:52Z</time>
      </trkpt>
      <trkpt lat="43.21049" lon="5.46713">
        <ele>247.2</ele>
        <time>2017-09-18T09:16:03Z</time>
      </trkpt>
      <trkpt lat="43.2105" lon="5.46712">
        <ele>247.68</ele>
        <time>2017-09-18T09:16:19Z</time>
      </trkpt>
      <trkpt lat="43.21049" lon="5.46703">
        <ele>250.56</ele>
        <time>2017-09-18T09:16:29Z</time>
      </trkpt>
      <trkpt lat="43.21048" lon="5.46696">
        <ele>252.48</ele>
        <time>2017-09-18T09:16:37Z</time>
      </trkpt>
      <trkpt lat="43.21049" lon="5.46691">
        <ele>255.37</ele>
        <time>2017-09-18T09:16:52Z</time>
      </trkpt>
      <trkpt lat="43.2105" lon="5.46689">
        <ele>257.77</ele>
        <time>2017-09-18T09:17:05Z</time>
      </trkpt>
      <trkpt lat="43.2105" lon="5.46689">
        <ele>258.25</ele>
        <time>2017-09-18T09:17:32Z</time>
      </trkpt>
      <trkpt lat="43.2105" lon="5.4669">
        <ele>257.77</ele>
        <time>2017-09-18T09:17:55Z</time>
      </trkpt>
      <trkpt lat="43.2105" lon="5.4669">
        <ele>257.29</ele>
        <time>2017-09-18T09:18:16Z</time>
      </trkpt>
      <trkpt lat="43.2105" lon="5.4669">
        <ele>254.89</ele>
        <time>2017-09-18T09:18:40Z</time>
      </trkpt>
      <trkpt lat="43.21051" lon="5.4669">
        <ele>258.73</ele>
        <time>2017-09-18T09:18:41Z</time>
      </trkpt>
      <trkpt lat="43.21051" lon="5.4669">
        <ele>257.29</ele>
        <time>2017-09-18T09:18:42Z</time>
      </trkpt>
      <trkpt lat="43.21051" lon="5.4669">
        <ele>258.73</ele>
        <time>2017-09-18T09:18:56Z</time>
      </trkpt>
      <trkpt lat="43.21051" lon="5.4669">
        <ele>257.77</ele>
        <time>2017-09-18T09:18:59Z</time>
      </trkpt>
      <trkpt lat="43.21053" lon="5.46691">
        <ele>259.21</ele>
        <time>2017-09-18T09:19:04Z</time>
      </trkpt>
      <trkpt lat="43.21057" lon="5.46693">
        <ele>262.58</ele>
        <time>2017-09-18T09:19:15Z</time>
      </trkpt>
      <trkpt lat="43.21057" lon="5.46694">
        <ele>262.58</ele>
        <time>2017-09-18T09:19:18Z</time>
      </trkpt>
      <trkpt lat="43.2106" lon="5.46693">
        <ele>264.98</ele>
        <time>2017-09-18T09:19:27Z</time>
      </trkpt>
      <trkpt lat="43.21061" lon="5.46694">
        <ele>267.38</ele>
        <time>2017-09-18T09:19:40Z</time>
      </trkpt>
      <trkpt lat="43.21062" lon="5.46696">
        <ele>269.31</ele>
        <time>2017-09-18T09:19:49Z</time>
      </trkpt>
      <trkpt lat="43.21063" lon="5.46703">
        <ele>270.27</ele>
        <time>2017-09-18T09:19:56Z</time>
      </trkpt>
      <trkpt lat="43.21071" lon="5.46704">
        <ele>271.71</ele>
        <time>2017-09-18T09:20:08Z</time>
      </trkpt>
      <trkpt lat="43.21077" lon="5.46703">
        <ele>272.67</ele>
        <time>2017-09-18T09:20:17Z</time>
      </trkpt>
      <trkpt lat="43.21079" lon="5.46697">
        <ele>275.07</ele>
        <time>2017-09-18T09:20:27Z</time>
      </trkpt>
      <trkpt lat="43.21075" lon="5.46691">
        <ele>276.04</ele>
        <time>2017-09-18T09:20:38Z</time>
      </trkpt>
      <trkpt lat="43.21079" lon="5.46686">
        <ele>278.44</ele>
        <time>2017-09-18T09:20:48Z</time>
      </trkpt>
      <trkpt lat="43.21081" lon="5.46683">
        <ele>281.32</ele>
        <time>2017-09-18T09:21:00Z</time>
      </trkpt>
      <trkpt lat="43.21081" lon="5.46678">
        <ele>283.25</ele>
        <time>2017-09-18T09:21:10Z</time>
      </trkpt>
      <trkpt lat="43.21083" lon="5.46675">
        <ele>285.17</ele>
        <time>2017-09-18T09:21:22Z</time>
      </trkpt>
      <trkpt lat="43.21083" lon="5.46675">
        <ele>285.65</ele>
        <time>2017-09-18T09:21:25Z</time>
      </trkpt>
      <trkpt lat="43.21085" lon="5.46669">
        <ele>288.05</ele>
        <time>2017-09-18T09:21:36Z</time>
      </trkpt>
      <trkpt lat="43.21087" lon="5.46663">
        <ele>290.94</ele>
        <time>2017-09-18T09:21:49Z</time>
      </trkpt>
      <trkpt lat="43.21087" lon="5.46662">
        <ele>290.94</ele>
        <time>2017-09-18T09:21:50Z</time>
      </trkpt>
      <trkpt lat="43.21089" lon="5.46654">
        <ele>293.34</ele>
        <time>2017-09-18T09:22:00Z</time>
      </trkpt>
      <trkpt lat="43.21091" lon="5.46652">
        <ele>294.3</ele>
        <time>2017-09-18T09:22:05Z</time>
      </trkpt>
      <trkpt lat="43.21094" lon="5.46646">
        <ele>297.18</ele>
        <time>2017-09-18T09:22:17Z</time>
      </trkpt>
      <trkpt lat="43.21098" lon="5.46636">
        <ele>298.15</ele>
        <time>2017-09-18T09:22:27Z</time>
      </trkpt>
      <trkpt lat="43.21098" lon="5.46636">
        <ele>297.67</ele>
        <time>2017-09-18T09:22:52Z</time>
      </trkpt>
      <trkpt lat="43.21097" lon="5.46636">
        <ele>298.15</ele>
        <time>2017-09-18T09:23:05Z</time>
      </trkpt>
      <trkpt lat="43.21102" lon="5.46628">
        <ele>300.07</ele>
        <time>2017-09-18T09:23:16Z</time>
      </trkpt>
      <trkpt lat="43.21105" lon="5.46625">
        <ele>300.55</ele>
        <time>2017-09-18T09:23:29Z</time>
      </trkpt>
      <trkpt lat="43.21106" lon="5.46625">
        <ele>300.55</ele>
        <time>2017-09-18T09:23:30Z</time>
      </trkpt>
      <trkpt lat="43.21111" lon="5.46616">
        <ele>303.43</ele>
        <time>2017-09-18T09:23:43Z</time>
      </trkpt>
      <trkpt lat="43.21115" lon="5.46606">
        <ele>304.39</ele>
        <time>2017-09-18T09:23:52Z</time>
      </trkpt>
      <trkpt lat="43.21117" lon="5.46596">
        <ele>305.84</ele>
        <time>2017-09-18T09:24:02Z</time>
      </trkpt>
      <trkpt lat="43.21117" lon="5.46595">
        <ele>305.84</ele>
        <time>2017-09-18T09:24:03Z</time>
      </trkpt>
      <trkpt lat="43.2112" lon="5.46591">
        <ele>307.76</ele>
        <time>2017-09-18T09:24:09Z</time>
      </trkpt>
      <trkpt lat="43.21122" lon="5.46586">
        <ele>308.24</ele>
        <time>2017-09-18T09:24:15Z</time>
      </trkpt>
      <trkpt lat="43.21127" lon="5.46578">
        <ele>309.68</ele>
        <time>2017-09-18T09:24:27Z</time>
      </trkpt>
      <trkpt lat="43.2113" lon="5.46576">
        <ele>309.68</ele>
        <time>2017-09-18T09:24:32Z</time>
      </trkpt>
      <trkpt lat="43.21138" lon="5.46575">
        <ele>312.57</ele>
        <time>2017-09-18T09:24:46Z</time>
      </trkpt>
      <trkpt lat="43.21139" lon="5.46575">
        <ele>314.01</ele>
        <time>2017-09-18T09:24:51Z</time>
      </trkpt>
      <trkpt lat="43.21139" lon="5.46576">
        <ele>314.97</ele>
        <time>2017-09-18T09:24:55Z</time>
      </trkpt>
      <trkpt lat="43.2114" lon="5.46577">
        <ele>316.41</ele>
        <time>2017-09-18T09:24:59Z</time>
      </trkpt>
      <trkpt lat="43.21142" lon="5.46573">
        <ele>316.89</ele>
        <time>2017-09-18T09:25:11Z</time>
      </trkpt>
      <trkpt lat="43.21147" lon="5.46572">
        <ele>319.3</ele>
        <time>2017-09-18T09:25:21Z</time>
      </trkpt>
      <trkpt lat="43.21154" lon="5.46563">
        <ele>319.3</ele>
        <time>2017-09-18T09:25:33Z</time>
      </trkpt>
      <trkpt lat="43.21162" lon="5.46557">
        <ele>321.22</ele>
        <time>2017-09-18T09:25:42Z</time>
      </trkpt>
      <trkpt lat="43.21166" lon="5.4655">
        <ele>321.7</ele>
        <time>2017-09-18T09:25:51Z</time>
      </trkpt>
      <trkpt lat="43.21174" lon="5.46542">
        <ele>321.22</ele>
        <time>2017-09-18T09:26:01Z</time>
      </trkpt>
      <trkpt lat="43.21178" lon="5.46537">
        <ele>323.62</ele>
        <time>2017-09-18T09:26:08Z</time>
      </trkpt>
      <trkpt lat="43.21182" lon="5.46524">
        <ele>323.62</ele>
        <time>2017-09-18T09:26:19Z</time>
      </trkpt>
      <trkpt lat="43.21186" lon="5.46513">
        <ele>325.54</ele>
        <time>2017-09-18T09:26:29Z</time>
      </trkpt>
      <trkpt lat="43.2119" lon="5.46504">
        <ele>326.99</ele>
        <time>2017-09-18T09:26:39Z</time>
      </trkpt>
      <trkpt lat="43.21194" lon="5.46496">
        <ele>328.91</ele>
        <time>2017-09-18T09:26:48Z</time>
      </trkpt>
      <trkpt lat="43.21198" lon="5.46495">
        <ele>329.39</ele>
        <time>2017-09-18T09:26:51Z</time>
      </trkpt>
      <trkpt lat="43.212" lon="5.46492">
        <ele>329.87</ele>
        <time>2017-09-18T09:27:08Z</time>
      </trkpt>
      <trkpt lat="43.21189" lon="5.46491">
        <ele>328.91</ele>
        <time>2017-09-18T09:27:20Z</time>
      </trkpt>
      <trkpt lat="43.21189" lon="5.46492">
        <ele>328.43</ele>
        <time>2017-09-18T09:27:41Z</time>
      </trkpt>
      <trkpt lat="43.21187" lon="5.46489">
        <ele>328.91</ele>
        <time>2017-09-18T09:27:58Z</time>
      </trkpt>
      <trkpt lat="43.21187" lon="5.46488">
        <ele>328.43</ele>
        <time>2017-09-18T09:28:11Z</time>
      </trkpt>
      <trkpt lat="43.21188" lon="5.46488">
        <ele>327.95</ele>
        <time>2017-09-18T09:28:24Z</time>
      </trkpt>
      <trkpt lat="43.21186" lon="5.46488">
        <ele>327.47</ele>
        <time>2017-09-18T09:28:36Z</time>
      </trkpt>
      <trkpt lat="43.21187" lon="5.46488">
        <ele>327.95</ele>
        <time>2017-09-18T09:28:54Z</time>
      </trkpt>
      <trkpt lat="43.21186" lon="5.46487">
        <ele>327.47</ele>
        <time>2017-09-18T09:29:14Z</time>
      </trkpt>
      <trkpt lat="43.21188" lon="5.46486">
        <ele>328.43</ele>
        <time>2017-09-18T09:29:21Z</time>
      </trkpt>
      <trkpt lat="43.2119" lon="5.46482">
        <ele>327.47</ele>
        <time>2017-09-18T09:29:32Z</time>
      </trkpt>
      <trkpt lat="43.2119" lon="5.46483">
        <ele>327.95</ele>
        <time>2017-09-18T09:29:33Z</time>
      </trkpt>
      <trkpt lat="43.21199" lon="5.46486">
        <ele>330.35</ele>
        <time>2017-09-18T09:29:44Z</time>
      </trkpt>
      <trkpt lat="43.21204" lon="5.46484">
        <ele>328.91</ele>
        <time>2017-09-18T09:29:54Z</time>
      </trkpt>
      <trkpt lat="43.21205" lon="5.46483">
        <ele>327.95</ele>
        <time>2017-09-18T09:29:59Z</time>
      </trkpt>
      <trkpt lat="43.21204" lon="5.46482">
        <ele>327.95</ele>
        <time>2017-09-18T09:30:01Z</time>
      </trkpt>
      <trkpt lat="43.21201" lon="5.46477">
        <ele>326.99</ele>
        <time>2017-09-18T09:30:07Z</time>
      </trkpt>
      <trkpt lat="43.21205" lon="5.4647">
        <ele>324.1</ele>
        <time>2017-09-18T09:30:17Z</time>
      </trkpt>
      <trkpt lat="43.21203" lon="5.46467">
        <ele>323.14</ele>
        <time>2017-09-18T09:30:27Z</time>
      </trkpt>
      <trkpt lat="43.21202" lon="5.46467">
        <ele>322.66</ele>
        <time>2017-09-18T09:30:45Z</time>
      </trkpt>
      <trkpt lat="43.21201" lon="5.46466">
        <ele>321.22</ele>
        <time>2017-09-18T09:31:04Z</time>
      </trkpt>
      <trkpt lat="43.21201" lon="5.46466">
        <ele>321.22</ele>
        <time>2017-09-18T09:31:05Z</time>
      </trkpt>
      <trkpt lat="43.21197" lon="5.46465">
        <ele>319.78</ele>
        <time>2017-09-18T09:31:15Z</time>
      </trkpt>
      <trkpt lat="43.21199" lon="5.46461">
        <ele>317.37</ele>
        <time>2017-09-18T09:31:26Z</time>
      </trkpt>
      <trkpt lat="43.21205" lon="5.46457">
        <ele>315.45</ele>
        <time>2017-09-18T09:31:36Z</time>
      </trkpt>
      <trkpt lat="43.21208" lon="5.46451">
        <ele>313.05</ele>
        <time>2017-09-18T09:31:47Z</time>
      </trkpt>
      <trkpt lat="43.21209" lon="5.4645">
        <ele>309.68</ele>
        <time>2017-09-18T09:31:55Z</time>
      </trkpt>
      <trkpt lat="43.2121" lon="5.46448">
        <ele>310.16</ele>
        <time>2017-09-18T09:32:14Z</time>
      </trkpt>
      <trkpt lat="43.21211" lon="5.46446">
        <ele>308.72</ele>
        <time>2017-09-18T09:32:26Z</time>
      </trkpt>
      <trkpt lat="43.21211" lon="5.46446">
        <ele>309.2</ele>
        <time>2017-09-18T09:32:27Z</time>
      </trkpt>
      <trkpt lat="43.21209" lon="5.46442">
        <ele>307.76</ele>
        <time>2017-09-18T09:32:34Z</time>
      </trkpt>
      <trkpt lat="43.21211" lon="5.46438">
        <ele>305.36</ele>
        <time>2017-09-18T09:32:43Z</time>
      </trkpt>
      <trkpt lat="43.21215" lon="5.46435">
        <ele>303.91</ele>
        <time>2017-09-18T09:32:49Z</time>
      </trkpt>
      <trkpt lat="43.21215" lon="5.46434">
        <ele>303.43</ele>
        <time>2017-09-18T09:32:55Z</time>
      </trkpt>
      <trkpt lat="43.21217" lon="5.46428">
        <ele>301.99</ele>
        <time>2017-09-18T09:33:00Z</time>
      </trkpt>
      <trkpt lat="43.21221" lon="5.46429">
        <ele>301.51</ele>
        <time>2017-09-18T09:33:03Z</time>
      </trkpt>
      <trkpt lat="43.21226" lon="5.46429">
        <ele>301.03</ele>
        <time>2017-09-18T09:33:07Z</time>
      </trkpt>
      <trkpt lat="43.21232" lon="5.46424">
        <ele>301.99</ele>
        <time>2017-09-18T09:33:20Z</time>
      </trkpt>
      <trkpt lat="43.21233" lon="5.46427">
        <ele>303.43</ele>
        <time>2017-09-18T09:33:26Z</time>
      </trkpt>
      <trkpt lat="43.21236" lon="5.46429">
        <ele>301.99</ele>
        <time>2017-09-18T09:33:36Z</time>
      </trkpt>
      <trkpt lat="43.21238" lon="5.46432">
        <ele>301.99</ele>
        <time>2017-09-18T09:33:51Z</time>
      </trkpt>
      <trkpt lat="43.21239" lon="5.46433">
        <ele>300.07</ele>
        <time>2017-09-18T09:33:58Z</time>
      </trkpt>
      <trkpt lat="43.21239" lon="5.46433">
        <ele>300.55</ele>
        <time>2017-09-18T09:34:19Z</time>
      </trkpt>
      <trkpt lat="43.21242" lon="5.46439">
        <ele>299.59</ele>
        <time>2017-09-18T09:34:29Z</time>
      </trkpt>
      <trkpt lat="43.21237" lon="5.46439">
        <ele>301.03</ele>
        <time>2017-09-18T09:34:40Z</time>
      </trkpt>
      <trkpt lat="43.21239" lon="5.46445">
        <ele>302.95</ele>
        <time>2017-09-18T09:34:52Z</time>
      </trkpt>
      <trkpt lat="43.2124" lon="5.46451">
        <ele>304.88</ele>
        <time>2017-09-18T09:34:58Z</time>
      </trkpt>
      <trkpt lat="43.21244" lon="5.4646">
        <ele>307.76</ele>
        <time>2017-09-18T09:35:13Z</time>
      </trkpt>
      <trkpt lat="43.21244" lon="5.46468">
        <ele>309.68</ele>
        <time>2017-09-18T09:35:25Z</time>
      </trkpt>
      <trkpt lat="43.21242" lon="5.46475">
        <ele>311.6</ele>
        <time>2017-09-18T09:35:40Z</time>
      </trkpt>
      <trkpt lat="43.2124" lon="5.4648">
        <ele>314.49</ele>
        <time>2017-09-18T09:35:48Z</time>
      </trkpt>
      <trkpt lat="43.21238" lon="5.46485">
        <ele>315.45</ele>
        <time>2017-09-18T09:35:57Z</time>
      </trkpt>
      <trkpt lat="43.21238" lon="5.46488">
        <ele>317.37</ele>
        <time>2017-09-18T09:36:14Z</time>
      </trkpt>
      <trkpt lat="43.21237" lon="5.46489">
        <ele>316.89</ele>
        <time>2017-09-18T09:36:38Z</time>
      </trkpt>
      <trkpt lat="43.21237" lon="5.46489">
        <ele>316.89</ele>
        <time>2017-09-18T09:37:02Z</time>
      </trkpt>
      <trkpt lat="43.2124" lon="5.46489">
        <ele>317.37</ele>
        <time>2017-09-18T09:37:25Z</time>
      </trkpt>
      <trkpt lat="43.2124" lon="5.4649">
        <ele>318.33</ele>
        <time>2017-09-18T09:37:30Z</time>
      </trkpt>
      <trkpt lat="43.21244" lon="5.46494">
        <ele>320.74</ele>
        <time>2017-09-18T09:37:46Z</time>
      </trkpt>
      <trkpt lat="43.2124" lon="5.46501">
        <ele>322.18</ele>
        <time>2017-09-18T09:38:03Z</time>
      </trkpt>
      <trkpt lat="43.21236" lon="5.46499">
        <ele>322.18</ele>
        <time>2017-09-18T09:38:21Z</time>
      </trkpt>
      <trkpt lat="43.21236" lon="5.465">
        <ele>322.18</ele>
        <time>2017-09-18T09:38:22Z</time>
      </trkpt>
      <trkpt lat="43.21233" lon="5.46501">
        <ele>320.74</ele>
        <time>2017-09-18T09:38:30Z</time>
      </trkpt>
      <trkpt lat="43.21232" lon="5.46502">
        <ele>321.7</ele>
        <time>2017-09-18T09:38:31Z</time>
      </trkpt>
      <trkpt lat="43.21232" lon="5.46502">
        <ele>324.1</ele>
        <time>2017-09-18T09:38:32Z</time>
      </trkpt>
      <trkpt lat="43.21231" lon="5.46501">
        <ele>323.62</ele>
        <time>2017-09-18T09:38:53Z</time>
      </trkpt>
      <trkpt lat="43.2123" lon="5.46503">
        <ele>324.58</ele>
        <time>2017-09-18T09:38:57Z</time>
      </trkpt>
      <trkpt lat="43.21225" lon="5.46503">
        <ele>325.54</ele>
        <time>2017-09-18T09:39:07Z</time>
      </trkpt>
      <trkpt lat="43.21224" lon="5.46504">
        <ele>324.58</ele>
        <time>2017-09-18T09:39:24Z</time>
      </trkpt>
      <trkpt lat="43.21224" lon="5.46504">
        <ele>326.5</ele>
        <time>2017-09-18T09:39:25Z</time>
      </trkpt>
      <trkpt lat="43.21224" lon="5.46504">
        <ele>324.58</ele>
        <time>2017-09-18T09:39:46Z</time>
      </trkpt>
      <trkpt lat="43.21224" lon="5.46504">
        <ele>327.47</ele>
        <time>2017-09-18T09:39:47Z</time>
      </trkpt>
      <trkpt lat="43.21216" lon="5.46504">
        <ele>327.95</ele>
        <time>2017-09-18T09:40:09Z</time>
      </trkpt>
      <trkpt lat="43.21223" lon="5.46505">
        <ele>327.47</ele>
        <time>2017-09-18T09:40:34Z</time>
      </trkpt>
      <trkpt lat="43.21225" lon="5.46504">
        <ele>327.95</ele>
        <time>2017-09-18T09:40:40Z</time>
      </trkpt>
      <trkpt lat="43.2122" lon="5.46505">
        <ele>328.91</ele>
        <time>2017-09-18T09:40:42Z</time>
      </trkpt>
      <trkpt lat="43.21217" lon="5.46505">
        <ele>328.43</ele>
        <time>2017-09-18T09:40:44Z</time>
      </trkpt>
      <trkpt lat="43.21209" lon="5.46494">
        <ele>328.91</ele>
        <time>2017-09-18T09:40:49Z</time>
      </trkpt>
      <trkpt lat="43.21204" lon="5.46494">
        <ele>328.43</ele>
        <time>2017-09-18T09:41:03Z</time>
      </trkpt>
      <trkpt lat="43.21236" lon="5.46494">
        <ele>328.91</ele>
        <time>2017-09-18T09:41:20Z</time>
      </trkpt>
      <trkpt lat="43.21236" lon="5.46501">
        <ele>327.95</ele>
        <time>2017-09-18T09:41:39Z</time>
      </trkpt>
      <trkpt lat="43.21241" lon="5.46493">
        <ele>328.43</ele>
        <time>2017-09-18T09:41:44Z</time>
      </trkpt>
      <trkpt lat="43.21243" lon="5.46485">
        <ele>329.87</ele>
        <time>2017-09-18T09:41:57Z</time>
      </trkpt>
      <trkpt lat="43.21248" lon="5.46472">
        <ele>331.31</ele>
        <time>2017-09-18T09:42:05Z</time>
      </trkpt>
      <trkpt lat="43.21247" lon="5.46464">
        <ele>331.79</ele>
        <time>2017-09-18T09:42:19Z</time>
      </trkpt>
      <trkpt lat="43.21253" lon="5.46465">
        <ele>331.31</ele>
        <time>2017-09-18T09:42:36Z</time>
      </trkpt>
      <trkpt lat="43.21252" lon="5.46466">
        <ele>331.79</ele>
        <time>2017-09-18T09:42:53Z</time>
      </trkpt>
      <trkpt lat="43.21252" lon="5.46466">
        <ele>331.31</ele>
        <time>2017-09-18T09:43:23Z</time>
      </trkpt>
      <trkpt lat="43.21252" lon="5.46466">
        <ele>331.79</ele>
        <time>2017-09-18T09:43:50Z</time>
      </trkpt>
      <trkpt lat="43.21252" lon="5.46468">
        <ele>331.79</ele>
        <time>2017-09-18T09:44:15Z</time>
      </trkpt>
      <trkpt lat="43.21254" lon="5.46471">
        <ele>331.31</ele>
        <time>2017-09-18T09:44:31Z</time>
      </trkpt>
      <trkpt lat="43.21255" lon="5.46474">
        <ele>331.31</ele>
        <time>2017-09-18T09:44:56Z</time>
      </trkpt>
      <trkpt lat="43.21257" lon="5.46474">
        <ele>329.39</ele>
        <time>2017-09-18T09:45:02Z</time>
      </trkpt>
      <trkpt lat="43.21271" lon="5.46442">
        <ele>331.79</ele>
        <time>2017-09-18T10:08:19Z</time>
      </trkpt>
      <trkpt lat="43.2127" lon="5.46442">
        <ele>331.79</ele>
        <time>2017-09-18T10:08:20Z</time>
      </trkpt>
      <trkpt lat="43.21263" lon="5.46463">
        <ele>334.2</ele>
        <time>2017-09-18T10:08:35Z</time>
      </trkpt>
      <trkpt lat="43.21265" lon="5.46466">
        <ele>335.16</ele>
        <time>2017-09-18T10:08:37Z</time>
      </trkpt>
      <trkpt lat="43.21268" lon="5.46468">
        <ele>337.56</ele>
        <time>2017-09-18T10:08:49Z</time>
      </trkpt>
      <trkpt lat="43.21272" lon="5.46469">
        <ele>339.96</ele>
        <time>2017-09-18T10:08:59Z</time>
      </trkpt>
      <trkpt lat="43.21275" lon="5.46474">
        <ele>341.89</ele>
        <time>2017-09-18T10:09:13Z</time>
      </trkpt>
      <trkpt lat="43.21275" lon="5.46478">
        <ele>345.25</ele>
        <time>2017-09-18T10:09:20Z</time>
      </trkpt>
      <trkpt lat="43.21275" lon="5.46486">
        <ele>348.13</ele>
        <time>2017-09-18T10:09:32Z</time>
      </trkpt>
      <trkpt lat="43.21276" lon="5.46487">
        <ele>349.58</ele>
        <time>2017-09-18T10:09:44Z</time>
      </trkpt>
      <trkpt lat="43.21272" lon="5.4649">
        <ele>351.02</ele>
        <time>2017-09-18T10:10:02Z</time>
      </trkpt>
      <trkpt lat="43.21272" lon="5.46491">
        <ele>351.98</ele>
        <time>2017-09-18T10:10:16Z</time>
      </trkpt>
      <trkpt lat="43.21271" lon="5.46491">
        <ele>353.42</ele>
        <time>2017-09-18T10:10:35Z</time>
      </trkpt>
      <trkpt lat="43.21271" lon="5.46491">
        <ele>354.86</ele>
        <time>2017-09-18T10:10:44Z</time>
      </trkpt>
      <trkpt lat="43.21268" lon="5.46492">
        <ele>356.31</ele>
        <time>2017-09-18T10:10:57Z</time>
      </trkpt>
      <trkpt lat="43.2127" lon="5.46495">
        <ele>357.75</ele>
        <time>2017-09-18T10:11:06Z</time>
      </trkpt>
      <trkpt lat="43.21271" lon="5.46496">
        <ele>358.23</ele>
        <time>2017-09-18T10:11:14Z</time>
      </trkpt>
      <trkpt lat="43.21277" lon="5.46497">
        <ele>360.15</ele>
        <time>2017-09-18T10:11:23Z</time>
      </trkpt>
      <trkpt lat="43.2128" lon="5.46495">
        <ele>361.59</ele>
        <time>2017-09-18T10:11:27Z</time>
      </trkpt>
      <trkpt lat="43.21283" lon="5.46496">
        <ele>364</ele>
        <time>2017-09-18T10:11:36Z</time>
      </trkpt>
      <trkpt lat="43.21286" lon="5.46495">
        <ele>365.92</ele>
        <time>2017-09-18T10:11:42Z</time>
      </trkpt>
      <trkpt lat="43.21289" lon="5.46494">
        <ele>367.36</ele>
        <time>2017-09-18T10:11:45Z</time>
      </trkpt>
      <trkpt lat="43.21297" lon="5.4649">
        <ele>369.28</ele>
        <time>2017-09-18T10:11:56Z</time>
      </trkpt>
      <trkpt lat="43.21304" lon="5.46489">
        <ele>371.69</ele>
        <time>2017-09-18T10:12:06Z</time>
      </trkpt>
      <trkpt lat="43.21306" lon="5.46488">
        <ele>372.65</ele>
        <time>2017-09-18T10:12:09Z</time>
      </trkpt>
      <trkpt lat="43.21309" lon="5.46491">
        <ele>373.61</ele>
        <time>2017-09-18T10:12:13Z</time>
      </trkpt>
      <trkpt lat="43.21315" lon="5.46489">
        <ele>375.53</ele>
        <time>2017-09-18T10:12:18Z</time>
      </trkpt>
      <trkpt lat="43.21318" lon="5.46485">
        <ele>375.53</ele>
        <time>2017-09-18T10:12:32Z</time>
      </trkpt>
      <trkpt lat="43.21323" lon="5.46482">
        <ele>376.49</ele>
        <time>2017-09-18T10:12:44Z</time>
      </trkpt>
      <trkpt lat="43.21328" lon="5.46479">
        <ele>377.45</ele>
        <time>2017-09-18T10:12:48Z</time>
      </trkpt>
      <trkpt lat="43.21337" lon="5.46471">
        <ele>378.42</ele>
        <time>2017-09-18T10:13:01Z</time>
      </trkpt>
      <trkpt lat="43.21339" lon="5.46468">
        <ele>378.9</ele>
        <time>2017-09-18T10:13:14Z</time>
      </trkpt>
      <trkpt lat="43.2134" lon="5.46467">
        <ele>378.9</ele>
        <time>2017-09-18T10:13:30Z</time>
      </trkpt>
      <trkpt lat="43.21341" lon="5.46464">
        <ele>379.38</ele>
        <time>2017-09-18T10:13:43Z</time>
      </trkpt>
      <trkpt lat="43.21347" lon="5.46459">
        <ele>380.82</ele>
        <time>2017-09-18T10:13:52Z</time>
      </trkpt>
      <trkpt lat="43.2135" lon="5.46461">
        <ele>379.86</ele>
        <time>2017-09-18T10:13:55Z</time>
      </trkpt>
      <trkpt lat="43.21356" lon="5.46469">
        <ele>379.38</ele>
        <time>2017-09-18T10:14:03Z</time>
      </trkpt>
      <trkpt lat="43.21361" lon="5.46472">
        <ele>378.42</ele>
        <time>2017-09-18T10:14:14Z</time>
      </trkpt>
      <trkpt lat="43.21364" lon="5.46473">
        <ele>378.42</ele>
        <time>2017-09-18T10:14:21Z</time>
      </trkpt>
      <trkpt lat="43.21375" lon="5.46476">
        <ele>376.01</ele>
        <time>2017-09-18T10:14:34Z</time>
      </trkpt>
      <trkpt lat="43.21385" lon="5.46481">
        <ele>375.53</ele>
        <time>2017-09-18T10:14:45Z</time>
      </trkpt>
      <trkpt lat="43.21386" lon="5.46483">
        <ele>376.49</ele>
        <time>2017-09-18T10:14:53Z</time>
      </trkpt>
      <trkpt lat="43.21399" lon="5.46487">
        <ele>376.49</ele>
        <time>2017-09-18T10:15:05Z</time>
      </trkpt>
      <trkpt lat="43.21405" lon="5.46489">
        <ele>376.01</ele>
        <time>2017-09-18T10:15:09Z</time>
      </trkpt>
      <trkpt lat="43.21417" lon="5.46487">
        <ele>376.01</ele>
        <time>2017-09-18T10:15:20Z</time>
      </trkpt>
      <trkpt lat="43.21427" lon="5.46487">
        <ele>377.45</ele>
        <time>2017-09-18T10:15:28Z</time>
      </trkpt>
      <trkpt lat="43.21433" lon="5.46484">
        <ele>376.97</ele>
        <time>2017-09-18T10:15:40Z</time>
      </trkpt>
      <trkpt lat="43.21435" lon="5.46482">
        <ele>375.05</ele>
        <time>2017-09-18T10:15:45Z</time>
      </trkpt>
      <trkpt lat="43.21438" lon="5.4648">
        <ele>375.53</ele>
        <time>2017-09-18T10:15:49Z</time>
      </trkpt>
      <trkpt lat="43.21446" lon="5.46479">
        <ele>375.53</ele>
        <time>2017-09-18T10:15:57Z</time>
      </trkpt>
      <trkpt lat="43.21457" lon="5.4647">
        <ele>375.05</ele>
        <time>2017-09-18T10:16:06Z</time>
      </trkpt>
      <trkpt lat="43.21461" lon="5.46467">
        <ele>373.61</ele>
        <time>2017-09-18T10:16:11Z</time>
      </trkpt>
      <trkpt lat="43.21466" lon="5.4646">
        <ele>372.17</ele>
        <time>2017-09-18T10:16:19Z</time>
      </trkpt>
      <trkpt lat="43.21468" lon="5.46456">
        <ele>370.73</ele>
        <time>2017-09-18T10:16:22Z</time>
      </trkpt>
      <trkpt lat="43.21467" lon="5.46446">
        <ele>370.73</ele>
        <time>2017-09-18T10:16:32Z</time>
      </trkpt>
      <trkpt lat="43.21459" lon="5.46435">
        <ele>368.32</ele>
        <time>2017-09-18T10:16:45Z</time>
      </trkpt>
      <trkpt lat="43.21455" lon="5.46432">
        <ele>367.36</ele>
        <time>2017-09-18T10:16:50Z</time>
      </trkpt>
      <trkpt lat="43.21451" lon="5.46427">
        <ele>366.88</ele>
        <time>2017-09-18T10:16:54Z</time>
      </trkpt>
      <trkpt lat="43.21447" lon="5.46417">
        <ele>365.92</ele>
        <time>2017-09-18T10:17:02Z</time>
      </trkpt>
      <trkpt lat="43.21446" lon="5.46411">
        <ele>365.92</ele>
        <time>2017-09-18T10:17:05Z</time>
      </trkpt>
      <trkpt lat="43.21445" lon="5.46406">
        <ele>365.92</ele>
        <time>2017-09-18T10:17:09Z</time>
      </trkpt>
      <trkpt lat="43.21447" lon="5.46394">
        <ele>365.44</ele>
        <time>2017-09-18T10:17:17Z</time>
      </trkpt>
      <trkpt lat="43.21449" lon="5.4639">
        <ele>365.44</ele>
        <time>2017-09-18T10:17:20Z</time>
      </trkpt>
      <trkpt lat="43.21452" lon="5.46383">
        <ele>364.96</ele>
        <time>2017-09-18T10:17:27Z</time>
      </trkpt>
      <trkpt lat="43.21455" lon="5.46369">
        <ele>362.55</ele>
        <time>2017-09-18T10:17:37Z</time>
      </trkpt>
      <trkpt lat="43.21459" lon="5.46364">
        <ele>362.55</ele>
        <time>2017-09-18T10:17:40Z</time>
      </trkpt>
      <trkpt lat="43.21463" lon="5.46357">
        <ele>361.11</ele>
        <time>2017-09-18T10:17:46Z</time>
      </trkpt>
      <trkpt lat="43.21466" lon="5.46352">
        <ele>360.63</ele>
        <time>2017-09-18T10:17:49Z</time>
      </trkpt>
      <trkpt lat="43.21473" lon="5.4634">
        <ele>360.15</ele>
        <time>2017-09-18T10:17:58Z</time>
      </trkpt>
      <trkpt lat="43.21469" lon="5.46332">
        <ele>359.67</ele>
        <time>2017-09-18T10:18:05Z</time>
      </trkpt>
      <trkpt lat="43.21466" lon="5.46332">
        <ele>359.19</ele>
        <time>2017-09-18T10:18:07Z</time>
      </trkpt>
      <trkpt lat="43.21458" lon="5.46324">
        <ele>357.27</ele>
        <time>2017-09-18T10:18:17Z</time>
      </trkpt>
      <trkpt lat="43.21454" lon="5.46318">
        <ele>357.27</ele>
        <time>2017-09-18T10:18:22Z</time>
      </trkpt>
      <trkpt lat="43.21448" lon="5.46309">
        <ele>356.31</ele>
        <time>2017-09-18T10:18:30Z</time>
      </trkpt>
      <trkpt lat="43.21444" lon="5.46299">
        <ele>355.34</ele>
        <time>2017-09-18T10:18:47Z</time>
      </trkpt>
      <trkpt lat="43.21444" lon="5.46299">
        <ele>355.34</ele>
        <time>2017-09-18T10:18:52Z</time>
      </trkpt>
      <trkpt lat="43.21443" lon="5.46291">
        <ele>355.34</ele>
        <time>2017-09-18T10:18:58Z</time>
      </trkpt>
      <trkpt lat="43.21442" lon="5.46284">
        <ele>354.86</ele>
        <time>2017-09-18T10:19:05Z</time>
      </trkpt>
      <trkpt lat="43.21441" lon="5.4628">
        <ele>354.38</ele>
        <time>2017-09-18T10:19:08Z</time>
      </trkpt>
      <trkpt lat="43.2144" lon="5.46269">
        <ele>353.42</ele>
        <time>2017-09-18T10:19:16Z</time>
      </trkpt>
      <trkpt lat="43.21439" lon="5.46266">
        <ele>353.42</ele>
        <time>2017-09-18T10:19:18Z</time>
      </trkpt>
      <trkpt lat="43.21439" lon="5.4625">
        <ele>351.98</ele>
        <time>2017-09-18T10:19:28Z</time>
      </trkpt>
      <trkpt lat="43.21439" lon="5.46228">
        <ele>351.02</ele>
        <time>2017-09-18T10:19:40Z</time>
      </trkpt>
      <trkpt lat="43.21441" lon="5.46217">
        <ele>351.02</ele>
        <time>2017-09-18T10:19:46Z</time>
      </trkpt>
      <trkpt lat="43.21444" lon="5.46202">
        <ele>351.98</ele>
        <time>2017-09-18T10:19:56Z</time>
      </trkpt>
      <trkpt lat="43.21444" lon="5.46201">
        <ele>351.98</ele>
        <time>2017-09-18T10:19:57Z</time>
      </trkpt>
      <trkpt lat="43.21449" lon="5.46194">
        <ele>351.98</ele>
        <time>2017-09-18T10:20:03Z</time>
      </trkpt>
      <trkpt lat="43.2145" lon="5.46192">
        <ele>352.46</ele>
        <time>2017-09-18T10:20:05Z</time>
      </trkpt>
      <trkpt lat="43.21454" lon="5.46193">
        <ele>353.42</ele>
        <time>2017-09-18T10:20:08Z</time>
      </trkpt>
      <trkpt lat="43.21458" lon="5.46193">
        <ele>352.94</ele>
        <time>2017-09-18T10:20:12Z</time>
      </trkpt>
      <trkpt lat="43.21465" lon="5.46193">
        <ele>352.94</ele>
        <time>2017-09-18T10:20:17Z</time>
      </trkpt>
      <trkpt lat="43.21468" lon="5.46187">
        <ele>352.94</ele>
        <time>2017-09-18T10:20:28Z</time>
      </trkpt>
      <trkpt lat="43.21469" lon="5.46185">
        <ele>352.94</ele>
        <time>2017-09-18T10:20:37Z</time>
      </trkpt>
      <trkpt lat="43.21479" lon="5.46184">
        <ele>353.42</ele>
        <time>2017-09-18T10:20:45Z</time>
      </trkpt>
      <trkpt lat="43.21487" lon="5.46181">
        <ele>352.94</ele>
        <time>2017-09-18T10:20:52Z</time>
      </trkpt>
      <trkpt lat="43.21495" lon="5.46178">
        <ele>353.42</ele>
        <time>2017-09-18T10:20:59Z</time>
      </trkpt>
      <trkpt lat="43.215" lon="5.46173">
        <ele>353.9</ele>
        <time>2017-09-18T10:21:05Z</time>
      </trkpt>
      <trkpt lat="43.21502" lon="5.46169">
        <ele>353.9</ele>
        <time>2017-09-18T10:21:16Z</time>
      </trkpt>
      <trkpt lat="43.21509" lon="5.46168">
        <ele>353.9</ele>
        <time>2017-09-18T10:21:23Z</time>
      </trkpt>
      <trkpt lat="43.21515" lon="5.46164">
        <ele>352.94</ele>
        <time>2017-09-18T10:21:30Z</time>
      </trkpt>
      <trkpt lat="43.21518" lon="5.46155">
        <ele>351.98</ele>
        <time>2017-09-18T10:21:40Z</time>
      </trkpt>
      <trkpt lat="43.2152" lon="5.46148">
        <ele>351.5</ele>
        <time>2017-09-18T10:21:47Z</time>
      </trkpt>
      <trkpt lat="43.21523" lon="5.46142">
        <ele>351.02</ele>
        <time>2017-09-18T10:21:52Z</time>
      </trkpt>
      <trkpt lat="43.2153" lon="5.4612">
        <ele>351.5</ele>
        <time>2017-09-18T10:22:05Z</time>
      </trkpt>
      <trkpt lat="43.21529" lon="5.46115">
        <ele>351.98</ele>
        <time>2017-09-18T10:22:08Z</time>
      </trkpt>
      <trkpt lat="43.21528" lon="5.4611">
        <ele>352.46</ele>
        <time>2017-09-18T10:22:11Z</time>
      </trkpt>
      <trkpt lat="43.21526" lon="5.46092">
        <ele>353.42</ele>
        <time>2017-09-18T10:22:21Z</time>
      </trkpt>
      <trkpt lat="43.21532" lon="5.46077">
        <ele>354.86</ele>
        <time>2017-09-18T10:22:32Z</time>
      </trkpt>
      <trkpt lat="43.21533" lon="5.46072">
        <ele>355.34</ele>
        <time>2017-09-18T10:22:36Z</time>
      </trkpt>
      <trkpt lat="43.21533" lon="5.46067">
        <ele>355.83</ele>
        <time>2017-09-18T10:22:39Z</time>
      </trkpt>
      <trkpt lat="43.21536" lon="5.46055">
        <ele>356.79</ele>
        <time>2017-09-18T10:22:47Z</time>
      </trkpt>
      <trkpt lat="43.21536" lon="5.46052">
        <ele>357.27</ele>
        <time>2017-09-18T10:22:49Z</time>
      </trkpt>
      <trkpt lat="43.21537" lon="5.46048">
        <ele>357.27</ele>
        <time>2017-09-18T10:22:57Z</time>
      </trkpt>
      <trkpt lat="43.21537" lon="5.46047">
        <ele>356.31</ele>
        <time>2017-09-18T10:23:08Z</time>
      </trkpt>
      <trkpt lat="43.21537" lon="5.46047">
        <ele>356.31</ele>
        <time>2017-09-18T10:23:26Z</time>
      </trkpt>
      <trkpt lat="43.21538" lon="5.46048">
        <ele>356.79</ele>
        <time>2017-09-18T10:23:34Z</time>
      </trkpt>
      <trkpt lat="43.2155" lon="5.46053">
        <ele>356.31</ele>
        <time>2017-09-18T10:23:45Z</time>
      </trkpt>
      <trkpt lat="43.21552" lon="5.46053">
        <ele>356.31</ele>
        <time>2017-09-18T10:23:47Z</time>
      </trkpt>
      <trkpt lat="43.21558" lon="5.46056">
        <ele>356.79</ele>
        <time>2017-09-18T10:23:53Z</time>
      </trkpt>
      <trkpt lat="43.2156" lon="5.46058">
        <ele>356.79</ele>
        <time>2017-09-18T10:23:55Z</time>
      </trkpt>
      <trkpt lat="43.21567" lon="5.46063">
        <ele>357.27</ele>
        <time>2017-09-18T10:24:00Z</time>
      </trkpt>
      <trkpt lat="43.21579" lon="5.46066">
        <ele>359.67</ele>
        <time>2017-09-18T10:24:13Z</time>
      </trkpt>
      <trkpt lat="43.21588" lon="5.46067">
        <ele>359.19</ele>
        <time>2017-09-18T10:24:22Z</time>
      </trkpt>
      <trkpt lat="43.21592" lon="5.46066">
        <ele>357.27</ele>
        <time>2017-09-18T10:24:33Z</time>
      </trkpt>
      <trkpt lat="43.21593" lon="5.46065">
        <ele>357.27</ele>
        <time>2017-09-18T10:24:35Z</time>
      </trkpt>
      <trkpt lat="43.216" lon="5.46059">
        <ele>357.27</ele>
        <time>2017-09-18T10:24:41Z</time>
      </trkpt>
      <trkpt lat="43.2161" lon="5.46053">
        <ele>357.27</ele>
        <time>2017-09-18T10:24:49Z</time>
      </trkpt>
      <trkpt lat="43.21622" lon="5.46052">
        <ele>357.27</ele>
        <time>2017-09-18T10:24:56Z</time>
      </trkpt>
      <trkpt lat="43.2163" lon="5.46055">
        <ele>356.31</ele>
        <time>2017-09-18T10:25:03Z</time>
      </trkpt>
      <trkpt lat="43.21635" lon="5.46058">
        <ele>355.83</ele>
        <time>2017-09-18T10:25:08Z</time>
      </trkpt>
      <trkpt lat="43.21644" lon="5.46062">
        <ele>354.38</ele>
        <time>2017-09-18T10:25:16Z</time>
      </trkpt>
      <trkpt lat="43.21651" lon="5.46067">
        <ele>353.42</ele>
        <time>2017-09-18T10:25:24Z</time>
      </trkpt>
      <trkpt lat="43.21659" lon="5.46068">
        <ele>353.42</ele>
        <time>2017-09-18T10:25:28Z</time>
      </trkpt>
      <trkpt lat="43.21663" lon="5.46067">
        <ele>353.9</ele>
        <time>2017-09-18T10:25:31Z</time>
      </trkpt>
      <trkpt lat="43.21667" lon="5.46064">
        <ele>353.9</ele>
        <time>2017-09-18T10:25:35Z</time>
      </trkpt>
      <trkpt lat="43.21673" lon="5.46059">
        <ele>353.9</ele>
        <time>2017-09-18T10:25:40Z</time>
      </trkpt>
      <trkpt lat="43.2168" lon="5.46058">
        <ele>353.9</ele>
        <time>2017-09-18T10:25:51Z</time>
      </trkpt>
      <trkpt lat="43.2168" lon="5.46058">
        <ele>354.38</ele>
        <time>2017-09-18T10:26:10Z</time>
      </trkpt>
      <trkpt lat="43.21688" lon="5.46056">
        <ele>354.86</ele>
        <time>2017-09-18T10:26:15Z</time>
      </trkpt>
      <trkpt lat="43.21698" lon="5.46053">
        <ele>355.83</ele>
        <time>2017-09-18T10:26:24Z</time>
      </trkpt>
      <trkpt lat="43.21705" lon="5.46044">
        <ele>356.79</ele>
        <time>2017-09-18T10:26:33Z</time>
      </trkpt>
      <trkpt lat="43.21703" lon="5.46031">
        <ele>356.79</ele>
        <time>2017-09-18T10:26:39Z</time>
      </trkpt>
      <trkpt lat="43.21695" lon="5.46018">
        <ele>355.83</ele>
        <time>2017-09-18T10:26:48Z</time>
      </trkpt>
      <trkpt lat="43.21692" lon="5.46011">
        <ele>355.83</ele>
        <time>2017-09-18T10:26:54Z</time>
      </trkpt>
      <trkpt lat="43.21688" lon="5.46001">
        <ele>357.75</ele>
        <time>2017-09-18T10:27:05Z</time>
      </trkpt>
      <trkpt lat="43.21684" lon="5.4599">
        <ele>359.67</ele>
        <time>2017-09-18T10:27:14Z</time>
      </trkpt>
      <trkpt lat="43.21683" lon="5.45988">
        <ele>359.67</ele>
        <time>2017-09-18T10:27:16Z</time>
      </trkpt>
      <trkpt lat="43.21683" lon="5.45976">
        <ele>361.11</ele>
        <time>2017-09-18T10:27:26Z</time>
      </trkpt>
      <trkpt lat="43.21683" lon="5.45968">
        <ele>362.07</ele>
        <time>2017-09-18T10:27:33Z</time>
      </trkpt>
      <trkpt lat="43.21682" lon="5.45964">
        <ele>362.07</ele>
        <time>2017-09-18T10:27:35Z</time>
      </trkpt>
      <trkpt lat="43.21681" lon="5.45961">
        <ele>363.04</ele>
        <time>2017-09-18T10:27:38Z</time>
      </trkpt>
      <trkpt lat="43.21681" lon="5.45949">
        <ele>364.48</ele>
        <time>2017-09-18T10:27:49Z</time>
      </trkpt>
      <trkpt lat="43.21682" lon="5.45941">
        <ele>365.44</ele>
        <time>2017-09-18T10:27:55Z</time>
      </trkpt>
      <trkpt lat="43.21687" lon="5.45932">
        <ele>365.44</ele>
        <time>2017-09-18T10:28:03Z</time>
      </trkpt>
      <trkpt lat="43.21689" lon="5.45928">
        <ele>365.44</ele>
        <time>2017-09-18T10:28:06Z</time>
      </trkpt>
      <trkpt lat="43.21691" lon="5.45919">
        <ele>366.4</ele>
        <time>2017-09-18T10:28:12Z</time>
      </trkpt>
      <trkpt lat="43.21691" lon="5.45911">
        <ele>366.4</ele>
        <time>2017-09-18T10:28:23Z</time>
      </trkpt>
      <trkpt lat="43.21692" lon="5.45905">
        <ele>366.4</ele>
        <time>2017-09-18T10:28:29Z</time>
      </trkpt>
      <trkpt lat="43.21693" lon="5.45902">
        <ele>365.92</ele>
        <time>2017-09-18T10:28:32Z</time>
      </trkpt>
      <trkpt lat="43.217" lon="5.45897">
        <ele>366.4</ele>
        <time>2017-09-18T10:28:38Z</time>
      </trkpt>
      <trkpt lat="43.21705" lon="5.45896">
        <ele>366.4</ele>
        <time>2017-09-18T10:28:43Z</time>
      </trkpt>
      <trkpt lat="43.21716" lon="5.4589">
        <ele>366.88</ele>
        <time>2017-09-18T10:28:54Z</time>
      </trkpt>
      <trkpt lat="43.21722" lon="5.4589">
        <ele>367.84</ele>
        <time>2017-09-18T10:29:00Z</time>
      </trkpt>
      <trkpt lat="43.21728" lon="5.45891">
        <ele>368.8</ele>
        <time>2017-09-18T10:29:05Z</time>
      </trkpt>
      <trkpt lat="43.21738" lon="5.45887">
        <ele>370.73</ele>
        <time>2017-09-18T10:29:15Z</time>
      </trkpt>
      <trkpt lat="43.21749" lon="5.4588">
        <ele>372.17</ele>
        <time>2017-09-18T10:29:26Z</time>
      </trkpt>
      <trkpt lat="43.21759" lon="5.45878">
        <ele>374.57</ele>
        <time>2017-09-18T10:29:36Z</time>
      </trkpt>
      <trkpt lat="43.21764" lon="5.45878">
        <ele>374.09</ele>
        <time>2017-09-18T10:29:41Z</time>
      </trkpt>
      <trkpt lat="43.21778" lon="5.45874">
        <ele>374.09</ele>
        <time>2017-09-18T10:29:53Z</time>
      </trkpt>
      <trkpt lat="43.2178" lon="5.45874">
        <ele>375.05</ele>
        <time>2017-09-18T10:29:55Z</time>
      </trkpt>
      <trkpt lat="43.21785" lon="5.45872">
        <ele>374.57</ele>
        <time>2017-09-18T10:30:01Z</time>
      </trkpt>
      <trkpt lat="43.21788" lon="5.4587">
        <ele>374.57</ele>
        <time>2017-09-18T10:30:03Z</time>
      </trkpt>
      <trkpt lat="43.21792" lon="5.45867">
        <ele>374.57</ele>
        <time>2017-09-18T10:30:06Z</time>
      </trkpt>
      <trkpt lat="43.21794" lon="5.45864">
        <ele>374.57</ele>
        <time>2017-09-18T10:30:09Z</time>
      </trkpt>
      <trkpt lat="43.21793" lon="5.45861">
        <ele>376.49</ele>
        <time>2017-09-18T10:30:21Z</time>
      </trkpt>
      <trkpt lat="43.21792" lon="5.45854">
        <ele>378.9</ele>
        <time>2017-09-18T10:30:31Z</time>
      </trkpt>
      <trkpt lat="43.21792" lon="5.45848">
        <ele>379.86</ele>
        <time>2017-09-18T10:30:44Z</time>
      </trkpt>
      <trkpt lat="43.21791" lon="5.45846">
        <ele>380.82</ele>
        <time>2017-09-18T10:30:48Z</time>
      </trkpt>
      <trkpt lat="43.2179" lon="5.45837">
        <ele>382.26</ele>
        <time>2017-09-18T10:30:55Z</time>
      </trkpt>
      <trkpt lat="43.21789" lon="5.45829">
        <ele>384.18</ele>
        <time>2017-09-18T10:31:03Z</time>
      </trkpt>
      <trkpt lat="43.21792" lon="5.45818">
        <ele>385.15</ele>
        <time>2017-09-18T10:31:10Z</time>
      </trkpt>
      <trkpt lat="43.21793" lon="5.45815">
        <ele>385.15</ele>
        <time>2017-09-18T10:31:12Z</time>
      </trkpt>
      <trkpt lat="43.21794" lon="5.45812">
        <ele>384.66</ele>
        <time>2017-09-18T10:31:28Z</time>
      </trkpt>
      <trkpt lat="43.21794" lon="5.45812">
        <ele>384.18</ele>
        <time>2017-09-18T10:31:30Z</time>
      </trkpt>
      <trkpt lat="43.21796" lon="5.4581">
        <ele>384.66</ele>
        <time>2017-09-18T10:31:33Z</time>
      </trkpt>
      <trkpt lat="43.21801" lon="5.45811">
        <ele>385.15</ele>
        <time>2017-09-18T10:31:37Z</time>
      </trkpt>
      <trkpt lat="43.21807" lon="5.45809">
        <ele>386.11</ele>
        <time>2017-09-18T10:31:43Z</time>
      </trkpt>
      <trkpt lat="43.21814" lon="5.45808">
        <ele>386.59</ele>
        <time>2017-09-18T10:31:55Z</time>
      </trkpt>
      <trkpt lat="43.21814" lon="5.45806">
        <ele>385.15</ele>
        <time>2017-09-18T10:32:08Z</time>
      </trkpt>
      <trkpt lat="43.21814" lon="5.45806">
        <ele>383.22</ele>
        <time>2017-09-18T10:32:19Z</time>
      </trkpt>
      <trkpt lat="43.21814" lon="5.45806">
        <ele>382.26</ele>
        <time>2017-09-18T10:32:38Z</time>
      </trkpt>
      <trkpt lat="43.21814" lon="5.45806">
        <ele>381.3</ele>
        <time>2017-09-18T10:32:55Z</time>
      </trkpt>
      <trkpt lat="43.21814" lon="5.45806">
        <ele>380.82</ele>
        <time>2017-09-18T10:33:08Z</time>
      </trkpt>
      <trkpt lat="43.21814" lon="5.45806">
        <ele>379.86</ele>
        <time>2017-09-18T10:33:21Z</time>
      </trkpt>
      <trkpt lat="43.21814" lon="5.45806">
        <ele>378.42</ele>
        <time>2017-09-18T10:33:35Z</time>
      </trkpt>
      <trkpt lat="43.21813" lon="5.45796">
        <ele>375.05</ele>
        <time>2017-09-18T10:33:46Z</time>
      </trkpt>
      <trkpt lat="43.21811" lon="5.45792">
        <ele>375.53</ele>
        <time>2017-09-18T10:33:55Z</time>
      </trkpt>
      <trkpt lat="43.21804" lon="5.45796">
        <ele>372.17</ele>
        <time>2017-09-18T10:34:07Z</time>
      </trkpt>
      <trkpt lat="43.21804" lon="5.45796">
        <ele>371.69</ele>
        <time>2017-09-18T10:34:08Z</time>
      </trkpt>
      <trkpt lat="43.218" lon="5.45792">
        <ele>369.28</ele>
        <time>2017-09-18T10:34:17Z</time>
      </trkpt>
      <trkpt lat="43.21799" lon="5.45792">
        <ele>368.32</ele>
        <time>2017-09-18T10:34:27Z</time>
      </trkpt>
      <trkpt lat="43.21796" lon="5.45787">
        <ele>366.88</ele>
        <time>2017-09-18T10:34:38Z</time>
      </trkpt>
      <trkpt lat="43.21794" lon="5.45786">
        <ele>364.48</ele>
        <time>2017-09-18T10:34:50Z</time>
      </trkpt>
      <trkpt lat="43.21794" lon="5.45786">
        <ele>363.04</ele>
        <time>2017-09-18T10:35:03Z</time>
      </trkpt>
      <trkpt lat="43.21794" lon="5.45786">
        <ele>362.55</ele>
        <time>2017-09-18T10:35:05Z</time>
      </trkpt>
      <trkpt lat="43.21793" lon="5.45782">
        <ele>359.67</ele>
        <time>2017-09-18T10:35:13Z</time>
      </trkpt>
      <trkpt lat="43.21789" lon="5.45778">
        <ele>357.27</ele>
        <time>2017-09-18T10:35:21Z</time>
      </trkpt>
      <trkpt lat="43.21782" lon="5.45775">
        <ele>355.34</ele>
        <time>2017-09-18T10:35:32Z</time>
      </trkpt>
      <trkpt lat="43.21778" lon="5.45776">
        <ele>353.42</ele>
        <time>2017-09-18T10:35:49Z</time>
      </trkpt>
      <trkpt lat="43.21774" lon="5.45777">
        <ele>350.54</ele>
        <time>2017-09-18T10:36:00Z</time>
      </trkpt>
      <trkpt lat="43.2177" lon="5.45777">
        <ele>348.13</ele>
        <time>2017-09-18T10:36:10Z</time>
      </trkpt>
      <trkpt lat="43.21767" lon="5.45777">
        <ele>346.69</ele>
        <time>2017-09-18T10:36:19Z</time>
      </trkpt>
      <trkpt lat="43.21764" lon="5.45775">
        <ele>346.21</ele>
        <time>2017-09-18T10:36:37Z</time>
      </trkpt>
      <trkpt lat="43.2176" lon="5.45777">
        <ele>344.29</ele>
        <time>2017-09-18T10:36:43Z</time>
      </trkpt>
      <trkpt lat="43.21757" lon="5.45782">
        <ele>341.89</ele>
        <time>2017-09-18T10:36:52Z</time>
      </trkpt>
      <trkpt lat="43.21755" lon="5.45783">
        <ele>339</ele>
        <time>2017-09-18T10:37:05Z</time>
      </trkpt>
      <trkpt lat="43.21752" lon="5.45785">
        <ele>338.52</ele>
        <time>2017-09-18T10:37:17Z</time>
      </trkpt>
      <trkpt lat="43.2175" lon="5.45785">
        <ele>337.08</ele>
        <time>2017-09-18T10:37:28Z</time>
      </trkpt>
      <trkpt lat="43.21748" lon="5.45783">
        <ele>336.12</ele>
        <time>2017-09-18T10:37:34Z</time>
      </trkpt>
      <trkpt lat="43.21747" lon="5.45786">
        <ele>334.2</ele>
        <time>2017-09-18T10:37:46Z</time>
      </trkpt>
      <trkpt lat="43.21747" lon="5.45786">
        <ele>333.71</ele>
        <time>2017-09-18T10:37:59Z</time>
      </trkpt>
      <trkpt lat="43.21747" lon="5.45786">
        <ele>332.27</ele>
        <time>2017-09-18T10:38:12Z</time>
      </trkpt>
      <trkpt lat="43.21747" lon="5.45786">
        <ele>331.79</ele>
        <time>2017-09-18T10:38:13Z</time>
      </trkpt>
      <trkpt lat="43.21742" lon="5.45777">
        <ele>328.91</ele>
        <time>2017-09-18T10:38:23Z</time>
      </trkpt>
      <trkpt lat="43.21734" lon="5.45768">
        <ele>325.54</ele>
        <time>2017-09-18T10:38:32Z</time>
      </trkpt>
      <trkpt lat="43.21731" lon="5.45766">
        <ele>323.62</ele>
        <time>2017-09-18T10:38:42Z</time>
      </trkpt>
      <trkpt lat="43.21731" lon="5.45766">
        <ele>323.62</ele>
        <time>2017-09-18T10:38:45Z</time>
      </trkpt>
      <trkpt lat="43.21725" lon="5.45765">
        <ele>322.18</ele>
        <time>2017-09-18T10:38:52Z</time>
      </trkpt>
      <trkpt lat="43.21724" lon="5.45765">
        <ele>320.26</ele>
        <time>2017-09-18T10:39:02Z</time>
      </trkpt>
      <trkpt lat="43.21723" lon="5.45765">
        <ele>317.37</ele>
        <time>2017-09-18T10:39:14Z</time>
      </trkpt>
      <trkpt lat="43.21723" lon="5.45764">
        <ele>320.26</ele>
        <time>2017-09-18T10:39:15Z</time>
      </trkpt>
      <trkpt lat="43.21721" lon="5.45759">
        <ele>317.37</ele>
        <time>2017-09-18T10:39:21Z</time>
      </trkpt>
      <trkpt lat="43.21714" lon="5.45759">
        <ele>315.93</ele>
        <time>2017-09-18T10:39:29Z</time>
      </trkpt>
      <trkpt lat="43.21714" lon="5.4576">
        <ele>315.45</ele>
        <time>2017-09-18T10:39:31Z</time>
      </trkpt>
      <trkpt lat="43.21713" lon="5.45762">
        <ele>313.53</ele>
        <time>2017-09-18T10:39:42Z</time>
      </trkpt>
      <trkpt lat="43.21712" lon="5.45762">
        <ele>313.05</ele>
        <time>2017-09-18T10:39:51Z</time>
      </trkpt>
      <trkpt lat="43.21711" lon="5.45757">
        <ele>312.57</ele>
        <time>2017-09-18T10:39:53Z</time>
      </trkpt>
      <trkpt lat="43.21706" lon="5.45744">
        <ele>310.16</ele>
        <time>2017-09-18T10:40:05Z</time>
      </trkpt>
      <trkpt lat="43.21705" lon="5.45737">
        <ele>308.72</ele>
        <time>2017-09-18T10:40:10Z</time>
      </trkpt>
      <trkpt lat="43.21696" lon="5.45728">
        <ele>307.28</ele>
        <time>2017-09-18T10:40:19Z</time>
      </trkpt>
      <trkpt lat="43.21693" lon="5.45722">
        <ele>306.8</ele>
        <time>2017-09-18T10:40:23Z</time>
      </trkpt>
      <trkpt lat="43.21689" lon="5.45718">
        <ele>306.32</ele>
        <time>2017-09-18T10:40:28Z</time>
      </trkpt>
      <trkpt lat="43.21685" lon="5.4571">
        <ele>306.32</ele>
        <time>2017-09-18T10:40:40Z</time>
      </trkpt>
      <trkpt lat="43.2168" lon="5.45707">
        <ele>305.36</ele>
        <time>2017-09-18T10:40:58Z</time>
      </trkpt>
      <trkpt lat="43.21675" lon="5.45704">
        <ele>304.39</ele>
        <time>2017-09-18T10:41:02Z</time>
      </trkpt>
      <trkpt lat="43.2166" lon="5.45681">
        <ele>301.51</ele>
        <time>2017-09-18T10:41:16Z</time>
      </trkpt>
      <trkpt lat="43.21657" lon="5.45674">
        <ele>301.03</ele>
        <time>2017-09-18T10:41:21Z</time>
      </trkpt>
      <trkpt lat="43.21649" lon="5.45653">
        <ele>299.11</ele>
        <time>2017-09-18T10:41:34Z</time>
      </trkpt>
      <trkpt lat="43.21647" lon="5.45644">
        <ele>298.15</ele>
        <time>2017-09-18T10:41:40Z</time>
      </trkpt>
      <trkpt lat="43.21644" lon="5.45631">
        <ele>296.22</ele>
        <time>2017-09-18T10:41:52Z</time>
      </trkpt>
      <trkpt lat="43.21644" lon="5.45631">
        <ele>295.74</ele>
        <time>2017-09-18T10:42:03Z</time>
      </trkpt>
      <trkpt lat="43.21642" lon="5.45612">
        <ele>294.78</ele>
        <time>2017-09-18T10:42:13Z</time>
      </trkpt>
      <trkpt lat="43.2164" lon="5.45605">
        <ele>292.38</ele>
        <time>2017-09-18T10:42:23Z</time>
      </trkpt>
      <trkpt lat="43.2164" lon="5.45605">
        <ele>293.82</ele>
        <time>2017-09-18T10:42:25Z</time>
      </trkpt>
      <trkpt lat="43.2164" lon="5.45598">
        <ele>293.34</ele>
        <time>2017-09-18T10:42:40Z</time>
      </trkpt>
      <trkpt lat="43.21639" lon="5.45594">
        <ele>292.86</ele>
        <time>2017-09-18T10:42:44Z</time>
      </trkpt>
      <trkpt lat="43.21637" lon="5.45587">
        <ele>292.38</ele>
        <time>2017-09-18T10:42:50Z</time>
      </trkpt>
      <trkpt lat="43.21636" lon="5.45581">
        <ele>291.9</ele>
        <time>2017-09-18T10:42:57Z</time>
      </trkpt>
      <trkpt lat="43.21634" lon="5.45573">
        <ele>290.94</ele>
        <time>2017-09-18T10:43:04Z</time>
      </trkpt>
      <trkpt lat="43.21632" lon="5.45569">
        <ele>289.97</ele>
        <time>2017-09-18T10:43:07Z</time>
      </trkpt>
      <trkpt lat="43.21626" lon="5.45551">
        <ele>287.57</ele>
        <time>2017-09-18T10:43:18Z</time>
      </trkpt>
      <trkpt lat="43.21619" lon="5.45531">
        <ele>286.13</ele>
        <time>2017-09-18T10:43:28Z</time>
      </trkpt>
      <trkpt lat="43.21619" lon="5.4552">
        <ele>285.17</ele>
        <time>2017-09-18T10:43:36Z</time>
      </trkpt>
      <trkpt lat="43.21619" lon="5.45517">
        <ele>284.69</ele>
        <time>2017-09-18T10:43:38Z</time>
      </trkpt>
      <trkpt lat="43.21618" lon="5.45506">
        <ele>284.21</ele>
        <time>2017-09-18T10:43:43Z</time>
      </trkpt>
      <trkpt lat="43.21615" lon="5.45493">
        <ele>282.77</ele>
        <time>2017-09-18T10:43:50Z</time>
      </trkpt>
      <trkpt lat="43.21612" lon="5.45491">
        <ele>282.28</ele>
        <time>2017-09-18T10:43:52Z</time>
      </trkpt>
      <trkpt lat="43.21605" lon="5.45479">
        <ele>278.92</ele>
        <time>2017-09-18T10:44:01Z</time>
      </trkpt>
      <trkpt lat="43.21604" lon="5.45476">
        <ele>278.44</ele>
        <time>2017-09-18T10:44:04Z</time>
      </trkpt>
      <trkpt lat="43.21589" lon="5.4546">
        <ele>276.52</ele>
        <time>2017-09-18T10:44:15Z</time>
      </trkpt>
      <trkpt lat="43.21583" lon="5.45449">
        <ele>275.07</ele>
        <time>2017-09-18T10:44:26Z</time>
      </trkpt>
      <trkpt lat="43.21578" lon="5.45447">
        <ele>274.11</ele>
        <time>2017-09-18T10:44:38Z</time>
      </trkpt>
      <trkpt lat="43.21576" lon="5.45444">
        <ele>273.15</ele>
        <time>2017-09-18T10:44:43Z</time>
      </trkpt>
      <trkpt lat="43.21573" lon="5.45432">
        <ele>272.67</ele>
        <time>2017-09-18T10:44:52Z</time>
      </trkpt>
      <trkpt lat="43.21572" lon="5.45422">
        <ele>271.71</ele>
        <time>2017-09-18T10:45:01Z</time>
      </trkpt>
      <trkpt lat="43.21572" lon="5.45424">
        <ele>271.71</ele>
        <time>2017-09-18T10:45:03Z</time>
      </trkpt>
      <trkpt lat="43.21574" lon="5.45428">
        <ele>271.71</ele>
        <time>2017-09-18T10:45:16Z</time>
      </trkpt>
      <trkpt lat="43.21575" lon="5.45423">
        <ele>271.71</ele>
        <time>2017-09-18T10:45:28Z</time>
      </trkpt>
      <trkpt lat="43.21576" lon="5.45416">
        <ele>270.27</ele>
        <time>2017-09-18T10:45:37Z</time>
      </trkpt>
      <trkpt lat="43.21576" lon="5.45415">
        <ele>269.79</ele>
        <time>2017-09-18T10:45:40Z</time>
      </trkpt>
      <trkpt lat="43.21578" lon="5.454">
        <ele>269.31</ele>
        <time>2017-09-18T10:45:49Z</time>
      </trkpt>
      <trkpt lat="43.21578" lon="5.45398">
        <ele>269.31</ele>
        <time>2017-09-18T10:45:51Z</time>
      </trkpt>
      <trkpt lat="43.21578" lon="5.45393">
        <ele>268.83</ele>
        <time>2017-09-18T10:45:54Z</time>
      </trkpt>
      <trkpt lat="43.2158" lon="5.4538">
        <ele>268.83</ele>
        <time>2017-09-18T10:46:02Z</time>
      </trkpt>
      <trkpt lat="43.2158" lon="5.45374">
        <ele>269.31</ele>
        <time>2017-09-18T10:46:05Z</time>
      </trkpt>
      <trkpt lat="43.21579" lon="5.45358">
        <ele>268.83</ele>
        <time>2017-09-18T10:46:15Z</time>
      </trkpt>
      <trkpt lat="43.21581" lon="5.45345">
        <ele>266.42</ele>
        <time>2017-09-18T10:46:26Z</time>
      </trkpt>
      <trkpt lat="43.21582" lon="5.45342">
        <ele>265.94</ele>
        <time>2017-09-18T10:46:29Z</time>
      </trkpt>
      <trkpt lat="43.21585" lon="5.45338">
        <ele>264.98</ele>
        <time>2017-09-18T10:46:34Z</time>
      </trkpt>
      <trkpt lat="43.21587" lon="5.45333">
        <ele>263.54</ele>
        <time>2017-09-18T10:46:39Z</time>
      </trkpt>
      <trkpt lat="43.21592" lon="5.45328">
        <ele>262.1</ele>
        <time>2017-09-18T10:46:45Z</time>
      </trkpt>
      <trkpt lat="43.21597" lon="5.45323">
        <ele>259.21</ele>
        <time>2017-09-18T10:46:55Z</time>
      </trkpt>
      <trkpt lat="43.21601" lon="5.45315">
        <ele>256.81</ele>
        <time>2017-09-18T10:47:05Z</time>
      </trkpt>
      <trkpt lat="43.21602" lon="5.45308">
        <ele>254.89</ele>
        <time>2017-09-18T10:47:14Z</time>
      </trkpt>
      <trkpt lat="43.21596" lon="5.45305">
        <ele>253.44</ele>
        <time>2017-09-18T10:47:27Z</time>
      </trkpt>
      <trkpt lat="43.21593" lon="5.45305">
        <ele>252.48</ele>
        <time>2017-09-18T10:47:35Z</time>
      </trkpt>
      <trkpt lat="43.21587" lon="5.45305">
        <ele>251.52</ele>
        <time>2017-09-18T10:47:41Z</time>
      </trkpt>
      <trkpt lat="43.2158" lon="5.45307">
        <ele>248.64</ele>
        <time>2017-09-18T10:47:50Z</time>
      </trkpt>
      <trkpt lat="43.21572" lon="5.45309">
        <ele>247.2</ele>
        <time>2017-09-18T10:47:59Z</time>
      </trkpt>
      <trkpt lat="43.21569" lon="5.45312">
        <ele>245.27</ele>
        <time>2017-09-18T10:48:05Z</time>
      </trkpt>
      <trkpt lat="43.21563" lon="5.45316">
        <ele>243.35</ele>
        <time>2017-09-18T10:48:13Z</time>
      </trkpt>
      <trkpt lat="43.21556" lon="5.45313">
        <ele>241.43</ele>
        <time>2017-09-18T10:48:21Z</time>
      </trkpt>
      <trkpt lat="43.21552" lon="5.45306">
        <ele>240.47</ele>
        <time>2017-09-18T10:48:26Z</time>
      </trkpt>
      <trkpt lat="43.21547" lon="5.45291">
        <ele>238.06</ele>
        <time>2017-09-18T10:48:38Z</time>
      </trkpt>
      <trkpt lat="43.21552" lon="5.45282">
        <ele>235.66</ele>
        <time>2017-09-18T10:48:49Z</time>
      </trkpt>
      <trkpt lat="43.21554" lon="5.45281">
        <ele>235.18</ele>
        <time>2017-09-18T10:49:07Z</time>
      </trkpt>
      <trkpt lat="43.21558" lon="5.45279">
        <ele>234.7</ele>
        <time>2017-09-18T10:49:22Z</time>
      </trkpt>
      <trkpt lat="43.21562" lon="5.45276">
        <ele>233.26</ele>
        <time>2017-09-18T10:49:26Z</time>
      </trkpt>
      <trkpt lat="43.21564" lon="5.45273">
        <ele>232.78</ele>
        <time>2017-09-18T10:49:29Z</time>
      </trkpt>
      <trkpt lat="43.21568" lon="5.4527">
        <ele>231.33</ele>
        <time>2017-09-18T10:49:33Z</time>
      </trkpt>
      <trkpt lat="43.21569" lon="5.45265">
        <ele>230.37</ele>
        <time>2017-09-18T10:49:37Z</time>
      </trkpt>
      <trkpt lat="43.21571" lon="5.4526">
        <ele>229.41</ele>
        <time>2017-09-18T10:49:40Z</time>
      </trkpt>
      <trkpt lat="43.21577" lon="5.45252">
        <ele>227.01</ele>
        <time>2017-09-18T10:49:48Z</time>
      </trkpt>
      <trkpt lat="43.21578" lon="5.45248">
        <ele>227.01</ele>
        <time>2017-09-18T10:49:51Z</time>
      </trkpt>
      <trkpt lat="43.2158" lon="5.45244">
        <ele>226.05</ele>
        <time>2017-09-18T10:49:54Z</time>
      </trkpt>
      <trkpt lat="43.21582" lon="5.45238">
        <ele>225.09</ele>
        <time>2017-09-18T10:49:58Z</time>
      </trkpt>
      <trkpt lat="43.21586" lon="5.45231">
        <ele>223.64</ele>
        <time>2017-09-18T10:50:04Z</time>
      </trkpt>
      <trkpt lat="43.21587" lon="5.45227">
        <ele>222.68</ele>
        <time>2017-09-18T10:50:07Z</time>
      </trkpt>
      <trkpt lat="43.21593" lon="5.45214">
        <ele>220.28</ele>
        <time>2017-09-18T10:50:18Z</time>
      </trkpt>
      <trkpt lat="43.21593" lon="5.45214">
        <ele>219.8</ele>
        <time>2017-09-18T10:50:19Z</time>
      </trkpt>
      <trkpt lat="43.21597" lon="5.45209">
        <ele>218.84</ele>
        <time>2017-09-18T10:50:23Z</time>
      </trkpt>
      <trkpt lat="43.21603" lon="5.45201">
        <ele>216.91</ele>
        <time>2017-09-18T10:50:33Z</time>
      </trkpt>
      <trkpt lat="43.21603" lon="5.45202">
        <ele>216.91</ele>
        <time>2017-09-18T10:50:39Z</time>
      </trkpt>
      <trkpt lat="43.21606" lon="5.45204">
        <ele>216.91</ele>
        <time>2017-09-18T10:50:44Z</time>
      </trkpt>
      <trkpt lat="43.21608" lon="5.45209">
        <ele>216.91</ele>
        <time>2017-09-18T10:50:48Z</time>
      </trkpt>
      <trkpt lat="43.21611" lon="5.4521">
        <ele>216.43</ele>
        <time>2017-09-18T10:51:01Z</time>
      </trkpt>
      <trkpt lat="43.21612" lon="5.45212">
        <ele>216.43</ele>
        <time>2017-09-18T10:51:10Z</time>
      </trkpt>
      <trkpt lat="43.21613" lon="5.45214">
        <ele>216.91</ele>
        <time>2017-09-18T10:51:12Z</time>
      </trkpt>
      <trkpt lat="43.21624" lon="5.45222">
        <ele>216.91</ele>
        <time>2017-09-18T10:51:22Z</time>
      </trkpt>
      <trkpt lat="43.21629" lon="5.45226">
        <ele>216.91</ele>
        <time>2017-09-18T10:51:26Z</time>
      </trkpt>
      <trkpt lat="43.21637" lon="5.45232">
        <ele>216.43</ele>
        <time>2017-09-18T10:51:33Z</time>
      </trkpt>
      <trkpt lat="43.21654" lon="5.45244">
        <ele>215.95</ele>
        <time>2017-09-18T10:51:45Z</time>
      </trkpt>
      <trkpt lat="43.21659" lon="5.45254">
        <ele>214.99</ele>
        <time>2017-09-18T10:51:55Z</time>
      </trkpt>
      <trkpt lat="43.21662" lon="5.45255">
        <ele>214.99</ele>
        <time>2017-09-18T10:52:02Z</time>
      </trkpt>
      <trkpt lat="43.21666" lon="5.45259">
        <ele>214.99</ele>
        <time>2017-09-18T10:52:07Z</time>
      </trkpt>
      <trkpt lat="43.21669" lon="5.45262">
        <ele>214.51</ele>
        <time>2017-09-18T10:52:18Z</time>
      </trkpt>
      <trkpt lat="43.2167" lon="5.45265">
        <ele>214.51</ele>
        <time>2017-09-18T10:52:20Z</time>
      </trkpt>
      <trkpt lat="43.21673" lon="5.45268">
        <ele>214.51</ele>
        <time>2017-09-18T10:52:23Z</time>
      </trkpt>
      <trkpt lat="43.21678" lon="5.45268">
        <ele>214.03</ele>
        <time>2017-09-18T10:52:36Z</time>
      </trkpt>
      <trkpt lat="43.21678" lon="5.45268">
        <ele>214.51</ele>
        <time>2017-09-18T10:52:53Z</time>
      </trkpt>
      <trkpt lat="43.2168" lon="5.45271">
        <ele>214.03</ele>
        <time>2017-09-18T10:52:56Z</time>
      </trkpt>
      <trkpt lat="43.21689" lon="5.4528">
        <ele>213.55</ele>
        <time>2017-09-18T10:53:06Z</time>
      </trkpt>
      <trkpt lat="43.21694" lon="5.45283">
        <ele>213.07</ele>
        <time>2017-09-18T10:53:11Z</time>
      </trkpt>
      <trkpt lat="43.21703" lon="5.45289">
        <ele>212.11</ele>
        <time>2017-09-18T10:53:22Z</time>
      </trkpt>
      <trkpt lat="43.21724" lon="5.45293">
        <ele>211.63</ele>
        <time>2017-09-18T10:53:33Z</time>
      </trkpt>
      <trkpt lat="43.2173" lon="5.45287">
        <ele>211.63</ele>
        <time>2017-09-18T10:53:38Z</time>
      </trkpt>
      <trkpt lat="43.21733" lon="5.45274">
        <ele>211.15</ele>
        <time>2017-09-18T10:53:44Z</time>
      </trkpt>
      <trkpt lat="43.21731" lon="5.45249">
        <ele>210.19</ele>
        <time>2017-09-18T10:53:56Z</time>
      </trkpt>
      <trkpt lat="43.21727" lon="5.45228">
        <ele>209.7</ele>
        <time>2017-09-18T10:54:08Z</time>
      </trkpt>
      <trkpt lat="43.21726" lon="5.45225">
        <ele>209.22</ele>
        <time>2017-09-18T10:54:13Z</time>
      </trkpt>
      <trkpt lat="43.21724" lon="5.45216">
        <ele>209.7</ele>
        <time>2017-09-18T10:54:18Z</time>
      </trkpt>
      <trkpt lat="43.21722" lon="5.45199">
        <ele>209.22</ele>
        <time>2017-09-18T10:54:28Z</time>
      </trkpt>
      <trkpt lat="43.2172" lon="5.45171">
        <ele>208.26</ele>
        <time>2017-09-18T10:54:42Z</time>
      </trkpt>
      <trkpt lat="43.21718" lon="5.45144">
        <ele>207.3</ele>
        <time>2017-09-18T10:54:56Z</time>
      </trkpt>
      <trkpt lat="43.21718" lon="5.45139">
        <ele>207.3</ele>
        <time>2017-09-18T10:55:00Z</time>
      </trkpt>
      <trkpt lat="43.21718" lon="5.4512">
        <ele>206.82</ele>
        <time>2017-09-18T10:55:12Z</time>
      </trkpt>
      <trkpt lat="43.21719" lon="5.4511">
        <ele>206.34</ele>
        <time>2017-09-18T10:55:17Z</time>
      </trkpt>
      <trkpt lat="43.21717" lon="5.45103">
        <ele>206.34</ele>
        <time>2017-09-18T10:55:24Z</time>
      </trkpt>
      <trkpt lat="43.21709" lon="5.45084">
        <ele>206.34</ele>
        <time>2017-09-18T10:55:37Z</time>
      </trkpt>
      <trkpt lat="43.217" lon="5.45067">
        <ele>205.38</ele>
        <time>2017-09-18T10:55:49Z</time>
      </trkpt>
      <trkpt lat="43.21689" lon="5.45049">
        <ele>205.38</ele>
        <time>2017-09-18T10:56:02Z</time>
      </trkpt>
      <trkpt lat="43.21684" lon="5.45044">
        <ele>205.38</ele>
        <time>2017-09-18T10:56:08Z</time>
      </trkpt>
      <trkpt lat="43.21674" lon="5.45029">
        <ele>205.86</ele>
        <time>2017-09-18T10:56:19Z</time>
      </trkpt>
      <trkpt lat="43.21676" lon="5.45017">
        <ele>205.86</ele>
        <time>2017-09-18T10:56:27Z</time>
      </trkpt>
      <trkpt lat="43.2168" lon="5.44996">
        <ele>206.34</ele>
        <time>2017-09-18T10:56:39Z</time>
      </trkpt>
      <trkpt lat="43.21681" lon="5.44989">
        <ele>206.82</ele>
        <time>2017-09-18T10:56:44Z</time>
      </trkpt>
      <trkpt lat="43.21691" lon="5.44969">
        <ele>207.3</ele>
        <time>2017-09-18T10:56:57Z</time>
      </trkpt>
      <trkpt lat="43.21695" lon="5.44962">
        <ele>207.3</ele>
        <time>2017-09-18T10:57:01Z</time>
      </trkpt>
      <trkpt lat="43.21701" lon="5.44953">
        <ele>206.82</ele>
        <time>2017-09-18T10:57:10Z</time>
      </trkpt>
      <trkpt lat="43.21707" lon="5.44947">
        <ele>207.3</ele>
        <time>2017-09-18T10:57:15Z</time>
      </trkpt>
      <trkpt lat="43.21711" lon="5.44944">
        <ele>207.3</ele>
        <time>2017-09-18T10:57:20Z</time>
      </trkpt>
      <trkpt lat="43.21729" lon="5.44933">
        <ele>207.3</ele>
        <time>2017-09-18T10:57:34Z</time>
      </trkpt>
      <trkpt lat="43.2173" lon="5.44932">
        <ele>207.3</ele>
        <time>2017-09-18T10:57:35Z</time>
      </trkpt>
      <trkpt lat="43.21742" lon="5.44919">
        <ele>207.78</ele>
        <time>2017-09-18T10:57:47Z</time>
      </trkpt>
      <trkpt lat="43.21756" lon="5.44911">
        <ele>207.3</ele>
        <time>2017-09-18T10:58:00Z</time>
      </trkpt>
      <trkpt lat="43.21765" lon="5.4491">
        <ele>207.78</ele>
        <time>2017-09-18T10:58:08Z</time>
      </trkpt>
      <trkpt lat="43.21767" lon="5.44911">
        <ele>207.78</ele>
        <time>2017-09-18T10:58:10Z</time>
      </trkpt>
      <trkpt lat="43.21778" lon="5.44912">
        <ele>207.78</ele>
        <time>2017-09-18T10:58:21Z</time>
      </trkpt>
      <trkpt lat="43.21793" lon="5.44915">
        <ele>208.26</ele>
        <time>2017-09-18T10:58:33Z</time>
      </trkpt>
      <trkpt lat="43.21794" lon="5.44916">
        <ele>208.26</ele>
        <time>2017-09-18T10:58:34Z</time>
      </trkpt>
      <trkpt lat="43.21801" lon="5.44913">
        <ele>208.26</ele>
        <time>2017-09-18T10:58:40Z</time>
      </trkpt>
      <trkpt lat="43.21805" lon="5.44899">
        <ele>208.26</ele>
        <time>2017-09-18T10:58:48Z</time>
      </trkpt>
      <trkpt lat="43.21806" lon="5.44893">
        <ele>208.74</ele>
        <time>2017-09-18T10:58:51Z</time>
      </trkpt>
      <trkpt lat="43.2181" lon="5.44875">
        <ele>208.74</ele>
        <time>2017-09-18T10:59:02Z</time>
      </trkpt>
      <trkpt lat="43.21814" lon="5.44864">
        <ele>208.74</ele>
        <time>2017-09-18T10:59:09Z</time>
      </trkpt>
      <trkpt lat="43.21817" lon="5.4486">
        <ele>209.22</ele>
        <time>2017-09-18T10:59:13Z</time>
      </trkpt>
      <trkpt lat="43.21821" lon="5.44856">
        <ele>209.22</ele>
        <time>2017-09-18T10:59:18Z</time>
      </trkpt>
      <trkpt lat="43.21824" lon="5.44854">
        <ele>209.7</ele>
        <time>2017-09-18T10:59:21Z</time>
      </trkpt>
      <trkpt lat="43.21824" lon="5.44857">
        <ele>210.67</ele>
        <time>2017-09-18T10:59:29Z</time>
      </trkpt>
      <trkpt lat="43.21825" lon="5.44856">
        <ele>209.22</ele>
        <time>2017-09-18T10:59:30Z</time>
      </trkpt>
      <trkpt lat="43.2183" lon="5.44856">
        <ele>209.7</ele>
        <time>2017-09-18T10:59:35Z</time>
      </trkpt>
      <trkpt lat="43.21845" lon="5.44855">
        <ele>210.19</ele>
        <time>2017-09-18T10:59:48Z</time>
      </trkpt>
      <trkpt lat="43.21848" lon="5.44856">
        <ele>210.19</ele>
        <time>2017-09-18T10:59:51Z</time>
      </trkpt>
      <trkpt lat="43.21856" lon="5.44857">
        <ele>210.67</ele>
        <time>2017-09-18T10:59:58Z</time>
      </trkpt>
      <trkpt lat="43.21859" lon="5.44857">
        <ele>210.67</ele>
        <time>2017-09-18T11:00:01Z</time>
      </trkpt>
      <trkpt lat="43.21863" lon="5.44857">
        <ele>211.15</ele>
        <time>2017-09-18T11:00:06Z</time>
      </trkpt>
      <trkpt lat="43.21873" lon="5.44847">
        <ele>211.63</ele>
        <time>2017-09-18T11:00:15Z</time>
      </trkpt>
      <trkpt lat="43.21874" lon="5.44842">
        <ele>211.63</ele>
        <time>2017-09-18T11:00:18Z</time>
      </trkpt>
      <trkpt lat="43.21877" lon="5.44834">
        <ele>212.11</ele>
        <time>2017-09-18T11:00:23Z</time>
      </trkpt>
      <trkpt lat="43.21878" lon="5.44823">
        <ele>212.11</ele>
        <time>2017-09-18T11:00:30Z</time>
      </trkpt>
      <trkpt lat="43.21878" lon="5.44813">
        <ele>212.59</ele>
        <time>2017-09-18T11:00:37Z</time>
      </trkpt>
      <trkpt lat="43.21877" lon="5.44805">
        <ele>213.07</ele>
        <time>2017-09-18T11:00:42Z</time>
      </trkpt>
      <trkpt lat="43.21876" lon="5.4479">
        <ele>213.55</ele>
        <time>2017-09-18T11:00:51Z</time>
      </trkpt>
      <trkpt lat="43.2188" lon="5.44772">
        <ele>214.51</ele>
        <time>2017-09-18T11:01:03Z</time>
      </trkpt>
      <trkpt lat="43.21885" lon="5.44763">
        <ele>214.51</ele>
        <time>2017-09-18T11:01:09Z</time>
      </trkpt>
      <trkpt lat="43.21888" lon="5.44745">
        <ele>214.51</ele>
        <time>2017-09-18T11:01:20Z</time>
      </trkpt>
      <trkpt lat="43.21886" lon="5.44735">
        <ele>215.47</ele>
        <time>2017-09-18T11:01:30Z</time>
      </trkpt>
      <trkpt lat="43.21883" lon="5.4472">
        <ele>215.47</ele>
        <time>2017-09-18T11:01:39Z</time>
      </trkpt>
      <trkpt lat="43.21879" lon="5.44693">
        <ele>214.99</ele>
        <time>2017-09-18T11:01:52Z</time>
      </trkpt>
      <trkpt lat="43.2188" lon="5.44686">
        <ele>214.51</ele>
        <time>2017-09-18T11:01:58Z</time>
      </trkpt>
      <trkpt lat="43.21882" lon="5.44679">
        <ele>214.03</ele>
        <time>2017-09-18T11:02:02Z</time>
      </trkpt>
      <trkpt lat="43.21882" lon="5.44656">
        <ele>211.63</ele>
        <time>2017-09-18T11:02:15Z</time>
      </trkpt>
      <trkpt lat="43.21882" lon="5.44653">
        <ele>211.63</ele>
        <time>2017-09-18T11:02:17Z</time>
      </trkpt>
      <trkpt lat="43.21881" lon="5.44648">
        <ele>211.63</ele>
        <time>2017-09-18T11:02:20Z</time>
      </trkpt>
      <trkpt lat="43.21885" lon="5.44638">
        <ele>211.15</ele>
        <time>2017-09-18T11:02:25Z</time>
      </trkpt>
      <trkpt lat="43.21889" lon="5.44627">
        <ele>210.67</ele>
        <time>2017-09-18T11:02:32Z</time>
      </trkpt>
      <trkpt lat="43.21887" lon="5.44624">
        <ele>209.7</ele>
        <time>2017-09-18T11:02:35Z</time>
      </trkpt>
      <trkpt lat="43.21889" lon="5.4462">
        <ele>209.7</ele>
        <time>2017-09-18T11:02:38Z</time>
      </trkpt>
      <trkpt lat="43.21899" lon="5.4461">
        <ele>208.74</ele>
        <time>2017-09-18T11:02:45Z</time>
      </trkpt>
      <trkpt lat="43.21905" lon="5.44605">
        <ele>208.26</ele>
        <time>2017-09-18T11:03:00Z</time>
      </trkpt>
      <trkpt lat="43.21905" lon="5.44605">
        <ele>208.74</ele>
        <time>2017-09-18T11:03:26Z</time>
      </trkpt>
      <trkpt lat="43.21906" lon="5.44605">
        <ele>208.74</ele>
        <time>2017-09-18T11:03:41Z</time>
      </trkpt>
      <trkpt lat="43.21908" lon="5.44606">
        <ele>209.7</ele>
        <time>2017-09-18T11:03:53Z</time>
      </trkpt>
      <trkpt lat="43.21908" lon="5.44606">
        <ele>210.19</ele>
        <time>2017-09-18T11:04:10Z</time>
      </trkpt>
      <trkpt lat="43.21929" lon="5.44563">
        <ele>207.78</ele>
        <time>2017-09-18T11:14:52Z</time>
      </trkpt>
      <trkpt lat="43.21929" lon="5.44563">
        <ele>207.78</ele>
        <time>2017-09-18T11:14:53Z</time>
      </trkpt>
      <trkpt lat="43.21931" lon="5.44558">
        <ele>207.3</ele>
        <time>2017-09-18T11:14:56Z</time>
      </trkpt>
      <trkpt lat="43.21931" lon="5.44556">
        <ele>206.82</ele>
        <time>2017-09-18T11:14:58Z</time>
      </trkpt>
      <trkpt lat="43.21932" lon="5.44548">
        <ele>206.34</ele>
        <time>2017-09-18T11:15:02Z</time>
      </trkpt>
      <trkpt lat="43.21931" lon="5.44536">
        <ele>205.38</ele>
        <time>2017-09-18T11:15:09Z</time>
      </trkpt>
      <trkpt lat="43.21925" lon="5.44515">
        <ele>203.46</ele>
        <time>2017-09-18T11:15:25Z</time>
      </trkpt>
      <trkpt lat="43.21925" lon="5.44513">
        <ele>203.46</ele>
        <time>2017-09-18T11:15:26Z</time>
      </trkpt>
      <trkpt lat="43.21923" lon="5.44502">
        <ele>202.98</ele>
        <time>2017-09-18T11:15:31Z</time>
      </trkpt>
      <trkpt lat="43.21923" lon="5.44486">
        <ele>202.01</ele>
        <time>2017-09-18T11:15:40Z</time>
      </trkpt>
      <trkpt lat="43.21923" lon="5.44478">
        <ele>201.53</ele>
        <time>2017-09-18T11:15:43Z</time>
      </trkpt>
      <trkpt lat="43.21925" lon="5.44456">
        <ele>199.61</ele>
        <time>2017-09-18T11:15:56Z</time>
      </trkpt>
      <trkpt lat="43.21933" lon="5.4443">
        <ele>198.17</ele>
        <time>2017-09-18T11:16:09Z</time>
      </trkpt>
      <trkpt lat="43.21947" lon="5.44408">
        <ele>196.25</ele>
        <time>2017-09-18T11:16:23Z</time>
      </trkpt>
      <trkpt lat="43.2195" lon="5.44401">
        <ele>195.77</ele>
        <time>2017-09-18T11:16:30Z</time>
      </trkpt>
      <trkpt lat="43.21966" lon="5.44384">
        <ele>194.8</ele>
        <time>2017-09-18T11:16:39Z</time>
      </trkpt>
      <trkpt lat="43.21982" lon="5.44359">
        <ele>193.36</ele>
        <time>2017-09-18T11:16:51Z</time>
      </trkpt>
      <trkpt lat="43.21987" lon="5.44344">
        <ele>192.4</ele>
        <time>2017-09-18T11:17:03Z</time>
      </trkpt>
      <trkpt lat="43.21989" lon="5.44335">
        <ele>191.92</ele>
        <time>2017-09-18T11:17:08Z</time>
      </trkpt>
      <trkpt lat="43.21991" lon="5.44329">
        <ele>191.44</ele>
        <time>2017-09-18T11:17:11Z</time>
      </trkpt>
      <trkpt lat="43.21997" lon="5.44319">
        <ele>190.96</ele>
        <time>2017-09-18T11:17:16Z</time>
      </trkpt>
      <trkpt lat="43.22001" lon="5.44313">
        <ele>190.96</ele>
        <time>2017-09-18T11:17:20Z</time>
      </trkpt>
      <trkpt lat="43.22009" lon="5.44301">
        <ele>189.52</ele>
        <time>2017-09-18T11:17:31Z</time>
      </trkpt>
      <trkpt lat="43.22011" lon="5.44294">
        <ele>189.52</ele>
        <time>2017-09-18T11:17:34Z</time>
      </trkpt>
      <trkpt lat="43.22017" lon="5.44287">
        <ele>189.52</ele>
        <time>2017-09-18T11:17:38Z</time>
      </trkpt>
      <trkpt lat="43.22022" lon="5.44275">
        <ele>188.56</ele>
        <time>2017-09-18T11:17:44Z</time>
      </trkpt>
      <trkpt lat="43.22031" lon="5.44251">
        <ele>187.11</ele>
        <time>2017-09-18T11:17:59Z</time>
      </trkpt>
      <trkpt lat="43.22041" lon="5.44218">
        <ele>186.15</ele>
        <time>2017-09-18T11:18:13Z</time>
      </trkpt>
      <trkpt lat="43.22045" lon="5.44198">
        <ele>184.71</ele>
        <time>2017-09-18T11:18:26Z</time>
      </trkpt>
      <trkpt lat="43.22049" lon="5.44179">
        <ele>183.75</ele>
        <time>2017-09-18T11:18:35Z</time>
      </trkpt>
      <trkpt lat="43.22052" lon="5.44166">
        <ele>183.75</ele>
        <time>2017-09-18T11:18:40Z</time>
      </trkpt>
      <trkpt lat="43.2206" lon="5.44147">
        <ele>182.79</ele>
        <time>2017-09-18T11:18:51Z</time>
      </trkpt>
      <trkpt lat="43.22062" lon="5.44145">
        <ele>182.31</ele>
        <time>2017-09-18T11:18:53Z</time>
      </trkpt>
      <trkpt lat="43.22072" lon="5.44122">
        <ele>181.35</ele>
        <time>2017-09-18T11:19:07Z</time>
      </trkpt>
      <trkpt lat="43.22078" lon="5.44106">
        <ele>180.38</ele>
        <time>2017-09-18T11:19:15Z</time>
      </trkpt>
      <trkpt lat="43.22082" lon="5.44101">
        <ele>180.38</ele>
        <time>2017-09-18T11:19:19Z</time>
      </trkpt>
      <trkpt lat="43.22091" lon="5.44092">
        <ele>179.42</ele>
        <time>2017-09-18T11:19:29Z</time>
      </trkpt>
      <trkpt lat="43.22099" lon="5.44084">
        <ele>178.46</ele>
        <time>2017-09-18T11:19:36Z</time>
      </trkpt>
      <trkpt lat="43.22106" lon="5.4408">
        <ele>178.46</ele>
        <time>2017-09-18T11:19:43Z</time>
      </trkpt>
      <trkpt lat="43.22113" lon="5.44075">
        <ele>178.46</ele>
        <time>2017-09-18T11:19:48Z</time>
      </trkpt>
      <trkpt lat="43.22131" lon="5.44057">
        <ele>176.54</ele>
        <time>2017-09-18T11:20:02Z</time>
      </trkpt>
      <trkpt lat="43.2214" lon="5.44048">
        <ele>176.54</ele>
        <time>2017-09-18T11:20:11Z</time>
      </trkpt>
      <trkpt lat="43.22146" lon="5.44039">
        <ele>175.58</ele>
        <time>2017-09-18T11:20:16Z</time>
      </trkpt>
      <trkpt lat="43.22148" lon="5.44036">
        <ele>175.58</ele>
        <time>2017-09-18T11:20:18Z</time>
      </trkpt>
      <trkpt lat="43.22153" lon="5.44032">
        <ele>175.58</ele>
        <time>2017-09-18T11:20:22Z</time>
      </trkpt>
      <trkpt lat="43.22166" lon="5.44024">
        <ele>174.62</ele>
        <time>2017-09-18T11:20:31Z</time>
      </trkpt>
      <trkpt lat="43.22173" lon="5.44022">
        <ele>174.14</ele>
        <time>2017-09-18T11:20:36Z</time>
      </trkpt>
      <trkpt lat="43.22183" lon="5.44016">
        <ele>173.66</ele>
        <time>2017-09-18T11:20:44Z</time>
      </trkpt>
      <trkpt lat="43.222" lon="5.44009">
        <ele>173.17</ele>
        <time>2017-09-18T11:20:56Z</time>
      </trkpt>
      <trkpt lat="43.22204" lon="5.44009">
        <ele>173.17</ele>
        <time>2017-09-18T11:20:59Z</time>
      </trkpt>
      <trkpt lat="43.22212" lon="5.44007">
        <ele>172.69</ele>
        <time>2017-09-18T11:21:05Z</time>
      </trkpt>
      <trkpt lat="43.2223" lon="5.44003">
        <ele>171.73</ele>
        <time>2017-09-18T11:21:15Z</time>
      </trkpt>
      <trkpt lat="43.2224" lon="5.44">
        <ele>171.73</ele>
        <time>2017-09-18T11:21:24Z</time>
      </trkpt>
      <trkpt lat="43.22249" lon="5.43994">
        <ele>171.25</ele>
        <time>2017-09-18T11:21:32Z</time>
      </trkpt>
      <trkpt lat="43.22261" lon="5.43991">
        <ele>170.77</ele>
        <time>2017-09-18T11:21:39Z</time>
      </trkpt>
      <trkpt lat="43.2227" lon="5.43983">
        <ele>170.29</ele>
        <time>2017-09-18T11:21:47Z</time>
      </trkpt>
      <trkpt lat="43.22273" lon="5.4398">
        <ele>170.29</ele>
        <time>2017-09-18T11:21:49Z</time>
      </trkpt>
      <trkpt lat="43.22279" lon="5.43975">
        <ele>169.81</ele>
        <time>2017-09-18T11:21:53Z</time>
      </trkpt>
      <trkpt lat="43.22289" lon="5.4397">
        <ele>169.33</ele>
        <time>2017-09-18T11:22:00Z</time>
      </trkpt>
      <trkpt lat="43.22303" lon="5.43958">
        <ele>168.85</ele>
        <time>2017-09-18T11:22:12Z</time>
      </trkpt>
      <trkpt lat="43.22305" lon="5.43956">
        <ele>168.85</ele>
        <time>2017-09-18T11:22:14Z</time>
      </trkpt>
      <trkpt lat="43.22322" lon="5.43933">
        <ele>167.41</ele>
        <time>2017-09-18T11:22:29Z</time>
      </trkpt>
      <trkpt lat="43.22327" lon="5.43921">
        <ele>166.93</ele>
        <time>2017-09-18T11:22:37Z</time>
      </trkpt>
      <trkpt lat="43.22333" lon="5.43916">
        <ele>166.93</ele>
        <time>2017-09-18T11:22:42Z</time>
      </trkpt>
      <trkpt lat="43.22339" lon="5.43908">
        <ele>166.93</ele>
        <time>2017-09-18T11:22:47Z</time>
      </trkpt>
      <trkpt lat="43.22348" lon="5.43899">
        <ele>166.45</ele>
        <time>2017-09-18T11:22:53Z</time>
      </trkpt>
      <trkpt lat="43.22362" lon="5.43881">
        <ele>165.96</ele>
        <time>2017-09-18T11:23:05Z</time>
      </trkpt>
      <trkpt lat="43.22363" lon="5.4388">
        <ele>165.48</ele>
        <time>2017-09-18T11:23:06Z</time>
      </trkpt>
      <trkpt lat="43.22382" lon="5.43867">
        <ele>165</ele>
        <time>2017-09-18T11:23:20Z</time>
      </trkpt>
      <trkpt lat="43.22388" lon="5.43865">
        <ele>165</ele>
        <time>2017-09-18T11:23:26Z</time>
      </trkpt>
      <trkpt lat="43.22393" lon="5.4386">
        <ele>164.52</ele>
        <time>2017-09-18T11:23:30Z</time>
      </trkpt>
      <trkpt lat="43.22396" lon="5.43859">
        <ele>164.52</ele>
        <time>2017-09-18T11:23:32Z</time>
      </trkpt>
      <trkpt lat="43.224" lon="5.43856">
        <ele>164.04</ele>
        <time>2017-09-18T11:23:36Z</time>
      </trkpt>
      <trkpt lat="43.22409" lon="5.43852">
        <ele>164.04</ele>
        <time>2017-09-18T11:23:41Z</time>
      </trkpt>
      <trkpt lat="43.22419" lon="5.4385">
        <ele>164.04</ele>
        <time>2017-09-18T11:23:48Z</time>
      </trkpt>
      <trkpt lat="43.22421" lon="5.43848">
        <ele>164.04</ele>
        <time>2017-09-18T11:23:50Z</time>
      </trkpt>
      <trkpt lat="43.22437" lon="5.43836">
        <ele>163.56</ele>
        <time>2017-09-18T11:24:00Z</time>
      </trkpt>
      <trkpt lat="43.22443" lon="5.4383">
        <ele>164.04</ele>
        <time>2017-09-18T11:24:04Z</time>
      </trkpt>
      <trkpt lat="43.22455" lon="5.43819">
        <ele>164.52</ele>
        <time>2017-09-18T11:24:18Z</time>
      </trkpt>
      <trkpt lat="43.22471" lon="5.43818">
        <ele>164.52</ele>
        <time>2017-09-18T11:24:29Z</time>
      </trkpt>
      <trkpt lat="43.22475" lon="5.43819">
        <ele>165</ele>
        <time>2017-09-18T11:24:33Z</time>
      </trkpt>
      <trkpt lat="43.22483" lon="5.43819">
        <ele>164.52</ele>
        <time>2017-09-18T11:24:38Z</time>
      </trkpt>
      <trkpt lat="43.22497" lon="5.43816">
        <ele>164.52</ele>
        <time>2017-09-18T11:24:46Z</time>
      </trkpt>
      <trkpt lat="43.22503" lon="5.43818">
        <ele>164.52</ele>
        <time>2017-09-18T11:24:52Z</time>
      </trkpt>
      <trkpt lat="43.22524" lon="5.43817">
        <ele>164.52</ele>
        <time>2017-09-18T11:25:03Z</time>
      </trkpt>
      <trkpt lat="43.2254" lon="5.43815">
        <ele>165</ele>
        <time>2017-09-18T11:25:17Z</time>
      </trkpt>
      <trkpt lat="43.22556" lon="5.43816">
        <ele>165</ele>
        <time>2017-09-18T11:25:29Z</time>
      </trkpt>
      <trkpt lat="43.22573" lon="5.43815">
        <ele>165</ele>
        <time>2017-09-18T11:25:40Z</time>
      </trkpt>
      <trkpt lat="43.22576" lon="5.43816">
        <ele>165</ele>
        <time>2017-09-18T11:25:44Z</time>
      </trkpt>
      <trkpt lat="43.2258" lon="5.43815">
        <ele>165.48</ele>
        <time>2017-09-18T11:25:47Z</time>
      </trkpt>
      <trkpt lat="43.22601" lon="5.43809">
        <ele>165.96</ele>
        <time>2017-09-18T11:25:59Z</time>
      </trkpt>
      <trkpt lat="43.22603" lon="5.43809">
        <ele>165.96</ele>
        <time>2017-09-18T11:26:02Z</time>
      </trkpt>
      <trkpt lat="43.22618" lon="5.43805">
        <ele>165.96</ele>
        <time>2017-09-18T11:26:11Z</time>
      </trkpt>
      <trkpt lat="43.22629" lon="5.43801">
        <ele>165.96</ele>
        <time>2017-09-18T11:26:20Z</time>
      </trkpt>
      <trkpt lat="43.22637" lon="5.43798">
        <ele>165.96</ele>
        <time>2017-09-18T11:26:25Z</time>
      </trkpt>
      <trkpt lat="43.22653" lon="5.43785">
        <ele>165.48</ele>
        <time>2017-09-18T11:26:36Z</time>
      </trkpt>
      <trkpt lat="43.2267" lon="5.43773">
        <ele>164.52</ele>
        <time>2017-09-18T11:26:50Z</time>
      </trkpt>
      <trkpt lat="43.22681" lon="5.43763">
        <ele>164.04</ele>
        <time>2017-09-18T11:26:57Z</time>
      </trkpt>
      <trkpt lat="43.22687" lon="5.4376">
        <ele>163.56</ele>
        <time>2017-09-18T11:27:04Z</time>
      </trkpt>
      <trkpt lat="43.22691" lon="5.43756">
        <ele>163.56</ele>
        <time>2017-09-18T11:27:07Z</time>
      </trkpt>
      <trkpt lat="43.22698" lon="5.43752">
        <ele>163.08</ele>
        <time>2017-09-18T11:27:12Z</time>
      </trkpt>
      <trkpt lat="43.22714" lon="5.43738">
        <ele>161.64</ele>
        <time>2017-09-18T11:27:26Z</time>
      </trkpt>
      <trkpt lat="43.22733" lon="5.43729">
        <ele>160.68</ele>
        <time>2017-09-18T11:27:39Z</time>
      </trkpt>
      <trkpt lat="43.22748" lon="5.43724">
        <ele>159.72</ele>
        <time>2017-09-18T11:27:51Z</time>
      </trkpt>
      <trkpt lat="43.22757" lon="5.4372">
        <ele>159.24</ele>
        <time>2017-09-18T11:27:56Z</time>
      </trkpt>
      <trkpt lat="43.22775" lon="5.43723">
        <ele>158.27</ele>
        <time>2017-09-18T11:28:10Z</time>
      </trkpt>
      <trkpt lat="43.22792" lon="5.43726">
        <ele>156.83</ele>
        <time>2017-09-18T11:28:23Z</time>
      </trkpt>
      <trkpt lat="43.22792" lon="5.43726">
        <ele>156.83</ele>
        <time>2017-09-18T11:28:24Z</time>
      </trkpt>
      <trkpt lat="43.22808" lon="5.43725">
        <ele>155.87</ele>
        <time>2017-09-18T11:28:34Z</time>
      </trkpt>
      <trkpt lat="43.22827" lon="5.43719">
        <ele>154.91</ele>
        <time>2017-09-18T11:28:47Z</time>
      </trkpt>
      <trkpt lat="43.22847" lon="5.43717">
        <ele>153.47</ele>
        <time>2017-09-18T11:29:00Z</time>
      </trkpt>
      <trkpt lat="43.22855" lon="5.43712">
        <ele>152.99</ele>
        <time>2017-09-18T11:29:08Z</time>
      </trkpt>
      <trkpt lat="43.22876" lon="5.43711">
        <ele>151.54</ele>
        <time>2017-09-18T11:29:22Z</time>
      </trkpt>
      <trkpt lat="43.22887" lon="5.43712">
        <ele>151.06</ele>
        <time>2017-09-18T11:29:32Z</time>
      </trkpt>
      <trkpt lat="43.22893" lon="5.43712">
        <ele>150.1</ele>
        <time>2017-09-18T11:29:36Z</time>
      </trkpt>
      <trkpt lat="43.22898" lon="5.43712">
        <ele>149.62</ele>
        <time>2017-09-18T11:29:41Z</time>
      </trkpt>
      <trkpt lat="43.22909" lon="5.43711">
        <ele>148.66</ele>
        <time>2017-09-18T11:29:52Z</time>
      </trkpt>
      <trkpt lat="43.2292" lon="5.43709">
        <ele>148.18</ele>
        <time>2017-09-18T11:29:59Z</time>
      </trkpt>
      <trkpt lat="43.22936" lon="5.43709">
        <ele>146.74</ele>
        <time>2017-09-18T11:30:12Z</time>
      </trkpt>
      <trkpt lat="43.22938" lon="5.43711">
        <ele>146.74</ele>
        <time>2017-09-18T11:30:15Z</time>
      </trkpt>
      <trkpt lat="43.22943" lon="5.43711">
        <ele>146.74</ele>
        <time>2017-09-18T11:30:17Z</time>
      </trkpt>
      <trkpt lat="43.2295" lon="5.43712">
        <ele>145.78</ele>
        <time>2017-09-18T11:30:23Z</time>
      </trkpt>
      <trkpt lat="43.22949" lon="5.43715">
        <ele>145.78</ele>
        <time>2017-09-18T11:30:40Z</time>
      </trkpt>
      <trkpt lat="43.22949" lon="5.43715">
        <ele>145.78</ele>
        <time>2017-09-18T11:30:45Z</time>
      </trkpt>
      <trkpt lat="43.22958" lon="5.43711">
        <ele>145.3</ele>
        <time>2017-09-18T11:30:56Z</time>
      </trkpt>
      <trkpt lat="43.22961" lon="5.4371">
        <ele>145.3</ele>
        <time>2017-09-18T11:30:58Z</time>
      </trkpt>
      <trkpt lat="43.22968" lon="5.43709">
        <ele>144.82</ele>
        <time>2017-09-18T11:31:02Z</time>
      </trkpt>
      <trkpt lat="43.22975" lon="5.43708">
        <ele>144.82</ele>
        <time>2017-09-18T11:31:07Z</time>
      </trkpt>
      <trkpt lat="43.22995" lon="5.437">
        <ele>143.37</ele>
        <time>2017-09-18T11:31:20Z</time>
      </trkpt>
      <trkpt lat="43.22999" lon="5.43699">
        <ele>143.37</ele>
        <time>2017-09-18T11:31:24Z</time>
      </trkpt>
      <trkpt lat="43.23006" lon="5.437">
        <ele>142.89</ele>
        <time>2017-09-18T11:31:29Z</time>
      </trkpt>
      <trkpt lat="43.23025" lon="5.43697">
        <ele>141.45</ele>
        <time>2017-09-18T11:31:43Z</time>
      </trkpt>
      <trkpt lat="43.23027" lon="5.43698">
        <ele>141.45</ele>
        <time>2017-09-18T11:31:45Z</time>
      </trkpt>
      <trkpt lat="43.23043" lon="5.43702">
        <ele>140.01</ele>
        <time>2017-09-18T11:31:58Z</time>
      </trkpt>
      <trkpt lat="43.23052" lon="5.43701">
        <ele>139.05</ele>
        <time>2017-09-18T11:32:06Z</time>
      </trkpt>
      <trkpt lat="43.23055" lon="5.43699">
        <ele>139.53</ele>
        <time>2017-09-18T11:32:08Z</time>
      </trkpt>
      <trkpt lat="43.23068" lon="5.43688">
        <ele>138.57</ele>
        <time>2017-09-18T11:32:19Z</time>
      </trkpt>
      <trkpt lat="43.23075" lon="5.43688">
        <ele>138.09</ele>
        <time>2017-09-18T11:32:27Z</time>
      </trkpt>
      <trkpt lat="43.23079" lon="5.43685">
        <ele>138.57</ele>
        <time>2017-09-18T11:32:41Z</time>
      </trkpt>
    </trkseg>
  </trk>
</gpx>